GFSSGP_prec_cthk_000.txt.gz
RH
25 18 17 22 32 38 38 42 44 49 47 50 51 47 40 38 36 31 32 31 29 26 21 19 20 22 20 22 23 21 18 14 11 22 24 28 19 19 21 19 19 21 22 20 21 22 22 22 20
24 17 18 26 34 41 38 41 47 46 49 47 47 42 42 39 38 35 35 32 31 29 21 20 20 22 18 20 21 20 15 13 12 17 28 29 25 23 20 21 18 20 18 14 14 20 18 18 20
26 17 19 31 38 37 35 41 46 44 43 50 47 39 42 41 38 37 35 32 30 30 25 21 20 21 18 19 18 16 13 13 16 21 27 29 28 21 19 17 17 15 12 12 12 13 11 12 17
29 18 18 31 34 33 30 40 42 44 47 47 44 41 42 42 40 39 35 33 31 32 28 26 19 18 16 16 17 16 14 13 17 27 29 29 25 20 19 18 16 14 13 12 11 11 11 11 12
33 20 21 27 31 30 29 35 48 51 49 43 41 45 45 43 41 40 36 33 32 32 31 28 24 19 17 16 16 15 14 13 14 19 26 20 20 19 17 18 17 15 17 14 12 11 11 12 12
39 25 22 26 30 29 31 39 49 56 53 46 44 46 47 44 41 39 35 34 34 33 33 32 30 22 18 16 15 14 13 11 12 18 19 18 19 18 14 14 15 17 19 16 14 14 13 13 13
45 33 26 24 30 30 35 40 48 53 52 47 44 45 45 44 41 40 35 35 37 35 34 34 32 29 21 17 15 12 10 8 14 18 16 14 17 14 12 12 16 16 19 17 17 16 15 15 15
49 39 27 25 28 31 36 40 49 49 50 47 44 44 46 43 42 40 35 34 38 37 35 34 33 31 25 21 16 10 6 7 11 12 9 10 10 10 11 13 14 13 16 17 18 18 17 16 16
52 48 31 26 26 30 31 37 46 48 45 41 41 44 44 42 41 36 33 34 37 39 36 34 33 31 30 25 20 13 10 9 10 11 11 11 11 11 11 12 13 13 12 13 15 17 17 16 16
55 55 34 28 23 29 31 35 38 38 42 42 43 45 43 41 38 33 33 35 35 38 38 34 34 33 32 29 24 21 17 14 12 12 11 12 12 12 12 14 14 13 12 11 13 14 15 16 16
54 55 40 28 27 27 29 32 34 34 39 44 44 42 42 40 37 33 34 35 35 38 38 35 34 34 33 32 28 24 22 20 17 15 14 14 14 15 15 16 16 15 14 13 12 13 15 16 16
55 55 49 30 28 28 27 30 32 33 39 40 40 40 40 38 37 34 34 34 34 37 38 34 33 34 33 33 32 29 26 24 22 22 20 19 19 19 20 20 20 19 18 16 15 13 15 17 17
56 56 54 33 29 26 27 27 29 32 34 37 39 38 37 37 36 34 33 33 34 36 38 33 32 33 32 32 32 30 28 27 27 27 27 25 24 22 21 21 21 20 20 18 16 15 15 16 18
55 54 54 36 29 26 26 26 25 23 29 32 33 36 36 36 34 32 32 32 33 34 34 34 33 33 32 29 29 28 27 26 26 26 26 26 26 27 28 27 24 20 21 22 20 18 17 16 17
55 54 55 38 28 27 27 27 23 19 25 26 30 32 34 33 31 29 30 32 35 34 35 33 31 29 25 23 23 23 24 24 24 24 25 25 26 26 27 27 28 29 27 26 26 26 24 23 22
51 52 55 36 20 23 26 29 24 25 24 24 25 30 30 29 28 27 30 32 33 33 30 26 21 20 20 20 21 21 21 20 20 22 24 25 26 28 29 28 29 31 32 31 27 27 28 27 26
55 56 55 33 22 27 27 26 25 25 28 28 30 28 27 27 27 29 31 31 30 25 20 18 19 20 21 20 20 19 21 22 22 21 22 25 28 31 32 31 30 33 34 35 33 30 32 32 31
57 59 51 35 26 30 31 28 28 28 28 25 23 23 25 26 29 29 29 25 20 18 18 20 22 23 23 24 23 25 27 28 28 29 30 30 31 32 32 33 34 37 38 38 36 35 36 36 36
62 52 48 37 25 28 30 31 29 26 23 18 21 22 24 28 30 27 23 21 20 20 19 20 20 21 22 25 27 29 31 31 31 33 34 37 38 38 39 39 39 40 42 41 38 39 39 36 37
65 53 47 38 26 28 30 31 25 20 21 22 23 25 27 29 27 24 23 21 21 20 20 19 19 19 21 23 26 30 32 35 36 38 40 42 41 41 41 41 42 43 43 43 43 44 44 43 43
61 50 46 43 32 28 30 32 23 20 22 26 27 27 30 28 26 25 23 23 23 21 20 19 20 22 24 26 28 32 35 38 42 44 44 44 44 44 44 44 44 44 45 46 48 50 51 52 51
52 47 44 41 35 35 33 36 24 23 26 30 29 28 28 28 27 26 26 24 24 22 23 24 25 27 29 30 32 35 38 39 40 40 40 42 42 42 42 42 44 44 46 48 50 53 54 57 57
50 47 43 40 34 32 33 35 27 27 30 33 33 30 29 28 27 26 25 24 24 25 27 28 30 30 29 28 28 28 30 31 32 31 30 32 35 38 40 41 43 45 46 45 50 54 56 56 54
53 46 44 43 36 38 30 33 29 28 26 31 32 30 27 28 27 25 25 26 27 29 32 34 32 30 30 28 28 28 29 30 30 29 30 31 32 33 33 34 37 41 43 43 44 50 53 57 66
48 46 52 50 47 39 28 32 24 24 24 25 28 28 28 29 28 29 31 33 35 36 37 37 34 32 30 28 28 29 30 32 34 36 37 39 40 41 42 43 44 45 46 48 50 51 53 56 60
43 45 50 48 48 38 30 33 25 23 22 24 26 30 33 33 33 34 36 38 38 37 35 34 34 32 33 34 35 36 38 40 41 40 39 38 38 37 36 36 37 38 39 41 45 49 52 55 57
39 43 38 44 43 43 39 31 24 25 26 29 31 33 36 38 37 39 38 37 36 33 34 36 37 38 39 40 41 41 39 38 37 36 36 37 37 36 36 35 35 36 36 37 38 39 40 43 47
37 34 40 44 44 44 39 34 32 31 33 34 37 39 42 41 41 41 39 37 36 38 40 42 44 46 45 39 36 35 35 36 37 38 38 38 38 38 38 38 38 39 40 40 40 40 40 41 41
36 34 32 38 40 42 42 36 31 33 37 39 42 42 41 40 40 39 38 38 41 46 49 50 48 43 40 36 36 36 38 39 40 40 40 40 40 40 40 40 40 41 42 43 44 46 46 47 49
36 37 36 38 38 42 44 41 37 38 40 40 39 37 38 38 39 39 41 48 52 52 47 43 41 40 36 37 38 39 40 40 41 42 42 42 41 40 38 37 38 41 41 44 47 48 52 55 55

GFSSGP_prec_cthk_003.txt.gz
RH
27 21 16 20 28 35 40 41 45 52 48 44 44 49 46 40 36 36 36 32 29 29 27 21 19 22 24 20 22 20 19 17 14 17 19 21 20 21 21 22 21 22 21 21 21 22 21 20 18
29 20 16 24 32 39 38 40 43 48 48 48 48 50 47 41 39 39 38 35 32 31 30 24 21 24 24 19 20 19 17 15 15 17 20 28 28 22 22 22 19 20 20 16 17 21 20 19 20
31 23 16 28 36 37 36 37 39 40 44 47 50 47 43 40 40 41 38 36 34 32 33 27 25 21 21 18 18 17 16 14 14 17 23 29 30 25 21 19 18 17 15 14 15 15 13 15 18
36 26 17 26 33 32 30 31 38 39 44 44 44 45 43 41 40 43 40 36 34 34 34 31 28 23 19 17 17 16 15 13 14 17 20 29 30 24 21 18 18 17 15 15 14 13 13 13 15
44 30 19 22 28 30 31 29 34 39 43 42 42 43 43 42 42 43 41 38 36 34 34 33 30 27 20 16 16 15 13 13 12 18 23 28 27 21 20 17 19 18 17 17 15 12 13 14 15
48 39 26 21 24 30 32 30 34 41 45 45 45 42 45 43 43 43 42 40 37 37 34 33 33 32 27 20 15 14 12 12 10 14 19 20 25 20 19 17 16 16 16 17 17 15 15 14 15
50 47 35 25 27 30 31 32 35 47 53 50 47 43 44 44 43 42 42 40 36 37 36 33 34 33 35 28 21 16 13 10 9 11 17 18 18 18 18 16 14 14 12 13 15 15 16 16 15
49 53 41 29 27 30 30 34 32 47 50 47 45 42 42 43 43 41 40 38 35 36 38 35 35 35 33 32 29 23 17 11 9 14 12 11 14 18 14 12 12 12 11 12 14 15 16 17 17
49 57 52 32 25 29 30 37 35 38 47 46 39 39 41 43 42 41 37 34 35 35 36 39 36 36 35 33 32 29 24 17 13 12 11 11 12 12 12 12 12 14 13 13 13 14 15 17 18
51 55 56 38 26 28 31 35 37 38 44 41 38 39 41 43 42 41 34 34 36 35 35 40 38 36 37 35 34 30 26 23 20 18 15 14 14 14 14 15 16 16 16 15 15 15 15 14 16
49 49 57 45 32 28 32 33 33 34 38 36 41 41 41 42 41 39 34 34 34 34 36 39 38 37 37 36 35 34 31 27 24 22 21 20 19 18 19 20 20 20 20 20 20 19 18 16 15
49 49 55 52 39 30 27 30 30 32 36 36 39 41 39 39 38 37 36 34 34 34 36 39 40 36 35 36 35 34 33 30 28 26 25 25 25 26 25 23 22 22 23 24 24 22 21 20 18
53 50 54 57 47 30 26 24 28 29 33 34 37 37 36 36 37 36 34 34 34 35 36 36 38 37 36 35 34 32 30 28 27 28 28 29 29 29 30 31 32 32 29 27 27 26 25 24 22
52 52 55 55 53 33 27 24 24 24 26 28 31 33 34 35 37 35 33 33 33 37 38 37 37 35 31 28 27 27 27 27 27 27 28 30 30 30 30 31 31 32 33 34 32 30 30 29 29
55 55 54 53 56 39 29 27 23 21 24 25 25 28 30 31 35 35 33 32 33 35 36 34 33 27 24 23 23 24 26 27 26 24 24 25 26 28 29 29 29 30 32 34 34 33 33 31 32
56 55 54 54 53 33 23 27 24 25 25 24 23 25 27 31 31 31 30 31 32 34 32 30 24 24 24 24 25 25 26 26 26 26 23 21 23 26 28 29 30 31 31 33 34 34 34 33 32
58 57 54 56 45 32 21 25 24 27 28 25 23 24 28 29 29 29 28 29 31 29 24 21 22 26 27 28 28 27 28 28 29 30 31 33 35 35 37 37 35 35 36 36 38 40 41 37 34
58 57 56 57 43 37 26 27 28 26 26 26 27 29 28 24 26 27 25 29 28 23 21 21 23 24 26 27 27 27 29 31 32 32 34 36 38 41 41 41 40 41 42 41 42 45 47 44 40
67 60 56 53 45 38 26 29 28 30 29 28 28 26 21 21 26 29 30 28 24 22 22 22 22 21 21 22 24 27 29 32 35 37 39 39 42 44 46 46 45 46 47 47 47 48 50 51 51
67 59 57 52 45 40 26 29 29 28 27 25 21 20 22 26 28 29 29 26 23 23 24 23 22 21 21 22 26 29 32 36 40 42 45 46 49 49 49 49 49 49 49 49 49 51 52 53 55
68 62 59 55 46 44 32 28 30 29 25 21 21 22 26 29 30 30 28 26 26 26 25 23 23 22 23 26 28 30 34 38 40 41 42 43 42 41 42 42 41 40 41 40 42 45 48 51 52
78 62 62 53 51 51 37 39 31 27 25 24 25 27 29 30 31 30 30 28 27 26 26 25 25 27 27 28 29 30 31 33 33 32 32 32 32 33 35 36 38 41 42 44 45 47 48 52 56
73 66 58 55 50 45 39 36 30 25 27 27 31 29 31 31 31 31 29 28 28 28 27 28 29 31 34 33 32 31 30 31 31 32 33 34 36 37 38 38 39 39 40 41 43 46 47 52 56
74 61 57 56 52 51 38 33 29 27 26 30 31 31 31 30 31 31 30 29 28 29 32 34 35 37 36 35 33 32 33 34 34 35 37 37 37 36 34 33 34 35 35 35 35 37 39 43 47
64 62 68 63 60 54 36 35 23 25 26 28 29 30 30 31 33 33 31 29 31 34 36 37 36 35 35 36 36 36 36 38 38 38 35 33 32 32 33 34 34 34 33 33 33 33 34 35 38
58 57 61 59 58 48 37 36 24 25 26 25 26 29 32 33 34 33 32 33 35 38 38 38 38 39 39 39 38 39 39 36 34 33 33 34 35 35 35 35 35 35 36 36 36 36 36 36 36
53 56 53 54 55 58 45 31 24 29 28 26 28 33 33 34 35 35 36 40 41 41 40 41 43 43 44 43 41 38 35 34 34 35 36 36 36 36 36 36 36 36 36 36 37 37 37 39 41
53 55 54 55 58 56 45 36 33 30 32 31 34 34 36 37 39 42 43 41 39 40 42 45 48 49 45 38 34 33 34 35 36 37 38 38 38 37 35 34 33 32 31 32 34 35 36 39 43
53 47 45 48 50 48 45 36 28 29 34 35 37 38 40 42 43 42 40 38 40 43 49 53 49 42 37 35 35 36 36 38 39 39 38 37 35 33 30 28 25 24 23 23 25 27 31 38 40
52 42 41 43 41 45 44 38 32 34 37 41 43 43 43 41 38 38 39 41 46 51 53 48 42 40 38 37 37 39 40 41 40 38 34 32 29 26 22 20 19 18 17 18 19 20 24 27 26

GFSSGP_prec_cthk_006.txt.gz
RH
27 23 16 18 28 33 36 39 41 48 50 48 46 42 45 44 40 39 38 35 33 31 31 30 26 23 28 23 22 20 18 17 15 15 17 22 19 18 20 20 22 22 22 22 22 21 22 20 20
31 26 16 22 32 38 36 36 39 42 45 44 45 44 49 46 43 41 40 37 36 34 33 31 29 24 31 27 25 19 17 15 14 16 18 28 25 20 21 22 19 20 20 16 17 20 21 20 21
40 28 17 26 35 36 34 36 41 36 41 43 41 44 48 47 44 42 41 41 37 35 35 34 32 32 32 27 21 18 17 15 15 13 17 28 24 21 21 20 19 18 17 15 16 18 15 16 17
47 34 22 21 30 32 31 36 34 35 37 43 39 45 47 44 44 43 43 42 39 36 35 35 35 32 26 22 18 17 16 14 14 16 18 28 27 26 21 20 18 18 17 16 15 16 14 14 16
46 43 30 20 23 29 32 28 30 36 37 41 38 39 44 44 44 44 43 42 40 37 36 35 37 34 29 22 17 16 15 13 13 17 19 22 29 27 21 18 17 16 14 15 15 16 15 13 15
42 46 41 29 22 25 30 31 32 34 39 42 40 39 41 42 44 44 44 43 41 37 37 37 37 38 34 30 23 17 14 12 10 12 18 20 23 23 19 16 15 13 13 14 16 17 18 16 15
41 47 48 34 26 25 28 33 34 33 41 44 41 43 41 39 43 42 44 43 40 37 37 40 38 39 40 36 33 27 19 16 11 10 13 17 17 18 15 16 14 13 14 20 21 21 19 18 17
43 44 49 42 29 27 27 32 35 34 42 46 49 48 43 40 41 39 41 41 39 36 37 39 42 40 40 39 37 34 30 25 20 13 17 14 16 14 12 13 13 14 16 19 21 15 16 16 17
47 45 49 50 32 28 29 35 36 35 39 50 51 46 42 39 40 40 40 39 36 37 37 38 42 43 40 39 38 37 35 30 26 21 18 16 14 14 13 14 14 15 17 18 18 21 17 17 16
49 47 44 52 39 30 32 34 36 36 35 43 46 42 41 43 43 43 42 38 35 37 37 37 40 43 41 38 38 37 35 32 28 25 22 20 19 19 19 19 20 21 22 22 22 23 22 21 20
49 46 43 49 50 36 33 32 35 37 37 41 41 36 42 44 43 43 40 37 35 36 36 37 39 42 41 39 38 38 35 33 31 28 25 24 23 24 25 25 26 25 26 26 26 26 25 24 23
49 45 44 49 52 44 31 32 33 32 33 37 37 36 43 43 42 41 39 38 36 35 35 36 39 40 41 40 37 36 35 32 29 29 28 28 28 28 29 30 31 31 31 31 31 31 30 29 28
53 47 46 49 52 54 39 29 30 28 29 33 37 35 39 39 40 39 39 39 36 34 34 36 38 38 39 37 32 31 30 29 28 27 28 30 30 31 31 32 32 32 33 34 34 33 32 32 32
53 50 48 49 53 54 49 31 32 24 26 29 31 32 33 36 37 37 39 38 36 34 32 35 37 36 33 26 25 27 28 28 27 26 25 26 27 28 29 29 29 31 32 32 32 32 33 31 32
58 56 52 47 50 55 52 35 24 23 23 24 28 28 26 31 33 34 37 36 33 32 33 33 34 32 26 25 26 27 28 29 29 30 28 26 26 26 27 27 29 32 35 35 35 34 35 35 36
61 59 56 45 49 53 48 30 19 21 22 25 27 26 26 28 30 33 33 32 31 32 34 32 29 24 26 28 30 30 30 30 30 31 32 34 36 37 37 36 36 36 37 39 39 40 40 40 41
60 57 54 49 49 46 44 33 20 24 24 27 28 27 26 26 30 30 30 29 29 29 29 26 22 23 26 29 30 31 30 31 32 32 33 35 38 39 41 42 42 43 44 44 46 46 49 49 48
59 56 53 52 52 44 44 32 23 27 27 28 29 30 29 28 30 29 28 25 26 27 26 27 24 22 24 27 28 29 30 32 35 37 39 40 42 44 47 49 49 50 50 49 50 51 53 53 51
60 59 57 56 53 45 44 33 23 28 27 26 27 30 31 29 28 24 20 24 29 30 28 23 23 23 24 25 26 28 31 35 38 40 43 45 48 49 51 52 50 49 47 45 44 45 45 44 46
60 63 61 59 54 46 46 37 23 28 27 28 29 31 30 25 22 23 26 29 31 30 26 26 25 25 25 25 26 28 31 33 35 38 41 42 43 43 41 39 37 37 36 37 39 42 45 46 47
70 63 67 63 58 50 46 42 24 24 26 29 29 27 25 23 24 28 29 31 32 30 28 27 27 26 25 25 27 30 33 36 38 38 37 36 35 35 35 35 35 37 38 38 39 41 43 47 47
83 66 70 64 65 57 47 51 32 23 27 29 29 28 28 28 31 30 32 33 32 31 31 30 28 27 27 28 29 33 35 35 36 36 36 36 36 36 38 38 37 35 33 32 32 33 34 35 36
68 73 73 67 62 53 50 52 35 23 28 29 28 30 32 31 33 34 33 33 34 33 32 30 28 28 29 30 32 34 36 38 38 37 37 37 36 34 30 29 29 30 30 31 31 31 31 31 31
75 76 74 68 61 61 50 47 37 26 26 27 29 33 35 34 34 34 35 35 33 34 32 31 30 31 34 35 37 39 39 38 38 37 36 32 30 31 31 32 33 34 34 34 33 33 34 34 34
81 80 86 73 69 59 46 47 36 24 26 27 32 34 36 35 34 35 34 34 34 33 33 32 35 38 39 40 40 40 40 39 36 32 30 30 31 32 32 33 33 33 33 32 32 32 32 32 33
80 77 72 70 66 55 48 44 30 24 24 26 30 31 35 36 36 36 35 36 35 35 36 39 42 42 43 44 43 41 37 32 30 30 31 33 33 33 33 33 32 31 29 27 25 24 24 25 28
80 77 65 67 60 60 51 39 30 29 30 29 30 32 37 37 37 36 36 38 39 40 42 44 44 44 45 45 42 36 33 34 34 34 35 37 36 33 30 27 25 23 21 20 18 18 18 20 24
71 70 69 67 65 61 50 42 39 31 31 32 33 35 36 38 38 39 41 43 44 44 44 44 44 47 48 44 38 35 36 37 39 40 38 34 29 26 24 21 20 19 19 19 18 18 17 18 24
66 60 61 62 62 59 54 42 33 30 33 37 38 38 39 40 42 44 46 45 42 43 46 48 50 49 44 38 38 39 41 39 36 33 29 26 24 22 21 21 21 20 20 19 18 18 18 18 20
62 60 59 63 59 56 50 39 30 33 36 39 41 41 43 45 46 44 41 42 44 49 53 51 46 41 41 40 41 42 39 37 34 29 26 25 24 24 23 21 21 21 21 21 20 20 20 22 24

GFSSGP_prec_cthk_009.txt.gz
RH
37 28 21 14 23 28 31 30 36 41 44 46 44 39 37 42 41 41 40 37 35 33 31 31 34 32 32 30 27 24 21 17 14 13 17 18 19 18 20 18 21 22 22 20 22 21 20 21 21
44 32 23 18 27 32 30 31 39 38 41 42 44 41 39 44 43 43 41 38 36 35 34 33 34 33 31 26 27 26 20 16 14 14 20 24 22 19 19 20 20 19 20 16 15 20 21 21 20
46 40 26 22 31 32 31 33 35 35 39 42 42 40 39 44 48 46 44 41 40 37 35 34 34 35 36 32 28 23 19 17 13 14 21 29 27 21 20 20 17 16 16 16 16 16 16 18 19
43 46 33 20 25 31 31 31 31 35 34 41 41 40 41 48 49 47 45 42 41 39 37 36 36 39 41 29 20 18 17 15 12 13 20 30 29 22 20 17 16 16 17 17 16 15 16 16 17
41 44 44 30 21 24 29 26 30 34 35 37 43 40 40 48 48 47 46 43 42 40 38 37 39 39 35 31 24 16 16 15 12 14 19 27 28 28 20 17 16 17 15 15 16 15 15 15 15
40 39 48 43 30 22 28 29 29 31 35 39 40 37 38 45 46 45 44 43 42 41 38 37 40 42 38 37 33 28 20 15 13 13 17 23 27 28 20 18 17 16 14 16 20 20 19 18 17
43 41 44 47 38 24 23 29 32 31 35 40 39 39 39 41 44 43 43 42 41 41 38 37 38 43 42 40 38 35 30 26 21 15 14 18 19 17 20 18 18 18 16 21 21 21 21 22 21
45 43 40 48 46 28 23 27 32 34 35 40 39 42 49 45 43 42 43 42 40 41 37 37 38 40 42 40 40 41 38 34 30 25 21 21 19 18 18 19 20 22 17 18 24 23 23 23 18
49 48 43 45 51 36 27 30 32 34 34 41 46 52 51 48 44 44 45 43 42 41 37 37 37 39 41 41 38 39 41 41 33 29 25 25 22 20 19 18 18 18 20 21 22 27 27 26 25
53 50 43 41 49 46 32 33 34 34 35 38 53 53 49 45 46 47 47 44 42 39 37 38 37 37 40 41 39 37 37 36 34 31 28 26 25 23 23 23 25 25 26 27 27 27 27 27 26
54 47 44 41 45 51 39 34 34 34 36 35 44 47 43 41 46 47 46 45 42 39 37 37 37 38 39 41 40 38 37 36 34 32 30 28 27 26 26 27 28 29 30 30 31 31 31 31 31
53 49 46 43 44 49 51 37 32 33 34 34 36 42 40 39 45 46 46 43 42 42 38 35 36 37 39 39 39 38 34 33 32 30 29 29 29 29 30 31 32 33 35 35 35 33 33 32 32
56 52 49 48 46 48 52 45 34 30 33 34 34 39 36 39 43 42 43 42 42 42 40 36 36 37 39 37 34 29 29 29 29 28 27 27 28 28 29 30 31 31 32 31 31 31 32 32 33
56 55 52 49 47 48 50 49 40 23 29 32 30 33 34 37 38 39 39 40 40 39 38 34 34 37 37 35 26 27 29 29 30 30 30 28 28 29 29 30 30 32 34 34 35 35 35 34 35
62 60 56 48 47 47 48 45 47 29 23 22 27 30 32 33 32 31 35 37 38 37 35 33 35 37 35 29 27 29 31 33 34 35 36 36 34 32 32 32 34 36 39 40 40 40 39 39 40
68 64 61 49 47 44 42 45 46 26 18 23 24 28 30 28 28 29 32 34 35 35 32 32 34 33 28 28 30 32 33 34 35 36 36 37 38 39 40 40 41 42 44 45 46 46 46 45 45
72 66 57 55 47 45 44 42 39 26 22 25 26 29 29 27 28 30 31 32 31 29 29 29 29 25 26 29 30 32 33 34 35 37 38 40 42 43 44 46 49 50 50 49 48 47 46 44 43
71 61 56 51 48 45 43 41 41 27 25 27 27 29 30 29 29 27 30 30 30 26 23 26 29 27 29 27 30 33 34 35 36 38 41 43 45 46 47 49 49 47 45 43 41 39 37 37 37
66 58 53 56 52 49 43 40 40 29 24 29 28 30 31 32 32 32 32 28 22 19 24 31 31 30 27 27 29 31 32 33 35 37 39 40 42 44 43 41 39 37 36 36 36 36 37 37 37
67 66 58 58 54 51 49 41 40 27 22 26 28 31 30 30 33 32 27 21 24 28 31 32 30 29 27 28 29 29 31 33 36 38 40 40 38 37 38 37 37 36 36 36 34 31 28 28 29
68 62 59 64 61 57 47 41 42 31 23 25 29 32 31 31 29 25 23 26 31 34 33 32 31 30 30 29 29 30 31 32 34 36 37 38 39 39 38 37 35 31 28 27 27 28 28 28 29
75 67 62 66 68 65 51 48 45 36 25 27 31 32 31 30 26 26 27 31 34 37 37 34 32 32 30 29 28 28 30 34 38 40 40 40 38 36 32 28 28 29 30 30 31 31 31 32 32
76 72 72 69 68 58 53 51 43 39 25 26 31 34 33 31 29 31 33 36 38 38 37 36 34 31 29 28 31 35 37 40 41 40 38 35 31 29 30 31 32 32 31 31 30 29 29 28 28
72 76 76 70 67 60 51 50 45 33 25 25 30 33 35 32 32 34 35 38 38 39 38 36 34 33 31 33 36 39 41 41 40 37 32 31 30 31 32 32 31 28 25 23 22 21 20 20 20
80 82 91 90 80 62 51 51 40 35 29 27 28 31 35 34 34 35 37 38 39 38 38 36 36 36 36 38 40 42 42 40 36 32 31 31 32 32 29 26 23 21 20 19 18 18 17 17 16
81 79 81 82 70 60 56 49 34 31 30 28 28 33 35 35 35 36 38 40 40 39 39 39 40 40 40 42 44 45 42 38 35 33 33 32 29 26 22 21 21 20 18 18 17 17 17 17 18
91 87 74 71 65 63 54 42 36 35 35 35 31 31 34 36 36 38 40 40 42 43 43 43 43 42 44 46 46 43 38 36 35 34 32 31 28 27 23 20 20 19 19 19 20 20 19 19 19
78 74 88 72 70 66 56 48 43 38 37 36 35 36 36 36 38 40 43 45 47 47 46 45 46 48 48 45 41 38 38 37 36 36 34 32 29 26 21 21 21 21 21 20 19 19 20 19 20
69 78 76 74 68 61 55 46 41 38 36 38 37 36 37 38 41 45 47 49 50 47 47 51 52 50 45 42 41 41 38 39 38 34 31 28 25 23 22 22 22 22 21 20 19 19 19 18 18
61 69 78 70 66 62 58 52 40 35 35 35 37 38 40 44 48 50 50 50 48 50 54 53 50 46 44 44 43 41 42 42 39 35 32 28 25 24 23 22 21 20 19 18 17 15 13 13 14

GFSSGP_prec_cthk_012.txt.gz
RH
40 36 28 17 21 22 25 28 33 37 40 39 39 35 36 39 39 40 39 37 35 33 32 31 35 32 33 33 30 27 22 20 15 13 17 17 17 18 20 17 19 21 22 17 20 21 21 22 20
38 43 31 21 22 24 24 27 30 34 36 38 40 38 37 38 40 43 41 40 37 34 32 35 35 35 37 34 25 21 20 19 16 12 20 27 28 25 21 18 19 18 19 18 17 19 21 22 21
38 42 41 26 22 25 31 29 29 30 35 40 41 39 38 39 44 47 43 42 40 36 35 35 36 35 36 35 26 20 18 18 16 13 20 30 31 27 22 20 20 16 17 16 16 16 16 18 19
40 39 44 31 20 24 29 30 27 32 33 39 40 40 39 42 45 49 47 45 41 39 36 36 36 37 40 39 27 19 16 17 14 12 19 29 31 30 22 20 17 17 17 18 17 16 15 15 15
41 37 43 43 30 18 24 26 28 33 33 35 39 38 39 41 49 48 47 45 43 42 40 38 38 40 39 35 32 26 18 14 13 12 19 27 29 30 28 20 18 18 18 15 15 17 18 15 15
45 38 38 45 40 27 23 26 27 31 34 33 36 38 40 41 47 49 47 45 43 42 41 41 39 41 40 39 36 32 28 22 15 13 18 24 26 28 29 24 20 19 18 18 21 21 21 20 20
47 44 39 40 45 36 21 25 28 29 33 36 36 39 37 38 39 47 45 44 42 42 42 41 41 42 43 43 41 39 36 32 28 22 18 19 22 22 22 20 20 19 20 19 19 22 22 22 22
48 46 42 36 41 45 27 21 29 30 30 33 39 40 40 40 40 44 44 44 41 42 42 41 40 43 45 47 43 42 41 40 36 31 26 24 22 21 22 19 19 18 20 17 18 20 24 25 26
51 48 44 40 37 46 35 27 28 33 33 33 39 39 41 50 47 44 45 44 43 41 42 39 39 40 44 46 47 42 42 43 41 35 31 28 30 30 26 24 22 22 22 23 24 25 26 27 27
54 49 43 40 37 42 43 35 30 32 34 34 38 45 50 51 51 48 48 48 45 43 42 38 38 38 42 42 46 48 46 43 42 41 39 36 34 34 27 27 27 27 27 29 29 30 31 31 34
57 48 45 43 41 39 46 41 33 32 34 35 40 51 53 51 46 46 49 49 48 46 43 39 38 38 40 40 43 46 45 44 40 38 36 35 31 30 29 29 30 31 32 33 34 34 35 36 35
57 49 48 46 45 41 43 48 35 32 34 38 37 44 46 47 44 43 47 48 49 46 44 42 38 37 39 40 41 42 38 33 34 31 30 29 29 29 29 29 30 31 31 32 31 33 33 32 32
60 52 51 49 48 43 42 47 47 32 31 37 36 35 44 42 41 41 44 46 47 45 43 42 40 38 37 40 41 37 33 32 31 30 28 27 27 28 30 32 32 33 35 34 35 35 36 36 37
61 57 53 53 51 48 43 44 46 39 30 32 34 34 37 39 36 41 43 43 44 42 42 40 40 37 36 40 40 34 31 33 33 33 32 32 31 31 32 32 33 34 35 36 38 39 39 39 40
69 64 61 55 52 49 46 41 44 51 34 24 26 28 30 33 33 38 39 37 36 38 38 38 37 35 37 41 40 31 34 36 36 37 37 37 36 36 36 37 39 42 43 42 45 46 48 48 48
73 68 64 52 53 49 46 39 45 47 36 24 23 24 28 31 32 33 32 32 32 34 35 35 33 32 35 39 35 34 36 36 36 38 39 39 39 40 41 42 45 47 48 50 51 50 47 46 45
77 67 62 58 54 49 44 40 43 41 36 27 23 25 28 31 31 29 30 31 31 32 33 32 30 28 31 35 37 37 36 37 38 39 41 40 40 41 43 45 47 47 47 46 43 40 39 37 38
75 68 59 59 52 45 44 39 42 42 35 27 23 26 28 30 31 29 30 30 31 31 31 30 26 26 32 37 38 36 37 39 41 41 41 42 43 45 46 44 42 39 37 37 37 39 38 37 35
67 59 59 56 53 50 47 41 40 41 37 28 25 27 27 31 32 31 30 29 28 28 29 25 23 29 35 37 34 36 38 39 38 39 40 42 42 41 38 37 37 37 36 35 32 29 28 30 31
70 65 62 62 52 51 49 41 41 41 36 29 24 28 28 30 32 33 32 30 28 28 24 25 30 34 35 34 34 36 36 35 35 35 33 33 35 37 37 37 36 35 32 29 29 28 28 31 31
75 69 63 61 59 57 50 40 39 39 36 30 22 27 30 31 32 33 32 31 29 24 26 31 34 36 35 35 36 35 32 30 31 34 37 39 39 39 38 36 32 29 28 27 27 27 26 28 27
80 70 69 67 71 65 53 47 40 38 36 33 25 27 30 31 33 33 31 26 25 27 31 34 37 37 36 35 34 32 32 34 36 38 40 41 40 36 33 30 28 27 27 26 23 21 19 21 21
75 73 69 71 74 66 57 52 38 37 36 32 26 28 32 32 34 35 32 28 30 34 36 36 38 37 36 34 32 33 35 38 40 42 41 38 36 32 30 28 26 23 20 18 17 17 16 19 20
81 76 76 71 70 64 51 48 39 35 33 30 26 29 32 32 35 37 33 32 36 37 38 39 38 37 34 34 34 36 39 43 44 43 40 36 32 29 27 25 23 20 19 18 17 17 17 17 18
82 84 94 90 86 61 49 48 38 39 35 32 28 28 29 34 37 36 35 36 37 38 39 39 37 37 37 36 37 42 45 46 43 38 34 31 30 29 28 26 23 20 18 18 18 18 18 18 18
86 75 70 71 63 54 56 47 38 36 36 34 32 31 31 34 37 37 38 38 39 40 39 38 39 40 38 38 44 47 45 41 37 33 32 31 30 28 24 22 21 19 19 19 19 18 19 20 21
93 85 69 63 57 54 48 43 38 34 34 33 34 32 32 36 39 39 40 40 40 40 41 43 43 40 41 47 49 45 41 38 35 35 35 34 32 28 24 22 21 20 20 19 19 19 18 17 17
85 78 80 65 66 61 49 45 41 37 35 34 34 35 36 39 39 39 42 43 43 45 46 46 43 46 50 48 46 43 41 40 38 37 37 35 32 27 25 23 22 21 20 19 18 16 14 14 14
85 86 79 66 59 54 50 44 39 37 34 35 36 36 39 41 41 42 45 48 48 49 48 47 51 51 47 47 46 45 44 41 41 41 40 37 32 26 24 23 22 21 19 16 15 14 14 14 14
77 71 76 75 67 56 51 45 42 39 36 35 36 39 42 42 44 47 50 52 51 48 50 55 52 49 47 47 48 47 44 43 44 42 39 34 28 26 24 23 21 18 17 16 15 14 14 15 15

GFSSGP_prec_cthk_015.txt.gz
RH
34 36 34 25 25 21 25 29 40 39 37 35 37 35 32 36 36 43 42 39 36 39 38 32 34 35 34 37 35 29 24 20 18 14 16 14 18 22 20 17 19 20 21 18 20 22 22 22 21
36 37 38 32 20 29 23 31 33 38 33 34 36 36 34 38 36 41 43 40 38 40 40 38 36 36 43 41 36 28 22 19 18 13 16 19 23 24 22 19 20 20 19 18 17 17 20 21 22
39 38 38 39 26 25 35 35 37 30 33 39 39 38 35 39 38 42 42 39 42 43 42 39 37 38 39 43 36 24 21 18 17 14 17 25 28 28 25 22 20 19 19 18 17 15 16 18 18
42 40 39 38 37 26 29 36 27 26 30 38 39 39 39 39 40 41 46 46 48 46 42 35 39 38 42 42 37 31 21 18 15 13 19 28 29 30 29 23 20 19 19 17 17 16 15 15 14
46 42 40 39 42 30 19 23 25 28 32 34 38 41 40 40 40 44 46 50 50 47 43 38 40 40 40 46 38 34 30 21 15 11 19 27 29 31 30 24 22 21 19 17 17 19 18 18 17
48 45 42 40 40 45 27 23 25 29 32 33 37 38 43 43 42 42 49 51 49 47 44 43 42 41 42 40 40 38 33 30 25 19 18 20 26 26 28 28 25 19 19 18 18 18 19 20 20
50 50 46 41 38 45 43 20 26 29 32 36 33 39 44 41 39 41 48 50 48 46 45 47 43 41 41 42 44 43 38 35 34 29 25 24 24 24 28 24 19 17 17 16 15 15 17 20 21
55 53 49 42 42 40 48 29 20 30 28 31 34 39 49 39 36 36 41 48 46 44 46 47 47 44 44 43 41 43 45 42 38 36 34 29 28 26 25 26 23 19 17 18 19 20 20 22 23
56 55 47 43 41 39 43 43 27 27 30 28 34 38 38 37 40 45 43 47 45 45 47 48 48 44 44 46 45 44 42 45 40 36 35 32 31 36 34 32 26 25 26 26 27 27 28 28 28
59 54 47 42 45 45 43 42 40 26 30 32 32 35 40 39 45 51 50 50 47 47 48 48 49 44 45 43 44 45 47 47 45 44 42 39 37 37 35 30 28 29 29 30 31 31 32 32 33
61 53 49 46 49 47 40 39 43 35 25 31 35 36 38 38 50 53 51 50 51 50 50 50 49 46 45 43 43 46 47 45 39 37 36 35 34 33 32 32 30 29 30 30 33 34 33 34 35
62 57 52 51 52 48 43 38 40 42 28 32 36 38 40 47 52 54 49 47 51 51 50 50 49 48 46 44 42 46 47 43 38 35 34 34 33 32 32 33 33 34 35 35 37 38 38 38 37
69 57 57 54 53 48 45 38 36 41 36 29 33 36 43 49 51 50 47 45 46 51 51 50 48 48 48 46 43 44 48 43 37 36 36 35 36 36 36 35 36 36 36 36 37 37 38 40 42
69 63 61 58 55 49 47 40 38 37 48 29 31 35 35 41 42 45 44 44 46 50 50 48 47 47 46 46 44 47 48 43 38 39 39 38 38 39 39 40 40 41 42 44 46 46 48 50 50
72 68 65 60 58 51 51 43 36 37 50 40 24 27 29 31 36 39 40 41 43 45 44 42 43 43 44 45 45 48 49 42 41 41 40 41 43 44 46 46 47 47 47 49 51 53 52 50 48
69 77 73 63 58 52 52 41 36 39 43 40 28 23 26 29 31 36 35 37 40 40 39 34 36 36 40 43 44 47 48 46 45 41 41 44 45 46 46 47 49 50 51 51 48 42 38 37 36
78 70 66 71 60 53 53 41 38 39 37 39 35 26 26 27 27 32 32 34 36 35 34 32 34 37 37 39 40 44 47 49 46 44 45 47 46 45 48 49 49 48 44 39 36 36 36 36 33
70 70 65 66 60 56 53 44 41 41 37 38 36 33 26 27 29 31 32 34 35 35 34 32 35 37 39 40 38 45 50 47 43 44 46 45 44 44 44 41 38 36 35 35 35 36 34 31 30
69 72 67 60 59 58 53 46 42 36 39 41 38 33 26 28 30 32 32 34 33 33 33 32 32 34 36 34 39 45 44 41 42 43 43 41 38 35 34 34 35 37 37 37 33 29 27 24 26
77 79 64 64 63 58 51 46 41 39 39 41 38 34 26 29 31 33 35 35 33 32 32 32 33 34 32 35 39 41 40 40 38 35 32 31 32 35 37 40 40 38 33 28 25 23 21 22 20
86 73 62 67 68 56 53 50 42 40 40 37 37 35 28 30 32 31 32 33 34 33 30 29 28 27 35 44 40 38 36 36 34 31 32 35 39 42 42 38 33 28 25 23 20 18 18 19 18
92 70 67 72 72 66 60 48 42 40 35 35 36 34 30 30 32 33 32 33 33 30 28 26 26 29 35 37 38 38 35 33 32 34 36 40 42 40 36 31 28 27 23 20 19 17 17 18 20
91 75 70 77 72 74 66 59 43 43 34 35 36 37 31 29 31 35 34 35 33 30 27 30 31 34 36 37 34 34 33 34 35 38 43 42 39 34 31 29 26 23 21 20 18 18 18 18 20
89 76 79 79 74 69 55 55 42 42 36 35 37 38 34 32 33 36 35 36 34 32 32 34 36 37 37 36 35 35 35 38 41 43 41 36 30 27 26 25 23 20 19 19 19 19 18 18 21
97 87 94 90 87 59 54 53 48 41 35 32 34 35 35 33 35 36 35 35 37 35 35 37 38 39 38 38 37 37 40 43 44 40 35 31 29 29 29 26 23 21 21 21 20 20 19 20 20
95 85 72 68 64 54 52 50 43 40 38 37 36 37 36 32 34 34 35 36 38 38 38 39 40 40 41 40 38 41 46 47 42 38 36 33 33 32 30 28 24 23 22 22 21 20 20 18 17
94 84 70 63 54 56 51 46 40 35 37 36 36 38 37 35 36 37 37 37 39 40 40 41 42 42 42 40 44 48 46 43 42 40 38 36 35 33 31 27 25 23 23 22 20 18 18 18 17
88 78 75 61 61 58 51 48 48 39 34 35 36 40 40 37 38 39 39 38 39 42 43 44 45 43 42 46 50 45 44 43 43 42 39 37 36 33 29 26 25 24 23 20 19 20 19 17 16
95 88 71 60 56 58 54 49 44 38 36 36 34 37 40 37 40 43 43 42 44 46 46 47 46 44 50 52 46 45 45 45 45 44 40 38 32 28 28 27 26 23 20 21 22 21 19 17 16
83 87 70 64 61 53 50 50 44 41 37 35 36 39 41 40 42 44 46 46 47 49 49 45 47 54 53 48 46 45 47 48 46 42 40 36 30 29 28 26 24 22 23 24 23 20 18 17 16

GFSSGP_prec_cthk_018.txt.gz
RH
34 32 36 35 28 22 27 23 33 43 47 46 38 37 35 35 37 44 44 43 39 36 33 32 34 34 38 39 38 36 30 25 20 15 16 13 15 21 20 15 16 17 17 17 19 22 22 23 22
37 35 35 39 29 31 28 23 39 37 38 33 38 40 39 39 35 40 44 40 39 38 37 35 38 36 38 43 40 34 26 22 20 16 18 17 15 18 21 18 17 16 16 16 16 17 18 21 20
40 39 38 40 40 26 31 37 39 33 33 32 37 37 39 40 36 40 40 39 41 41 42 42 38 37 40 42 38 31 26 21 19 16 19 25 22 25 21 20 18 16 18 17 16 16 15 16 16
43 41 40 38 40 38 26 36 34 33 31 32 36 42 43 44 41 42 40 41 44 43 44 41 37 41 41 37 36 34 31 23 20 14 19 25 28 28 29 26 22 21 19 16 14 14 14 14 14
47 46 45 43 40 41 30 25 29 27 28 29 36 44 42 43 42 41 42 44 44 48 46 40 37 42 42 41 40 38 34 29 26 20 21 21 27 28 28 25 23 22 19 16 13 12 12 13 13
52 49 49 46 39 42 41 34 22 23 26 31 35 39 45 43 43 43 42 43 46 47 46 40 39 43 42 41 39 39 38 36 32 29 31 29 25 26 27 27 24 16 13 12 12 12 13 13 16
54 53 51 46 42 44 51 39 26 24 29 31 32 38 49 44 41 45 43 42 45 49 46 42 42 44 42 38 38 38 39 39 38 34 33 33 34 31 29 27 22 17 15 13 14 15 16 17 18
53 58 53 49 48 44 43 38 38 22 26 31 31 36 48 42 42 42 43 43 43 50 45 45 45 46 43 39 37 37 38 39 39 37 35 33 33 34 33 32 29 25 24 24 24 24 24 23 24
56 56 55 50 48 44 41 41 41 34 24 28 31 32 38 38 38 41 41 41 42 48 46 46 48 50 49 45 43 41 40 39 39 38 36 35 31 35 37 35 32 30 29 29 29 29 29 30 31
55 54 46 46 47 46 46 45 37 40 32 26 31 33 39 37 37 38 41 48 50 48 47 48 49 50 50 48 44 40 38 41 41 39 35 33 32 33 34 32 28 28 28 28 29 30 30 31 31
55 51 46 45 47 49 50 46 39 38 41 26 32 37 38 38 35 38 44 51 51 52 51 50 51 50 50 49 46 44 41 41 42 39 39 34 34 32 33 32 31 30 30 31 31 32 33 34 34
58 52 50 46 52 56 52 45 41 37 36 36 30 36 35 35 35 38 45 51 53 53 52 51 51 51 50 51 48 49 48 44 46 43 38 36 35 34 34 35 35 35 33 34 34 36 37 39 40
59 59 55 51 50 53 54 47 42 38 33 41 31 28 32 35 36 38 48 52 53 51 51 50 52 51 50 51 51 51 52 49 49 47 42 39 37 36 37 37 38 40 41 43 44 46 47 47 47
59 62 58 58 54 53 54 49 44 38 36 34 43 29 32 35 36 40 50 50 52 50 50 51 53 51 49 50 50 54 53 52 52 47 46 43 40 39 41 44 47 48 48 48 47 48 47 47 45
57 67 62 55 58 56 59 49 44 38 39 33 43 38 24 27 31 41 43 46 46 47 46 46 50 49 47 48 50 52 53 52 50 47 49 45 43 43 44 48 49 47 49 48 48 46 40 36 35
65 64 68 47 56 54 60 54 43 42 44 36 38 39 30 25 28 33 34 39 40 39 40 42 43 42 41 45 48 53 52 49 48 49 50 48 43 44 46 45 46 47 47 44 40 36 34 34 34
67 62 52 52 55 56 55 53 43 42 42 39 35 39 34 29 26 27 28 34 35 36 37 39 37 33 37 44 48 49 51 48 43 49 50 45 46 47 46 43 39 36 33 32 33 34 35 34 31
59 66 56 55 50 58 56 54 47 45 40 36 33 35 36 33 28 27 27 30 34 34 36 37 36 37 38 41 45 45 46 42 45 51 48 45 44 43 37 32 30 32 35 37 37 35 31 26 23
48 60 67 52 52 61 56 52 50 49 43 39 38 36 36 36 31 28 28 28 33 36 37 37 36 36 36 38 38 40 40 42 48 47 43 41 37 31 28 31 34 37 38 35 30 26 22 20 17
55 67 68 64 60 59 58 53 54 48 41 37 36 37 38 37 33 30 31 31 35 38 39 38 38 37 38 37 37 39 41 44 44 40 37 34 31 32 34 35 37 37 34 29 25 22 19 17 16
53 67 72 82 69 63 66 56 53 45 39 37 36 37 40 37 36 29 31 33 36 37 38 38 37 36 37 35 33 32 41 40 37 35 35 34 34 35 35 37 37 32 26 22 20 18 17 16 16
63 50 63 86 93 82 67 63 49 43 41 39 37 37 38 38 35 30 33 32 33 33 33 34 34 34 31 29 31 34 35 36 36 36 36 36 37 37 36 33 27 23 22 20 18 17 18 18 18
62 62 76 81 88 86 70 68 48 47 42 39 37 36 36 38 38 32 32 33 32 33 34 34 34 31 32 35 37 35 35 36 37 38 38 38 37 35 29 26 24 24 23 20 19 20 19 19 19
64 80 95 96 90 91 75 68 51 47 38 40 37 35 37 39 41 33 31 34 34 36 36 35 35 34 35 36 36 37 37 38 39 40 41 39 36 31 28 28 28 26 23 21 21 21 21 21 20
80 88 98 98 98 84 57 63 52 44 41 39 35 35 38 41 42 36 32 34 36 37 36 36 38 37 37 37 38 39 40 40 42 42 42 39 36 33 32 31 28 25 23 23 23 23 22 19 18
79 98 98 96 90 71 56 65 52 48 41 38 38 36 38 40 39 36 33 35 36 36 37 39 39 38 39 39 40 42 40 43 41 43 39 39 38 36 33 29 25 24 24 24 24 21 19 20 21
87 97 91 82 54 57 56 52 46 45 43 41 37 38 38 38 38 37 35 34 35 37 39 40 40 40 41 42 44 41 44 43 44 41 41 41 40 37 32 26 25 26 26 24 22 21 22 22 21
98 88 97 82 68 70 62 55 48 44 40 36 39 39 40 39 39 39 39 40 39 40 41 41 42 43 44 44 43 44 48 46 42 42 43 43 41 35 28 26 27 26 25 23 22 23 22 22 21
97 97 93 77 65 69 68 61 45 41 37 35 36 38 41 42 41 40 43 43 41 43 44 45 47 46 46 43 46 52 48 46 43 45 46 45 39 32 27 27 27 26 24 24 25 24 23 23 22
88 91 81 69 68 66 61 55 45 43 39 39 38 40 41 42 41 41 44 45 45 46 48 49 48 46 44 46 55 53 50 46 48 50 47 43 38 31 28 28 27 26 26 27 26 25 24 23 20

GFSSGP_prec_cthk_021.txt.gz
RH
35 34 32 33 30 27 26 23 35 42 47 42 40 39 40 36 36 43 42 41 40 37 33 32 35 35 36 41 40 35 26 24 19 15 16 14 18 21 18 15 15 15 13 13 14 19 21 22 22
38 36 35 34 36 30 28 27 34 34 37 39 44 39 39 41 40 40 44 40 39 38 35 34 39 39 38 39 37 32 26 21 19 16 19 18 15 17 18 18 15 14 15 15 14 15 18 18 19
41 39 38 39 41 33 32 28 30 34 34 35 39 38 42 43 41 41 41 40 39 39 38 37 40 40 39 38 36 34 30 28 20 15 19 20 18 23 20 19 19 16 16 14 13 14 13 13 15
44 42 41 40 38 35 35 30 31 34 36 33 33 37 43 44 41 40 39 40 40 39 39 39 42 42 41 42 38 35 34 31 28 24 20 19 25 26 26 18 19 18 16 13 12 12 13 13 12
45 46 46 44 40 39 37 33 31 30 34 34 34 41 43 46 42 41 40 41 42 41 42 41 43 39 43 42 39 38 36 34 32 30 32 31 25 26 27 22 19 18 12 12 11 12 12 12 13
46 45 51 48 42 39 41 39 33 28 32 29 32 41 46 47 46 45 43 41 41 42 43 43 45 41 43 44 40 37 36 35 35 34 36 34 35 34 38 34 27 16 13 12 13 13 14 14 15
46 49 50 48 44 43 44 41 40 36 23 30 30 36 45 46 43 43 45 43 42 43 45 47 45 42 44 43 40 36 36 36 36 35 37 36 36 37 37 35 31 25 24 23 23 23 23 22 21
47 51 47 46 48 45 45 44 41 38 31 28 30 35 41 42 43 45 45 46 43 41 44 49 44 43 44 44 42 38 35 34 36 36 34 31 30 31 31 31 31 31 31 30 30 30 30 30 31
51 55 48 43 45 43 48 47 43 36 35 27 30 33 37 37 40 41 42 44 43 40 40 50 47 47 46 48 47 43 39 35 33 34 34 29 28 31 32 31 31 30 29 30 31 32 33 33 33
54 54 45 40 41 45 46 49 44 39 37 37 28 34 39 38 38 36 39 39 40 40 42 48 49 49 48 50 49 46 42 40 37 38 36 34 32 31 32 32 31 30 29 29 30 31 32 33 34
48 51 46 40 42 43 49 52 49 42 38 39 32 36 41 37 37 35 35 37 40 46 50 50 48 49 50 50 51 48 46 44 41 40 38 36 36 34 32 32 32 32 32 32 32 32 34 35 36
53 48 51 45 44 43 46 52 48 44 39 36 39 34 37 35 35 35 36 35 36 49 53 55 51 49 50 49 49 49 49 47 47 45 42 40 41 38 35 33 33 35 35 38 41 42 43 44 45
51 51 53 44 43 43 46 49 49 45 41 40 33 40 32 33 34 34 34 34 36 46 51 54 51 51 51 50 50 52 52 52 52 50 47 44 43 41 38 36 37 40 42 42 45 44 43 42 40
52 52 51 51 47 46 49 47 46 45 43 41 36 32 38 31 29 32 33 34 37 45 53 53 50 49 50 52 53 55 55 55 53 51 47 47 44 45 43 42 43 44 46 46 45 45 44 40 36
50 53 49 46 50 52 55 49 44 42 45 42 37 33 33 40 26 27 30 34 40 48 53 53 49 47 49 53 55 55 55 54 53 52 49 49 46 48 48 46 47 47 47 46 44 39 33 31 32
56 54 54 50 52 51 63 54 47 41 48 42 40 37 35 36 36 25 26 31 42 46 49 49 46 44 47 51 51 52 54 52 51 52 52 48 47 50 49 47 49 47 43 36 31 31 32 34 33
66 63 63 54 52 59 61 54 47 46 51 47 42 39 35 31 38 29 25 27 34 38 41 40 39 42 47 48 47 49 51 50 50 51 46 47 53 52 49 49 44 34 29 30 32 33 33 30 26
57 62 58 57 45 59 62 56 46 45 48 46 42 39 37 32 36 37 28 26 28 31 35 35 36 38 42 43 46 47 46 47 49 48 49 54 52 48 42 35 32 32 32 33 34 34 30 25 21
52 57 61 53 57 58 51 51 44 45 51 48 44 39 38 33 32 39 32 28 28 29 32 37 37 38 40 42 43 45 45 48 49 54 52 49 42 36 35 35 35 34 34 32 31 26 21 19 18
58 58 52 50 56 68 57 54 41 45 47 48 45 41 43 36 35 39 36 31 30 32 34 35 39 41 42 42 43 45 46 46 42 46 46 38 36 36 37 36 35 33 30 27 23 20 19 18 17
63 61 50 49 50 61 74 62 47 45 47 49 46 43 44 36 37 40 38 34 33 35 37 40 42 43 42 41 43 41 37 36 36 36 35 37 38 37 36 34 32 28 25 23 22 20 19 18 18
69 52 52 47 62 65 70 74 50 45 42 46 46 41 42 38 38 42 38 35 33 38 41 43 45 44 41 40 37 33 33 35 35 35 38 40 39 38 37 34 29 26 26 24 22 20 20 19 20
59 60 58 56 60 75 80 92 60 44 42 44 43 41 40 37 37 41 39 33 32 36 39 41 40 38 37 35 35 34 35 36 37 40 42 41 41 41 37 33 30 28 24 23 22 22 22 21 21
58 68 63 66 65 84 70 97 70 46 38 37 41 43 42 39 38 39 41 38 31 33 35 37 37 36 37 39 40 38 38 39 41 42 42 42 39 37 37 35 31 25 23 23 23 23 23 22 21
77 75 80 80 79 64 64 91 76 47 39 37 41 41 41 39 38 40 43 40 33 32 35 37 38 38 40 41 41 40 41 42 43 43 42 40 39 39 39 34 28 25 23 23 24 23 23 22 21
76 72 76 81 62 50 60 95 73 53 43 41 43 42 42 40 39 43 43 40 36 33 34 37 37 40 41 42 42 42 44 45 44 45 42 42 42 42 39 35 28 25 24 23 23 23 23 22 22
86 93 53 81 64 78 89 70 55 51 45 46 43 43 41 39 40 42 42 38 35 34 34 36 38 40 41 42 45 46 47 45 47 46 47 44 44 43 41 34 28 25 23 23 24 24 24 24 24
84 69 85 95 97 94 84 61 51 44 47 46 43 42 41 41 39 40 40 38 38 36 37 38 40 42 42 46 49 49 46 46 52 53 49 46 45 46 41 32 26 24 24 25 25 26 25 25 24
93 91 81 90 90 89 82 61 47 47 45 44 43 43 42 41 40 40 41 41 42 42 41 42 43 45 48 51 51 47 46 53 60 55 49 47 49 44 36 29 26 25 27 27 27 26 25 23 19
78 86 87 87 95 81 63 54 48 51 44 39 39 40 41 42 42 43 43 44 45 43 44 45 46 49 51 53 48 49 52 60 63 55 51 52 46 40 33 28 26 28 29 28 27 24 21 17 16

GFSSGP_prec_cthk_024.txt.gz
RH
35 32 32 31 34 29 26 25 30 40 41 40 44 43 43 44 41 44 42 43 41 39 35 35 38 38 37 39 35 31 27 22 18 15 13 15 17 18 20 16 14 14 13 12 13 19 21 20 19
37 34 34 33 35 33 26 25 32 34 37 40 44 44 41 45 42 38 38 39 40 36 35 36 40 40 40 40 36 34 32 26 22 17 17 16 19 18 17 15 13 14 14 14 14 16 19 20 19
39 37 37 38 39 39 29 28 31 34 35 39 41 44 45 41 40 40 38 36 38 37 37 38 42 42 42 41 38 35 32 30 30 27 23 20 16 18 19 17 17 16 15 13 12 13 14 15 15
37 37 39 40 38 36 32 32 30 32 33 36 37 38 46 43 40 40 38 38 40 38 37 39 42 43 46 42 39 36 33 32 32 30 34 33 27 28 24 19 17 19 15 13 13 13 13 14 15
38 38 41 43 40 35 34 36 32 31 32 37 39 38 43 46 41 38 37 40 41 40 40 40 44 45 48 43 42 38 35 32 32 33 36 36 37 41 37 27 21 17 11 11 12 13 14 14 15
41 39 44 41 40 36 39 38 34 32 33 34 37 38 40 44 44 42 43 43 43 41 41 43 44 47 49 43 42 42 35 33 33 33 37 38 37 39 44 41 33 25 20 19 19 19 19 19 19
42 43 43 39 38 42 41 41 37 35 37 35 34 36 37 43 43 44 46 45 45 44 43 41 42 44 48 43 42 43 38 33 33 33 34 34 34 35 37 37 34 31 30 30 29 29 28 28 28
44 46 44 40 38 41 44 43 39 37 38 37 30 35 35 39 44 46 46 45 46 45 45 41 42 45 46 42 41 43 40 35 31 31 32 29 29 31 30 30 30 31 31 31 32 33 34 35 36
48 53 48 41 37 34 43 46 45 41 39 39 32 31 33 35 40 44 45 46 46 47 45 41 41 49 46 43 45 48 45 40 34 30 32 29 28 30 31 30 30 29 29 29 30 31 32 33 33
52 53 46 36 34 32 43 50 50 45 41 38 38 33 35 36 37 37 37 40 41 42 43 40 42 51 49 48 48 49 47 43 41 39 36 35 33 34 33 33 32 32 31 30 31 31 31 32 34
49 49 44 38 36 35 38 47 51 48 44 40 39 39 36 36 37 36 37 36 36 38 41 44 48 52 50 48 49 49 49 48 45 44 41 38 37 38 37 35 34 33 33 34 36 38 41 42 42
45 42 48 42 41 40 40 44 49 47 44 45 40 41 43 36 36 35 35 35 36 39 42 47 53 55 53 50 50 50 50 51 49 47 47 44 40 40 40 41 40 37 39 41 43 43 42 44 44
48 43 42 43 43 45 44 44 47 44 46 48 45 41 42 41 38 36 34 32 31 34 39 47 56 56 55 52 52 52 52 50 53 53 50 46 43 43 42 44 45 45 45 44 43 45 46 46 41
48 49 47 45 45 46 47 43 49 43 44 47 48 43 40 37 36 37 36 32 31 32 33 43 56 57 55 52 53 55 54 54 54 54 48 48 48 47 47 47 49 48 48 47 47 46 42 36 33
51 51 50 47 46 49 51 45 43 44 45 44 47 45 40 36 32 36 34 27 29 32 34 39 56 60 56 53 55 58 58 57 56 52 51 50 50 49 44 47 51 48 49 48 46 40 34 30 31
58 55 55 46 47 48 55 44 42 43 43 42 46 46 40 38 35 33 39 32 25 28 33 41 55 58 56 54 55 59 57 56 54 52 49 50 50 48 51 55 53 50 46 39 33 31 32 31 30
66 66 57 52 44 50 50 40 43 46 45 43 43 47 43 41 37 32 35 37 27 28 32 42 51 55 54 52 54 59 56 56 53 51 48 49 51 53 57 55 49 39 35 34 33 32 30 28 25
61 61 57 57 51 54 50 47 48 46 43 44 43 45 46 42 38 35 33 39 30 26 28 39 47 50 50 49 53 56 53 54 54 53 52 51 57 57 52 40 37 37 36 34 33 29 24 19 18
58 59 60 58 56 60 57 50 48 46 44 43 44 42 45 43 39 37 34 37 36 27 26 29 34 38 41 46 51 53 51 52 52 54 55 49 50 44 39 38 38 37 33 30 27 21 19 18 18
63 63 59 54 51 58 59 56 52 43 42 42 45 45 47 45 42 39 34 35 38 31 26 26 29 33 40 46 49 51 51 53 55 53 47 40 38 37 38 39 37 35 33 28 22 20 19 19 20
65 65 62 61 52 46 52 47 48 39 40 39 40 42 48 46 42 40 37 37 40 34 32 30 34 38 42 47 51 53 53 53 48 42 37 36 37 39 40 40 40 37 30 24 20 21 21 21 21
71 60 64 64 64 64 61 58 42 42 41 39 36 41 45 45 43 41 39 39 42 39 35 35 38 43 48 50 50 49 47 44 39 35 37 38 41 43 43 43 39 32 25 22 22 23 23 22 21
75 72 70 69 70 69 52 66 42 40 42 37 32 38 44 44 43 42 40 43 46 40 38 39 40 43 45 45 44 42 41 39 39 40 40 42 44 43 42 39 34 29 26 25 25 24 22 21 21
82 84 81 79 81 81 46 60 41 38 36 35 34 35 44 47 44 42 43 45 49 43 42 40 42 43 43 40 38 38 40 41 43 43 43 45 44 43 40 37 34 33 29 26 24 23 22 22 22
85 90 93 96 92 66 45 56 36 35 32 43 36 37 40 46 42 42 44 45 49 48 45 42 39 41 38 37 38 41 42 44 46 45 46 46 45 43 40 39 39 35 29 25 23 23 23 22 22
87 86 92 88 86 56 56 62 38 28 41 48 40 40 46 48 45 45 45 47 49 49 45 40 35 37 39 39 41 43 45 46 46 47 47 49 48 46 44 42 39 33 27 26 25 24 22 24 25
83 93 56 75 67 82 63 48 31 23 45 49 43 44 43 46 45 47 47 49 50 49 43 39 36 39 41 41 42 44 46 48 49 50 49 52 54 51 46 43 37 32 29 26 25 24 25 27 26
79 77 93 92 84 71 59 61 39 26 35 51 48 45 49 49 49 49 50 50 51 46 41 39 39 39 40 42 45 47 50 53 53 50 49 58 61 52 47 42 38 32 28 28 25 27 29 27 25
94 96 86 76 70 80 63 53 27 25 43 52 54 54 53 51 49 49 48 49 47 44 41 40 42 43 45 48 49 53 56 56 52 52 57 65 65 54 47 42 35 31 30 26 28 30 28 25 23
98 93 92 86 67 88 94 61 46 43 48 54 60 58 55 52 49 47 46 45 44 43 43 46 46 46 49 51 53 56 58 54 58 62 64 68 62 51 43 38 34 31 28 30 31 29 25 22 18

GFSSGP_prec_cthk_027.txt.gz
RH
35 32 30 30 32 32 26 24 26 32 37 38 43 42 45 44 43 48 44 44 41 40 37 41 40 40 38 36 34 32 31 27 20 17 17 20 20 19 18 16 13 13 13 14 14 21 21 21 22
35 35 33 32 35 34 29 25 28 35 39 41 42 44 47 50 48 45 43 40 40 37 35 35 41 42 40 38 37 36 33 31 27 25 24 21 21 18 18 14 13 15 15 14 14 17 20 20 19
33 35 35 37 39 37 31 26 28 33 36 40 42 43 45 48 47 47 46 40 35 34 34 36 41 43 42 41 39 39 36 32 32 31 34 31 25 20 19 18 18 19 16 13 13 14 15 15 15
34 34 34 38 38 35 31 28 30 33 32 36 41 43 43 45 48 45 43 40 37 35 35 36 40 42 44 44 42 41 36 33 32 32 37 36 35 41 30 23 19 19 12 12 12 13 14 14 15
35 35 38 36 36 35 33 33 32 32 31 31 36 41 42 42 44 44 40 37 38 38 36 37 41 43 47 46 44 42 38 33 32 32 37 39 44 46 43 38 31 25 16 13 13 13 15 15 16
38 37 42 37 30 34 36 36 36 32 32 33 33 36 42 42 42 43 42 40 41 40 37 38 41 43 48 48 47 43 41 35 30 31 36 36 38 42 46 41 37 33 29 28 27 26 26 26 25
39 40 40 36 32 33 34 39 39 37 35 37 37 37 39 41 43 44 42 44 45 45 42 40 40 41 45 48 48 44 44 39 33 30 33 34 36 36 39 37 35 32 32 33 33 33 34 35 36
40 44 42 37 33 31 34 39 42 39 36 38 39 39 37 39 41 44 45 46 47 45 46 46 43 41 44 47 49 45 46 43 37 32 29 32 33 33 32 30 27 29 29 30 30 31 32 33 34
43 49 45 38 36 29 34 38 43 44 42 39 39 39 36 34 37 42 44 46 47 47 48 49 47 43 42 52 51 49 49 47 41 36 34 30 29 32 33 33 32 31 32 32 32 33 33 34 35
46 48 40 36 36 33 34 40 45 46 46 44 43 42 38 35 34 35 38 41 44 47 47 47 46 42 44 52 53 52 51 50 48 42 41 38 35 35 36 37 36 36 36 34 34 36 38 40 41
44 45 41 41 40 38 37 38 42 44 45 46 46 45 41 40 37 33 35 37 38 39 44 47 45 47 51 54 56 54 53 52 51 49 47 44 41 38 37 37 38 38 40 40 40 41 43 43 42
45 42 45 44 45 44 41 39 41 43 42 47 50 50 46 44 41 37 33 35 37 36 40 43 47 51 57 57 61 56 55 55 53 53 53 50 46 43 42 41 41 42 44 46 45 43 45 46 46
49 44 44 42 45 47 46 43 42 42 44 45 49 50 48 46 44 42 40 33 32 34 38 41 46 49 58 62 63 60 57 58 57 57 57 54 52 49 46 45 45 45 46 50 49 48 48 45 41
47 45 44 44 42 44 46 42 44 37 41 42 43 48 50 48 44 42 41 41 35 29 31 35 42 48 56 63 63 62 59 61 61 57 57 55 54 52 48 48 46 45 48 50 49 48 43 40 39
52 51 46 46 44 45 44 39 37 36 39 41 40 43 48 48 45 41 39 36 40 31 31 35 36 42 52 62 65 64 62 62 60 55 58 54 54 52 50 49 46 49 52 50 45 41 39 35 33
61 58 56 42 44 46 47 37 35 35 34 36 38 39 42 48 44 39 36 34 36 39 27 29 33 41 51 62 66 66 60 62 62 60 58 55 54 53 50 50 50 54 50 42 37 35 35 34 31
65 65 60 54 47 49 51 39 38 35 39 35 34 36 39 44 46 40 37 35 33 39 37 28 31 41 50 61 66 65 60 62 63 62 59 57 56 54 52 53 52 43 37 37 37 36 32 27 22
65 73 64 61 55 55 52 47 46 42 45 43 38 36 36 38 42 43 39 36 34 36 39 30 31 40 51 61 64 64 61 65 65 61 58 58 56 55 49 46 40 39 38 36 34 30 26 21 19
70 71 69 65 60 58 54 50 46 43 41 38 37 39 38 38 40 44 41 38 36 36 40 34 32 38 47 56 60 58 59 65 63 61 60 59 56 48 35 37 39 37 37 37 33 27 21 19 18
67 70 67 65 59 57 52 46 42 41 38 37 35 34 34 37 37 44 43 39 38 36 41 37 32 35 40 46 51 55 58 58 59 60 59 58 47 34 35 37 38 41 40 35 27 21 19 19 19
69 68 64 63 57 52 53 38 30 28 32 32 31 31 31 33 37 42 43 41 39 37 40 39 35 31 32 40 48 54 55 58 58 56 59 48 36 36 40 41 44 43 36 29 23 20 19 21 24
76 70 70 70 75 69 56 54 34 31 27 26 28 28 30 33 34 38 42 41 41 42 43 40 37 35 36 41 46 49 52 57 57 56 48 39 40 42 44 46 43 38 33 28 23 21 23 25 23
80 79 82 83 79 74 58 72 43 33 27 27 32 31 26 27 33 37 43 44 44 45 46 45 41 40 42 46 50 52 54 56 54 46 40 42 45 46 47 45 41 37 34 29 25 25 26 24 22
86 89 91 91 91 85 64 66 39 31 26 26 28 28 29 28 30 37 44 46 46 46 50 50 47 47 48 49 50 49 48 46 43 41 43 46 47 49 48 46 45 39 34 30 29 27 25 24 25
91 97 97 98 97 79 63 67 40 29 29 28 27 31 32 31 32 36 44 48 48 48 54 55 52 48 47 46 45 45 43 42 42 44 47 48 49 50 50 51 47 40 36 33 30 27 27 28 27
92 93 96 93 89 82 64 63 37 29 24 20 19 30 35 33 33 37 45 50 50 50 56 59 57 50 46 43 41 42 42 43 47 48 49 51 51 50 52 53 49 42 38 34 31 31 30 28 27
97 97 76 94 84 94 79 52 41 31 31 25 30 37 37 36 36 40 48 51 50 53 58 62 60 55 49 40 41 42 44 47 49 51 52 53 53 52 50 54 53 45 39 35 32 31 29 29 28
95 86 97 98 95 91 56 54 53 38 28 20 18 36 43 42 41 44 51 51 52 56 60 64 63 53 45 43 43 43 47 50 52 55 57 57 54 53 55 57 55 45 36 32 33 32 30 28 30
84 92 90 87 88 85 65 43 26 30 24 21 27 44 41 47 49 50 54 54 55 59 60 63 56 48 46 46 45 47 51 54 57 60 61 57 58 61 61 59 51 37 35 38 34 30 30 31 31
77 74 81 82 78 72 65 48 37 40 35 25 30 45 52 57 56 54 55 56 59 59 61 58 51 47 48 50 50 52 55 58 61 63 62 63 64 67 62 59 45 41 41 33 31 32 33 31 25

GFSSGP_prec_cthk_030.txt.gz
RH
32 32 32 30 31 33 28 23 25 26 28 34 42 48 49 46 45 47 43 45 44 41 38 44 43 40 38 37 35 33 30 28 25 21 20 25 27 20 18 17 13 13 13 14 16 21 21 21 24
31 32 34 33 36 34 33 22 26 29 30 34 39 48 50 51 48 48 46 45 44 43 40 39 43 41 40 38 37 36 34 32 29 25 33 33 25 20 19 14 14 15 14 13 14 19 20 20 19
31 32 32 36 40 38 33 27 26 31 34 36 37 41 46 48 48 50 49 47 44 40 38 36 41 43 42 40 40 39 37 34 31 30 34 34 34 26 21 20 20 19 14 12 12 13 14 15 15
32 33 32 35 35 36 31 29 28 30 32 36 39 41 42 44 50 52 50 48 47 45 39 37 41 43 43 43 43 41 40 36 32 32 37 36 37 41 34 31 24 18 13 12 12 12 12 14 15
34 34 37 36 32 31 34 35 32 31 33 34 37 40 41 41 43 46 46 46 44 43 41 38 42 45 46 45 45 44 41 38 32 31 37 37 43 47 46 39 34 29 25 24 23 21 21 20 19
36 35 42 38 31 30 34 35 36 33 31 32 37 37 39 41 40 41 42 45 45 42 39 40 41 43 44 46 45 46 44 40 34 30 34 37 41 44 44 41 38 34 30 31 31 32 32 32 32
37 40 41 36 32 31 33 34 36 39 36 34 37 39 38 39 42 43 44 45 47 43 43 43 42 43 44 48 47 48 48 43 39 33 32 35 39 42 44 40 34 30 30 31 31 32 32 34 35
39 43 43 37 33 31 30 33 36 37 38 37 37 39 38 37 40 42 43 45 47 46 47 47 46 45 45 45 47 50 50 46 43 38 35 34 36 36 38 38 32 31 31 30 31 32 33 34 34
43 49 44 37 34 29 29 33 35 38 40 40 39 40 39 39 40 40 43 44 43 47 49 48 48 48 46 46 46 52 53 51 47 44 39 36 34 35 34 36 37 37 36 36 36 36 35 36 37
45 50 41 36 33 31 32 34 37 40 41 43 44 42 41 40 41 37 36 40 44 46 48 49 49 50 48 45 47 52 57 52 49 48 46 40 36 38 39 39 38 39 40 40 41 41 42 42 41
44 45 39 37 37 38 36 35 39 40 40 41 46 47 47 47 44 41 34 36 41 45 48 50 50 52 50 49 51 54 59 54 53 52 51 48 45 44 43 40 40 41 42 43 45 46 46 46 44
43 40 38 38 39 41 42 41 39 39 37 41 43 47 48 46 45 41 39 34 38 41 42 43 46 50 52 54 57 59 64 59 56 57 55 54 52 51 47 45 44 45 47 48 47 47 47 48 47
49 44 40 39 38 38 42 43 43 39 38 40 41 44 47 49 47 44 42 40 35 33 38 43 44 47 51 55 62 66 65 65 61 62 60 57 56 56 52 50 49 50 48 50 48 49 48 45 42
50 47 44 42 40 39 40 38 41 33 36 38 40 42 43 49 50 46 43 41 41 37 33 38 41 44 49 54 59 68 68 69 67 65 63 58 59 57 56 54 52 52 51 50 48 49 43 40 38
53 54 50 44 40 41 39 36 35 32 32 35 38 39 41 41 48 46 46 42 39 39 40 33 36 40 45 51 57 66 71 74 71 65 64 60 60 59 56 54 53 52 52 50 48 42 37 35 35
59 59 59 47 43 41 44 37 33 33 33 30 31 35 38 37 38 46 46 44 41 37 38 39 34 36 42 48 55 63 74 75 73 66 67 65 63 59 56 55 54 54 49 42 38 37 37 36 32
56 60 62 59 52 50 52 45 38 37 38 35 34 33 34 35 35 38 44 43 41 37 33 39 41 31 35 44 54 62 71 74 73 69 67 66 62 59 57 56 54 46 36 39 38 37 35 31 26
57 55 54 59 58 56 53 50 42 40 38 37 34 32 33 34 32 37 39 42 42 38 34 34 41 41 32 42 52 63 71 74 74 69 70 66 61 60 58 55 43 34 34 37 39 37 33 26 21
61 67 67 61 60 63 55 47 40 37 37 36 33 32 32 32 32 34 36 38 43 39 37 35 39 41 33 39 50 62 71 73 70 70 68 69 64 63 57 41 34 33 36 40 38 33 26 21 18
62 64 62 61 55 54 53 44 40 37 33 32 32 30 29 32 32 30 34 37 43 42 38 37 41 44 38 39 48 57 67 71 68 68 65 66 65 61 45 38 35 38 42 40 35 30 24 20 20
61 63 63 61 57 54 52 41 34 27 24 23 24 26 27 29 31 33 38 38 41 44 41 38 39 43 42 42 47 54 60 61 64 65 65 64 62 51 40 41 41 44 42 39 34 29 24 22 21
70 66 68 71 75 73 63 56 36 33 29 25 23 23 24 27 28 31 38 39 42 46 44 41 40 41 44 44 44 48 53 57 61 62 61 61 54 42 43 43 46 46 44 39 34 30 25 22 22
77 75 79 82 86 83 72 77 44 34 33 27 24 22 23 24 25 28 33 38 42 45 45 45 45 41 43 44 46 49 53 58 59 61 60 54 46 44 45 47 48 49 47 43 39 31 26 24 25
82 86 88 93 95 87 68 77 42 36 29 25 23 20 20 22 25 27 32 37 41 46 47 48 49 45 44 44 49 52 56 59 59 60 56 47 44 47 49 50 50 49 48 47 40 32 29 29 29
90 97 97 97 96 79 67 73 41 35 32 30 29 24 21 22 26 28 32 34 41 48 49 50 53 49 48 52 55 58 60 61 58 55 48 46 48 51 52 52 51 49 49 48 44 36 33 33 31
84 94 96 95 89 83 72 66 39 33 33 32 28 25 21 27 29 30 29 32 39 49 51 52 57 56 54 58 57 58 56 54 51 46 46 49 52 53 55 55 54 52 51 50 46 38 33 30 32
79 86 77 98 97 97 76 55 41 36 34 34 33 27 26 22 32 35 32 33 40 53 55 54 60 62 61 62 58 53 49 46 44 46 49 52 53 56 58 59 55 56 57 53 44 35 31 37 35
73 80 91 95 97 95 69 58 43 35 34 34 34 29 27 29 36 39 36 40 47 58 60 59 64 65 66 63 57 51 46 44 45 48 51 54 58 62 63 59 59 61 59 50 44 39 39 35 32
85 83 89 94 96 93 75 49 33 31 36 42 39 34 31 26 35 42 44 45 51 64 63 62 67 68 70 64 54 50 48 48 49 53 57 60 63 65 63 63 63 64 56 48 46 40 36 34 32
88 87 89 86 82 85 83 52 34 36 43 44 45 39 32 37 44 40 47 51 60 65 65 66 69 71 71 62 54 51 49 52 55 58 62 63 66 67 66 67 68 62 56 51 42 37 34 32 33

GFSSGP_prec_cthk_033.txt.gz
RH
29 30 30 29 30 30 29 22 25 26 26 28 33 41 46 47 48 47 43 43 41 40 40 43 42 40 40 37 35 33 29 28 25 23 19 25 28 22 19 16 12 12 13 15 19 24 23 24 24
29 29 30 30 34 33 30 25 24 28 28 30 34 42 48 51 49 48 46 44 44 44 42 42 44 40 38 38 37 36 34 31 28 27 32 36 29 20 17 14 15 15 14 13 14 18 20 20 21
28 29 30 32 34 34 32 28 25 29 29 32 37 43 46 49 52 49 48 47 46 46 44 44 44 40 39 38 38 38 37 33 30 29 37 37 33 28 22 20 19 16 14 13 13 15 16 16 15
29 31 31 32 29 31 32 29 30 28 30 33 38 42 45 47 51 51 49 47 50 50 48 49 49 44 42 40 40 41 39 35 32 31 36 37 37 35 31 31 27 20 17 16 15 14 14 14 14
31 32 34 33 28 28 30 32 32 31 31 32 36 41 45 47 48 50 48 49 49 48 47 47 49 47 44 43 42 42 41 38 34 32 35 36 40 44 44 38 35 31 28 27 28 28 28 28 28
33 32 37 33 29 28 29 31 32 33 32 33 34 39 40 45 47 48 45 46 48 47 45 44 45 47 46 44 43 43 42 42 38 34 35 37 45 44 42 40 37 34 33 33 34 34 34 35 35
33 35 37 33 30 28 27 30 30 32 34 34 34 38 41 42 46 46 43 42 45 47 47 45 44 47 46 47 43 43 45 44 42 37 37 37 41 44 43 41 35 30 29 30 30 31 32 34 35
34 37 40 34 31 29 27 30 31 31 34 35 35 38 39 41 43 44 45 46 48 49 50 48 49 48 46 48 47 45 46 48 46 41 41 38 38 40 46 43 36 33 33 32 36 35 35 35 34
38 45 42 34 33 28 29 30 32 33 34 38 36 38 39 39 42 43 45 47 47 49 52 53 54 49 48 49 49 46 47 49 47 45 42 41 39 39 39 38 36 37 40 39 40 40 39 40 40
45 49 38 34 31 30 30 32 33 35 34 37 37 37 38 40 41 42 42 44 46 46 51 52 55 54 51 50 50 48 49 52 52 48 45 44 41 41 40 39 39 40 41 41 41 42 41 43 43
44 45 39 37 35 36 36 33 34 33 35 33 37 37 39 40 42 41 40 39 43 47 51 52 55 55 54 54 50 52 52 52 56 54 52 48 46 46 46 44 42 42 43 44 44 46 44 45 43
43 39 39 37 37 40 39 37 36 35 29 35 38 39 39 42 43 45 44 43 40 41 47 51 52 54 57 56 53 54 55 57 59 58 57 55 52 52 51 49 48 47 48 48 47 46 43 46 46
46 41 38 37 35 34 33 33 34 33 30 35 39 39 40 40 42 43 45 44 42 37 40 45 49 50 52 54 56 57 59 62 63 66 64 62 59 57 55 54 53 52 50 47 48 48 46 44 43
50 47 43 40 37 36 35 30 33 28 28 29 33 38 38 39 38 41 43 44 42 41 37 37 43 46 48 52 55 56 58 68 68 70 69 65 63 61 57 56 57 55 53 48 49 48 42 40 37
54 53 49 45 42 40 38 37 33 28 31 29 27 30 36 37 38 36 41 47 46 44 42 40 35 38 43 46 52 54 59 62 72 73 72 66 65 63 61 58 57 56 53 52 48 41 36 36 36
53 53 53 45 45 42 41 35 31 29 32 31 30 27 28 31 36 37 37 42 46 46 44 41 42 37 38 41 48 52 58 63 70 75 77 74 69 68 63 60 57 55 53 47 37 34 36 37 37
52 55 55 48 45 47 47 45 37 35 33 31 31 31 30 29 29 34 36 39 43 45 46 44 39 39 38 38 42 49 55 62 68 78 78 75 72 70 66 60 57 55 45 38 35 33 36 37 33
53 58 52 48 45 49 47 44 41 39 36 34 34 33 31 31 30 31 35 37 40 42 45 44 40 36 41 44 41 44 53 59 69 77 79 76 76 74 65 64 57 45 40 38 35 35 35 31 26
54 58 56 52 51 52 46 41 39 36 35 33 31 29 30 29 30 31 33 35 38 39 40 45 43 38 36 42 48 45 46 57 70 76 78 76 82 73 67 64 50 41 40 40 38 37 34 30 26
57 59 52 50 50 50 45 37 35 32 30 29 28 26 25 25 28 29 30 32 34 37 37 43 44 41 40 40 43 42 46 58 72 78 79 78 78 80 67 61 45 43 44 43 41 40 37 32 26
57 59 59 56 51 48 47 35 27 26 26 27 27 26 24 23 24 25 28 31 31 35 36 42 46 44 42 43 45 49 51 62 73 80 78 80 75 70 64 52 46 46 47 46 46 46 42 33 26
61 56 58 62 67 65 58 48 30 29 28 27 28 27 25 23 23 22 24 29 32 32 35 40 46 46 44 46 49 49 51 56 63 69 71 71 67 62 57 48 48 48 49 50 49 48 43 35 29
64 64 68 71 77 75 68 74 35 36 35 33 29 28 26 23 22 21 23 26 31 35 37 42 45 48 45 46 51 54 58 60 67 66 67 69 60 57 52 49 50 51 52 51 50 46 42 38 32
68 73 76 80 85 84 63 77 39 38 34 33 33 31 28 24 22 23 24 28 31 38 41 45 46 49 49 48 50 54 60 60 63 64 64 64 56 54 49 50 51 53 54 53 51 48 46 39 32
66 74 76 80 82 72 60 79 44 37 38 36 34 33 31 27 25 23 28 31 32 37 41 46 48 52 54 52 54 55 62 60 66 66 60 59 58 49 49 52 55 56 57 56 54 52 48 40 34
62 69 71 75 70 63 64 67 40 35 35 34 32 34 33 31 27 28 27 31 34 36 39 47 51 56 58 56 56 59 61 69 68 66 62 55 50 50 53 55 57 59 61 60 56 53 48 40 37
73 77 69 81 72 83 63 48 41 32 35 34 36 36 37 33 28 28 28 34 35 38 40 50 54 57 60 61 59 62 68 71 70 61 54 49 49 52 55 58 61 65 65 60 58 53 46 40 39
74 76 87 91 91 83 67 64 45 36 38 30 35 39 39 37 31 28 32 36 36 40 43 52 58 59 65 69 66 70 72 69 61 55 48 48 51 56 60 64 67 68 65 62 58 51 47 45 39
83 89 95 92 89 86 75 51 42 37 37 38 45 42 39 39 35 30 34 38 35 37 42 53 62 65 69 71 72 73 69 63 57 53 52 53 57 62 66 69 71 69 66 62 57 53 50 42 36
74 83 90 97 87 94 91 56 46 49 49 46 40 42 45 44 38 35 34 39 41 42 49 60 71 74 73 75 74 72 66 59 58 55 55 59 63 66 69 72 72 68 65 63 59 54 44 36 35

GFSSGP_prec_cthk_036.txt.gz
RH
29 29 29 29 31 27 27 21 21 23 23 24 25 31 36 39 44 47 42 43 40 39 45 44 42 39 36 34 32 30 28 27 25 23 22 33 32 31 22 18 12 12 17 19 24 28 31 32 33
28 29 30 29 30 29 26 23 21 25 24 25 26 34 39 43 45 47 46 43 42 44 49 49 46 41 39 36 34 33 32 29 27 26 27 39 34 29 22 16 17 15 14 14 17 21 24 25 25
28 29 31 30 28 26 28 25 24 25 26 27 30 36 42 45 48 48 48 46 45 49 51 50 47 43 41 37 36 35 35 31 29 31 38 38 35 25 21 20 17 14 14 13 14 17 19 19 17
31 30 29 28 24 24 26 26 27 26 28 30 32 37 43 48 50 52 47 48 49 51 54 52 53 48 44 41 38 37 36 33 30 34 36 36 31 30 31 29 24 19 18 16 15 15 15 15 15
29 30 30 27 22 22 24 27 29 29 28 30 32 37 42 49 48 48 52 52 54 54 62 54 53 50 46 41 40 40 38 36 34 33 34 35 36 36 35 36 33 28 27 27 27 27 27 28 29
32 29 29 26 23 24 24 26 27 29 30 30 32 35 39 43 47 50 50 50 53 55 55 57 54 53 46 43 40 39 39 39 38 37 37 36 40 43 42 36 33 32 31 32 32 33 33 33 34
29 29 26 26 23 24 23 26 27 28 29 31 30 35 39 42 47 48 49 49 49 50 50 56 57 54 48 46 43 40 39 40 39 40 43 41 40 42 43 41 36 31 28 28 29 29 30 31 31
32 32 30 28 22 23 24 26 27 28 29 28 31 32 39 41 44 47 50 50 49 48 50 54 55 56 52 51 48 45 43 42 42 41 45 45 41 41 46 44 39 34 32 33 35 35 36 36 37
33 32 32 26 25 25 26 25 27 28 29 31 32 32 34 36 42 45 48 48 50 48 49 53 58 58 58 57 53 52 48 45 46 42 44 45 48 44 46 43 37 36 40 38 38 39 39 40 41
35 36 29 29 29 26 27 27 29 28 28 30 32 32 34 35 39 45 46 47 49 49 50 53 57 60 60 59 57 55 55 52 49 47 45 51 50 49 44 41 39 39 40 40 41 41 43 45 45
41 37 35 36 33 31 32 30 30 28 28 29 32 35 34 35 38 41 44 48 48 49 52 51 55 58 61 60 59 58 56 57 55 51 52 54 49 47 49 47 45 44 43 46 46 46 47 47 45
37 35 37 37 39 36 35 34 32 29 26 32 33 34 34 35 36 38 42 45 45 46 48 49 52 56 58 60 61 60 59 59 57 55 56 58 57 53 54 52 50 50 50 50 49 48 46 45 42
41 35 37 36 35 32 31 30 30 31 31 30 31 34 35 36 37 38 40 44 46 47 47 47 50 49 56 57 60 60 59 60 59 57 61 65 66 62 58 57 56 55 54 52 50 48 47 43 39
43 41 40 37 35 36 34 30 33 27 24 25 26 29 33 36 37 38 38 39 44 49 48 45 45 48 50 51 53 57 59 60 60 64 66 68 70 67 65 63 61 58 57 55 52 50 44 40 34
50 48 43 40 38 36 35 31 28 24 25 24 24 24 27 33 36 37 38 39 41 46 48 45 43 43 45 48 52 53 58 59 60 61 69 72 72 71 66 64 63 61 59 57 53 45 39 35 32
47 46 43 40 40 39 40 30 29 28 28 28 27 28 27 26 31 35 38 37 38 43 46 47 45 43 40 44 49 53 55 56 60 62 61 74 75 75 71 67 65 62 61 56 44 38 36 36 33
49 42 43 43 38 40 41 37 36 35 32 31 29 30 32 29 26 29 34 36 37 38 43 47 48 47 45 44 49 51 52 54 57 60 62 71 78 77 74 72 68 65 60 45 40 38 39 38 29
38 43 41 41 39 38 37 37 34 35 35 34 34 31 30 30 28 27 30 35 36 36 38 42 47 50 48 45 50 49 51 52 52 57 61 69 76 79 76 75 71 65 50 42 40 42 41 35 30
44 45 45 42 42 40 36 34 34 31 31 30 30 30 30 28 28 28 28 30 33 35 35 37 41 49 49 45 48 51 54 53 53 57 62 68 75 78 85 79 75 63 47 43 45 45 42 39 37
48 47 44 41 41 40 36 25 27 25 23 24 25 25 26 26 26 26 27 28 30 31 34 36 37 42 49 49 46 48 50 56 62 59 66 73 79 80 84 83 75 57 46 46 48 47 46 44 42
50 49 45 44 42 41 38 27 23 21 21 22 23 23 24 26 26 25 24 26 29 30 32 34 36 37 43 49 50 47 47 52 58 56 64 74 83 83 86 80 65 52 48 50 50 50 47 45 44
48 45 48 49 51 51 48 40 26 25 24 24 25 27 26 26 28 27 25 25 28 29 29 32 34 35 39 45 47 48 48 53 61 65 64 74 87 86 88 69 62 50 50 51 52 51 49 49 46
52 52 55 56 57 58 53 69 27 29 29 29 28 29 31 30 28 29 25 23 27 28 30 30 32 33 37 43 48 52 55 59 62 70 77 76 79 72 63 61 54 51 51 53 53 52 52 51 47
59 61 61 60 64 66 44 56 26 24 27 29 29 30 33 32 31 27 26 24 24 27 30 33 34 34 38 41 48 54 55 58 66 72 75 77 81 71 61 57 52 52 54 55 54 55 55 53 47
63 68 60 66 68 50 36 43 29 20 24 26 31 32 33 34 33 30 30 26 26 27 28 34 38 37 39 42 49 55 57 64 72 74 73 80 66 67 59 56 52 54 55 57 58 59 58 53 49
56 57 54 57 45 42 53 46 27 28 32 27 26 30 34 36 36 34 31 31 29 28 30 36 40 43 45 47 51 57 63 68 68 72 72 76 66 62 61 55 55 57 58 60 62 63 61 55 48
60 63 54 67 64 71 51 36 32 33 34 37 33 35 34 40 39 37 30 32 32 34 32 38 43 48 49 53 55 59 64 67 77 71 80 72 70 62 58 53 56 59 61 64 66 66 60 53 49
56 57 74 83 77 66 48 45 43 41 41 41 38 42 41 39 40 38 34 31 32 37 36 42 48 51 53 56 59 64 66 69 72 80 78 73 66 60 56 58 61 64 67 69 69 65 59 53 49
69 76 84 79 81 82 64 48 49 52 45 46 37 40 43 41 41 41 38 33 37 41 42 46 48 51 57 60 61 69 69 69 81 79 82 67 64 61 61 62 66 69 71 70 70 64 57 53 53
64 72 82 94 82 89 86 58 58 61 53 53 50 45 47 46 45 48 43 37 41 44 45 49 52 58 64 65 67 72 79 78 80 83 72 66 65 64 64 67 71 72 72 72 67 60 58 58 50

GFSSGP_prec_cthk_039.txt.gz
RH
28 31 31 31 31 29 28 27 20 24 22 23 27 28 33 37 48 50 53 46 42 42 42 39 38 37 35 32 29 27 27 26 25 24 26 35 31 26 20 16 11 12 17 20 27 29 30 35 36
27 29 31 32 31 32 28 27 22 22 25 24 23 24 30 37 41 45 49 45 45 46 48 46 43 40 38 36 31 29 29 28 26 26 29 37 34 29 23 15 14 12 13 16 20 23 29 29 29
27 30 32 34 29 26 28 33 24 25 24 23 25 25 38 43 40 45 47 43 44 48 51 49 43 42 42 40 36 33 31 28 27 28 34 36 37 26 23 21 15 14 13 13 15 17 22 23 21
31 31 30 32 26 24 25 30 27 25 24 25 27 31 35 40 42 45 46 47 50 52 54 48 49 49 49 44 39 37 32 30 30 36 35 35 36 28 31 28 25 22 19 16 15 15 15 15 15
31 31 34 28 22 22 26 28 25 25 27 28 29 33 39 42 43 45 46 49 52 56 58 49 49 53 48 46 40 37 34 32 32 37 36 32 29 32 31 31 30 27 26 26 25 25 26 27 27
34 29 30 26 23 22 26 26 26 26 27 28 28 33 40 39 44 47 47 48 54 59 61 55 51 50 50 47 42 39 35 34 33 37 40 37 37 38 39 33 30 28 29 31 32 32 32 32 33
34 32 28 26 25 24 25 26 24 26 27 28 29 31 40 38 42 46 49 51 55 57 56 57 54 53 56 53 48 41 38 36 35 40 41 43 43 40 43 42 35 32 29 28 28 28 29 30 32
34 32 31 26 22 22 25 28 24 24 26 30 27 28 37 41 40 45 50 53 52 53 56 59 54 54 54 52 50 46 44 41 38 39 44 46 45 46 47 43 39 36 33 32 33 33 34 35 36
36 42 33 29 23 24 27 28 25 25 25 28 28 29 34 35 40 45 49 53 56 54 55 56 58 55 55 55 53 50 47 46 42 40 42 44 49 50 52 46 41 35 38 36 37 38 38 39 40
36 36 30 25 26 27 29 29 26 27 24 26 28 29 30 32 35 41 46 51 55 54 52 52 55 58 59 59 60 55 52 48 46 41 41 47 53 51 53 48 43 40 41 39 39 40 42 44 46
38 40 31 30 34 33 31 30 28 28 27 25 27 33 32 33 35 39 42 47 49 51 52 52 56 58 60 59 57 58 57 56 56 51 48 50 53 52 51 48 45 45 44 46 44 46 47 46 45
37 38 36 38 37 37 33 31 31 28 27 30 32 34 34 31 34 36 38 44 46 49 50 51 56 58 60 61 59 58 61 60 61 55 51 53 54 55 57 56 55 53 53 55 55 50 49 48 44
38 33 33 36 38 36 35 31 31 33 32 27 29 31 32 32 33 35 36 40 43 46 47 50 50 54 56 59 60 61 62 63 61 58 56 55 59 60 63 63 60 61 58 55 52 51 50 46 41
42 40 37 38 33 33 32 28 31 28 23 24 25 27 28 31 33 35 37 38 42 44 46 48 49 52 54 56 56 66 64 62 63 59 59 59 64 69 65 70 66 61 60 57 55 53 52 42 37
44 41 39 35 32 34 32 28 27 24 25 24 23 22 23 24 29 32 36 39 39 40 45 49 50 52 52 53 55 59 62 60 61 60 60 61 64 69 72 69 68 65 64 61 58 55 44 37 35
48 46 44 36 36 37 37 32 25 26 25 25 23 23 22 21 22 27 31 36 39 39 39 41 44 48 53 57 59 60 60 60 60 62 60 63 60 63 71 73 70 68 66 63 61 48 41 38 37
51 47 45 41 40 40 40 36 31 34 31 28 29 27 26 24 22 22 28 33 38 39 40 40 40 45 48 52 55 56 57 58 59 61 63 60 60 61 63 75 74 72 69 67 54 45 43 41 40
49 48 45 42 39 38 36 33 30 31 32 32 31 31 30 28 26 25 24 28 33 39 39 39 38 41 47 50 55 59 58 56 59 63 60 59 57 60 63 69 75 75 71 63 50 47 46 44 42
43 43 41 37 39 36 32 29 27 26 25 24 25 26 26 28 29 27 27 28 30 31 34 37 37 37 42 46 52 59 60 58 62 64 60 64 61 61 65 65 72 81 75 59 52 50 49 47 47
44 42 40 35 33 33 30 23 23 20 18 19 19 20 22 23 24 27 28 27 26 27 32 36 37 37 37 41 48 57 60 58 59 62 65 71 80 75 70 74 79 82 75 60 54 52 50 50 48
43 40 37 38 35 32 31 23 19 18 17 17 18 19 19 20 20 22 24 27 27 26 27 32 37 38 37 39 44 54 55 56 54 55 58 65 73 78 76 83 85 82 77 60 55 54 52 50 50
42 38 38 39 42 42 39 34 22 19 19 20 21 20 20 21 22 22 22 24 26 26 28 28 35 37 38 39 41 42 43 51 53 55 58 66 74 74 75 80 86 81 72 58 54 54 53 53 51
44 45 45 45 47 51 43 54 24 21 21 21 22 22 23 25 25 24 24 24 25 27 29 32 34 37 38 37 40 40 43 47 52 55 60 65 72 80 82 82 81 75 59 50 51 54 54 54 54
49 50 52 53 60 63 38 42 22 20 18 19 21 22 25 26 27 28 27 26 27 26 30 33 35 37 37 38 37 39 44 44 50 58 62 68 75 81 86 83 75 68 57 52 54 55 56 57 58
54 61 61 66 66 48 29 35 26 20 24 25 27 27 27 25 28 27 28 30 28 27 28 35 36 39 36 35 39 42 46 45 52 60 63 69 81 84 79 82 76 61 54 52 55 57 59 59 58
55 59 53 53 36 35 39 39 26 25 26 29 30 28 26 24 21 27 32 32 34 31 29 32 35 41 38 38 42 46 46 49 54 63 71 73 80 78 76 73 68 58 54 57 59 59 60 60 60
56 62 48 57 48 52 36 28 30 33 32 37 36 32 31 30 30 26 29 36 37 36 34 35 35 40 42 45 48 48 49 53 58 67 75 74 77 77 78 68 63 59 57 57 61 63 63 64 63
51 50 62 69 70 58 40 39 44 45 46 47 49 46 42 42 39 34 31 37 38 40 39 39 40 41 47 50 52 52 56 59 65 71 73 80 77 80 75 74 65 59 63 64 64 65 67 66 62
54 56 60 63 72 73 63 44 50 58 61 61 57 55 50 44 43 39 35 42 43 42 44 46 46 45 52 52 53 58 62 67 69 74 81 74 86 80 78 71 66 67 68 66 67 69 68 65 62
53 64 72 87 75 81 84 55 57 63 66 64 69 67 53 48 47 47 43 53 51 52 51 52 51 50 56 54 58 64 68 70 75 75 75 85 80 88 76 70 68 72 69 69 72 71 69 65 57

GFSSGP_prec_cthk_042.txt.gz
RH
30 30 32 31 34 32 30 29 25 24 22 23 25 27 31 35 47 56 57 53 47 38 35 35 34 36 34 30 28 27 26 26 26 28 33 33 33 28 19 14 10 14 15 21 26 29 29 31 32
28 29 30 31 37 36 30 28 29 23 25 23 22 24 28 39 39 45 50 53 49 41 40 38 37 37 35 33 31 29 27 24 24 25 39 41 37 33 27 15 13 12 13 16 19 20 25 28 30
27 29 32 35 31 31 26 35 32 26 24 23 22 21 30 39 40 43 49 45 47 43 41 41 40 37 35 36 37 34 31 25 24 25 33 37 35 28 24 21 17 13 13 13 15 16 21 21 20
29 31 30 32 29 25 23 35 36 29 26 24 26 30 30 38 38 35 43 41 46 44 43 44 43 40 40 40 38 34 29 27 28 28 33 33 32 25 25 24 23 22 19 16 15 15 15 15 15
31 34 34 29 23 23 26 32 32 28 28 28 26 30 40 36 36 38 40 45 48 49 48 46 44 45 45 43 41 36 31 28 33 36 36 32 30 28 27 26 24 25 26 25 25 25 26 27 27
31 28 33 31 24 23 22 27 29 26 26 27 26 27 46 37 37 42 44 47 51 49 50 48 50 49 46 43 43 41 36 30 31 34 34 32 34 33 31 31 28 25 25 27 29 31 31 31 31
30 31 30 28 26 24 24 25 29 26 26 26 26 28 37 39 35 43 49 51 53 52 50 47 47 47 45 42 42 42 38 33 32 35 37 36 39 41 40 37 33 31 29 28 28 28 29 30 31
29 34 35 31 28 25 23 27 32 28 26 28 29 26 44 51 37 40 50 52 53 54 48 47 46 47 47 45 43 42 42 38 35 37 35 39 41 43 44 44 37 35 32 33 34 34 34 35 36
32 38 35 31 28 24 22 27 35 29 27 27 27 27 34 46 40 40 45 50 52 55 54 49 49 48 48 46 45 45 45 42 40 39 38 39 41 46 46 45 44 40 37 36 36 37 38 39 40
39 39 33 26 25 28 27 30 31 30 27 25 28 28 28 32 37 39 42 47 51 53 54 54 50 48 47 46 48 48 47 45 44 42 39 39 45 48 48 48 47 42 41 40 40 40 41 43 43
33 37 28 25 26 30 32 33 30 30 32 24 26 27 28 29 31 36 38 41 46 50 52 53 54 51 50 49 51 50 49 47 47 47 43 44 47 49 50 49 48 49 47 46 46 46 45 46 45
36 35 32 29 31 37 35 34 34 33 29 27 30 30 33 31 31 31 35 39 42 43 45 47 51 54 53 50 52 51 52 51 52 52 51 50 51 50 50 51 53 54 55 55 57 49 48 47 47
38 36 35 32 33 36 38 38 35 33 33 26 25 27 32 34 30 31 32 35 41 44 42 43 48 51 54 54 50 51 51 52 55 54 54 53 53 49 51 55 57 60 65 61 58 55 50 50 45
42 38 38 34 30 32 34 31 32 29 26 26 26 26 26 28 30 30 31 32 36 41 41 41 42 46 49 51 52 54 56 56 57 60 57 57 56 55 56 59 62 62 64 65 61 56 55 51 40
48 47 42 37 31 32 31 30 29 25 23 24 23 21 22 23 25 27 29 32 34 39 43 41 40 42 42 46 51 55 57 57 56 61 59 59 59 58 61 60 62 66 66 66 65 63 60 46 40
49 49 48 33 32 31 35 33 27 28 25 24 23 23 21 20 19 19 23 28 33 33 42 43 40 39 42 44 48 51 55 58 60 59 58 60 61 62 61 61 59 61 66 68 68 66 54 46 43
54 52 47 44 38 35 36 36 31 33 28 27 26 25 22 20 20 20 19 22 27 31 34 37 40 40 39 44 47 50 53 56 57 60 59 59 61 60 60 58 59 61 62 67 71 65 54 52 48
55 56 52 48 48 42 39 37 33 31 31 30 30 27 26 24 23 21 20 19 21 26 31 35 38 36 37 45 48 50 53 55 55 57 57 56 60 61 58 56 54 56 60 62 66 58 56 55 52
57 53 50 46 44 41 39 33 30 26 26 23 23 24 24 24 24 25 25 24 22 24 29 33 35 36 35 39 44 46 48 56 59 60 62 58 61 64 63 65 64 57 60 64 56 56 58 57 54
52 52 50 44 39 38 33 27 23 20 17 18 18 18 19 19 21 21 23 25 25 24 26 30 35 36 34 36 40 45 49 52 56 59 61 60 65 68 73 75 82 80 67 66 64 58 58 59 57
49 49 45 42 37 34 32 26 20 18 17 17 16 16 17 17 18 18 19 21 24 25 26 29 32 36 37 36 39 45 49 50 51 54 59 61 63 70 69 72 81 79 77 72 72 69 61 63 59
48 42 41 39 41 45 37 44 22 17 16 16 16 16 16 17 17 18 18 19 20 22 26 27 32 36 39 40 40 41 44 44 47 49 54 58 63 72 73 72 81 85 79 71 73 66 62 57 55
45 45 44 44 46 47 40 47 24 17 17 16 17 19 19 18 18 18 20 21 21 22 25 27 29 36 38 41 41 43 44 45 46 48 51 56 64 70 74 76 78 82 84 79 78 63 55 55 54
47 48 48 49 52 59 41 41 29 19 19 18 20 21 21 22 21 21 21 21 22 24 23 25 30 32 40 43 43 43 43 43 45 47 49 54 62 70 77 81 81 84 82 80 73 58 55 55 54
51 55 68 70 67 57 30 41 28 19 20 20 22 23 25 26 25 22 21 22 22 23 25 25 29 37 39 46 47 43 45 45 45 44 48 53 59 68 75 81 83 88 81 81 71 56 55 57 60
56 61 67 64 57 50 38 39 27 20 22 24 28 31 32 32 31 28 26 25 25 26 27 29 30 42 45 47 46 48 45 44 43 45 49 53 63 68 78 86 85 79 73 74 64 57 60 59 61
60 64 51 59 46 56 37 23 23 30 32 35 38 39 39 40 39 37 35 33 30 29 28 34 31 41 48 48 49 52 50 43 44 48 55 61 65 73 85 83 82 76 78 71 63 62 64 66 65
55 51 63 65 68 61 40 38 38 41 46 47 47 46 48 48 48 47 45 42 37 33 31 32 41 40 47 48 55 55 51 48 49 54 59 63 71 78 81 79 81 80 75 69 64 67 70 69 66
57 57 56 57 61 74 66 51 45 52 57 61 62 62 61 61 56 53 48 44 40 39 36 37 47 53 55 55 57 56 54 54 57 63 67 71 78 79 79 80 78 78 77 72 71 71 73 72 68
52 54 56 70 71 75 80 60 51 52 55 60 65 60 62 60 60 57 52 45 41 40 43 49 54 61 60 58 58 60 62 64 67 72 75 81 81 82 81 81 82 81 84 73 72 74 75 71 70

GFSSGP_prec_cthk_045.txt.gz
RH
31 30 31 30 33 33 32 26 27 25 25 26 25 26 29 33 37 49 46 50 48 43 41 36 34 31 29 30 31 31 31 29 29 30 31 30 30 26 18 12 15 16 22 21 26 26 26 29 28
32 31 32 33 37 37 32 27 33 28 25 22 23 24 28 38 37 41 44 50 49 44 44 39 38 34 31 30 31 31 29 26 24 26 30 32 33 29 24 17 13 14 16 18 18 22 25 26 25
32 33 33 36 35 35 29 32 31 28 26 24 21 21 26 36 35 40 42 44 46 42 40 38 39 37 34 33 32 33 29 26 25 31 30 31 29 24 22 20 19 17 15 15 16 16 19 20 20
32 34 33 35 31 24 21 32 33 34 27 27 24 25 29 35 35 38 43 40 43 41 38 38 39 39 38 38 36 34 30 27 26 30 31 31 25 22 21 20 21 20 20 19 17 15 16 15 14
34 35 35 32 26 22 22 33 35 35 29 29 26 30 35 36 34 35 36 40 41 41 40 40 39 40 40 41 38 35 32 31 30 29 31 32 28 26 24 22 21 21 22 24 24 24 25 26 26
35 35 39 35 26 21 20 31 30 28 28 27 26 30 36 38 37 35 38 37 39 43 45 43 41 40 43 42 38 34 33 34 39 35 32 30 30 29 29 25 24 24 24 24 25 26 27 29 30
31 34 34 29 28 25 20 26 29 26 26 25 23 26 37 38 38 36 39 44 45 46 49 48 45 41 42 40 39 36 35 33 35 36 31 29 32 35 36 33 28 26 27 28 28 28 29 30 30
29 36 33 29 26 24 21 24 28 28 28 25 25 27 39 39 40 39 42 44 49 49 49 46 45 42 41 41 40 38 36 36 36 36 37 35 36 37 37 39 35 32 30 30 31 32 33 33 34
30 40 39 31 27 23 20 26 30 33 30 28 26 28 36 37 41 42 41 44 45 47 50 47 44 44 43 42 41 40 38 38 39 38 39 40 38 40 42 42 41 37 36 35 35 35 35 36 37
35 40 37 28 25 24 24 28 32 30 28 26 29 28 32 35 37 42 42 43 43 42 43 46 48 45 44 44 42 40 40 40 41 41 41 42 43 41 43 45 45 41 42 42 40 39 39 40 40
34 39 31 29 26 29 30 27 32 32 29 27 28 29 30 30 32 35 39 39 40 44 42 44 46 48 47 46 44 44 43 42 43 44 43 45 48 47 46 46 47 46 46 48 50 46 43 44 44
35 33 33 29 26 33 33 31 31 32 30 29 28 29 30 30 29 32 34 38 39 40 44 42 42 45 45 45 45 46 45 46 45 46 44 46 49 52 49 46 44 46 52 54 55 54 53 50 48
39 35 36 34 30 35 31 33 33 30 31 28 25 28 29 33 31 30 32 36 36 37 38 42 42 40 40 41 43 46 46 46 46 49 48 47 50 52 52 48 48 49 52 55 58 59 59 56 53
37 37 37 36 32 34 31 30 31 28 29 27 28 28 28 30 30 31 28 29 35 39 37 38 40 41 39 37 39 42 43 43 46 51 54 51 53 57 53 52 52 53 54 56 58 60 60 62 57
41 43 37 33 31 31 31 31 31 25 22 23 24 24 25 29 29 28 28 27 27 34 38 36 37 39 41 40 39 40 42 45 47 50 52 53 53 58 56 56 55 55 57 56 57 60 62 63 52
44 44 48 33 31 29 32 32 25 23 24 24 21 19 20 22 26 26 26 28 27 27 34 37 35 35 37 39 38 39 43 44 46 48 53 55 54 54 57 58 59 57 57 56 55 56 62 57 50
50 53 48 44 37 38 37 35 28 28 27 26 24 23 21 19 18 21 21 22 24 27 28 35 38 37 35 38 40 39 44 47 48 48 50 52 54 57 58 58 58 55 53 52 52 55 56 48 52
58 56 52 49 44 44 40 39 33 30 30 27 25 24 24 22 19 17 17 17 18 20 28 29 37 39 36 36 40 43 45 51 50 49 51 50 51 55 56 57 58 59 55 55 54 53 47 44 47
58 57 51 48 45 41 39 36 32 28 27 26 25 25 23 22 22 23 23 23 22 20 22 31 32 36 39 37 41 41 45 50 49 51 52 51 52 59 61 63 63 64 68 72 72 67 50 47 50
63 58 53 48 46 42 38 31 28 25 20 20 18 18 18 19 19 21 23 24 25 26 25 26 34 38 41 42 38 41 47 53 58 56 57 53 53 59 61 65 68 71 68 69 74 70 66 60 61
57 56 54 52 45 40 35 27 22 19 18 18 17 16 16 16 17 17 17 18 22 24 26 28 30 35 42 44 43 42 47 55 61 63 59 56 55 55 63 65 71 75 72 72 78 76 69 66 64
56 49 47 45 44 45 39 49 29 20 18 16 15 15 15 15 16 16 17 17 17 20 24 26 28 32 36 43 45 39 41 44 48 54 52 53 56 61 66 69 70 75 74 79 79 73 73 74 66
52 46 45 44 46 47 42 47 31 23 19 17 17 16 16 16 16 15 15 16 17 18 19 22 25 29 34 39 42 44 41 42 46 53 61 61 61 63 66 66 72 78 78 82 81 78 78 77 69
47 46 45 47 51 59 42 43 32 22 18 17 16 17 17 17 18 18 18 18 19 19 20 22 24 26 30 37 40 45 44 42 44 52 59 61 60 61 64 66 71 76 82 83 83 81 81 80 65
48 50 62 62 66 58 40 46 33 22 18 18 19 21 22 24 24 24 24 22 21 21 22 23 25 26 29 34 33 44 48 44 45 50 56 61 61 62 61 65 67 74 81 85 84 83 78 73 64
52 52 63 67 65 58 42 47 28 19 21 25 27 29 30 31 32 31 30 28 26 26 23 23 23 25 28 32 34 38 45 48 55 56 59 63 66 65 64 65 68 75 78 88 84 80 78 75 65
58 61 58 62 56 63 42 27 19 22 31 36 36 38 39 40 42 41 38 37 36 35 33 28 25 26 28 30 39 40 44 55 62 60 63 69 68 66 64 66 73 76 84 83 81 80 82 73 68
57 53 64 64 63 64 46 37 33 38 42 45 45 44 44 46 48 47 44 43 42 43 45 37 31 27 30 33 44 50 53 60 60 61 64 64 63 66 67 69 74 81 81 83 84 82 80 71 72
62 63 56 56 61 68 67 52 43 49 51 51 49 52 56 62 64 59 53 50 47 43 40 39 40 35 33 36 52 62 64 62 61 66 64 64 66 68 70 75 77 80 79 80 82 86 80 73 74
55 56 56 66 59 66 74 59 51 53 52 50 52 55 53 59 67 64 60 56 51 50 45 40 45 46 39 45 46 61 65 63 61 67 67 67 69 74 77 82 82 80 79 80 90 84 81 79 76

GFSSGP_prec_cthk_048.txt.gz
RH
33 32 32 30 31 33 32 26 24 25 24 23 25 27 32 36 41 42 45 47 46 45 42 41 35 33 33 35 35 34 33 31 30 27 28 28 27 25 19 14 19 26 27 23 18 27 28 24 24
34 33 33 33 37 36 30 24 25 25 23 24 25 27 29 35 36 39 44 47 44 42 42 40 38 35 35 35 35 33 34 31 30 30 28 26 26 25 22 18 20 22 23 20 20 19 21 24 23
35 34 35 36 39 36 29 27 27 26 24 24 24 22 28 29 30 34 38 43 44 43 40 39 37 35 34 36 35 34 32 31 28 28 30 29 27 21 19 19 20 21 22 20 18 20 20 21 20
35 36 37 40 37 27 23 31 29 28 24 24 24 25 26 27 29 33 37 39 42 41 40 39 38 35 35 36 36 35 33 31 30 34 32 31 26 21 19 18 18 20 22 21 20 19 20 18 14
38 38 41 39 32 24 20 29 32 28 24 25 24 28 30 29 30 30 33 38 40 39 40 38 37 37 37 35 37 36 33 30 33 36 33 31 24 24 22 20 20 19 19 20 22 24 24 24 25
42 40 44 37 28 22 21 30 34 29 25 24 26 29 33 32 33 33 31 34 41 41 41 38 38 39 39 38 40 36 32 32 32 35 35 32 28 28 26 24 23 23 23 23 23 24 25 27 29
41 40 41 33 28 25 20 28 33 29 26 23 23 27 33 34 36 34 35 35 39 42 41 41 41 41 41 40 37 35 35 34 33 37 37 34 30 31 30 28 29 29 28 27 27 28 29 29 30
35 39 37 32 29 24 20 27 31 27 24 24 23 28 28 29 36 37 36 36 41 46 49 48 48 44 43 41 39 38 37 35 35 37 36 35 35 35 37 34 31 33 33 32 32 32 32 33 35
32 41 40 30 27 22 20 26 30 28 27 24 24 24 20 27 35 39 38 37 40 47 52 52 50 48 44 42 42 41 38 35 36 38 40 40 40 41 40 39 37 37 38 37 37 37 37 37 36
35 40 35 27 25 25 22 26 31 30 29 26 26 26 28 28 33 35 36 36 38 41 47 50 49 47 46 45 44 42 39 37 36 38 41 43 43 44 44 43 41 40 44 43 43 43 42 41 40
35 37 29 28 26 27 25 27 30 33 29 28 30 30 31 31 29 31 33 33 33 38 42 45 48 47 46 45 46 44 42 40 38 38 40 43 43 45 46 46 44 41 44 46 47 48 48 49 47
37 34 31 27 25 28 29 28 29 31 29 27 29 29 33 36 33 29 29 30 33 35 35 40 43 45 47 49 47 45 43 40 39 40 40 43 43 46 46 48 48 45 44 49 50 52 52 53 54
38 36 32 29 28 29 31 31 28 28 28 28 27 30 29 28 30 33 32 35 34 32 34 34 40 41 44 47 48 45 45 44 42 41 41 43 45 46 49 50 49 48 48 50 52 52 54 56 56
37 33 33 31 30 30 30 30 29 26 29 30 28 27 28 29 28 31 35 33 36 36 34 35 36 37 37 37 39 41 43 45 43 41 42 41 45 48 48 53 54 55 52 52 54 54 54 55 58
39 42 41 35 30 32 31 27 29 27 26 29 28 27 27 27 29 29 29 30 30 33 39 40 36 37 35 32 35 37 40 41 40 42 44 47 46 49 52 51 55 55 52 55 56 55 55 53 55
44 43 45 34 31 30 31 29 24 20 21 22 22 25 24 25 27 29 29 28 28 30 32 37 41 39 38 33 35 38 40 42 41 44 46 48 48 49 52 53 55 56 56 55 54 53 51 51 50
49 52 47 39 34 33 35 33 23 22 24 23 21 20 19 18 20 21 24 27 29 29 31 32 36 42 43 40 42 40 42 45 44 42 47 48 48 48 50 53 57 58 56 56 57 56 55 56 46
61 53 46 46 38 38 39 41 30 29 28 27 26 22 21 20 16 16 17 22 25 29 32 34 34 36 43 54 54 50 49 48 46 45 47 48 48 49 51 53 57 60 61 62 62 65 67 70 58
65 60 56 46 41 37 37 36 29 27 29 29 27 24 23 22 21 21 19 18 20 22 25 30 32 34 38 47 56 52 51 56 54 47 46 48 48 51 53 56 58 62 65 67 70 71 70 65 60
71 61 56 49 46 42 38 34 29 26 25 24 23 21 21 21 22 22 23 24 23 21 21 21 22 30 33 37 43 50 45 46 51 57 60 63 56 55 61 59 60 62 67 71 74 73 73 65 66
63 57 55 54 50 44 41 31 26 21 18 18 18 17 17 16 15 16 18 21 24 25 26 27 25 25 31 33 37 49 56 55 52 56 60 66 66 68 66 66 63 62 70 73 76 76 75 73 69
60 56 57 55 50 50 41 44 29 21 19 18 17 16 16 17 16 16 16 16 17 19 21 24 25 26 29 31 34 40 50 53 51 49 53 60 61 62 65 69 67 69 73 75 78 78 77 74 74
59 54 51 50 51 48 42 46 28 23 20 17 17 16 16 15 16 16 15 15 16 18 18 19 23 26 29 29 31 38 50 52 49 47 51 54 63 70 76 78 76 75 74 75 76 82 82 79 78
55 53 53 52 51 56 42 44 34 23 20 18 17 16 17 17 17 17 17 17 17 18 18 19 19 22 27 30 30 31 35 47 52 54 52 54 59 67 72 77 75 76 75 75 75 82 81 79 77
52 55 61 60 61 52 41 50 35 26 21 20 22 22 21 23 24 23 22 22 22 21 21 21 21 22 24 26 29 31 32 39 48 53 54 56 59 63 67 75 77 78 76 74 74 79 79 80 81
52 51 56 55 64 57 43 45 31 24 20 22 26 28 28 29 30 29 29 29 29 28 26 26 23 22 22 23 25 27 31 38 42 50 53 57 60 62 61 74 78 79 78 74 76 76 76 78 82
53 58 52 60 60 64 45 34 22 24 31 34 35 35 37 38 38 37 35 34 35 36 36 36 33 27 25 22 21 24 28 33 38 48 54 60 65 67 68 75 80 83 82 79 75 76 77 85 78
51 54 65 64 57 59 44 41 32 34 40 43 45 46 47 46 43 42 41 41 40 39 41 41 42 40 35 28 23 23 26 32 39 44 57 62 69 71 73 80 84 82 80 73 74 79 81 82 82
59 61 56 57 57 62 63 41 41 44 48 52 52 51 53 54 53 51 53 53 51 52 52 49 46 43 37 37 32 26 27 36 46 56 62 68 75 76 75 83 83 78 73 76 78 83 77 86 81
57 59 57 61 52 64 68 58 49 55 56 58 59 67 70 60 61 65 66 62 64 65 62 54 49 45 40 36 42 37 40 47 67 69 73 72 73 78 85 83 77 75 75 77 79 80 84 84 90

GFSSGP_prec_cthk_051.txt.gz
RH
36 34 32 32 33 34 33 27 25 26 24 26 28 30 34 37 38 44 46 50 48 45 44 43 44 39 36 34 34 33 33 31 28 26 25 26 26 24 18 17 21 29 22 22 26 38 29 27 23
37 34 33 33 36 37 31 25 24 25 24 24 26 30 33 37 37 41 45 48 47 43 41 40 45 44 41 40 40 38 35 34 32 30 28 25 24 23 21 20 27 33 26 26 30 29 26 25 25
38 36 36 37 40 36 28 23 24 24 24 25 25 25 27 31 34 38 42 43 43 45 40 38 45 43 41 40 39 39 40 36 33 31 27 27 26 23 19 18 24 28 26 23 23 22 23 25 23
38 38 37 40 36 29 25 26 27 26 24 26 27 28 26 27 29 33 35 38 41 41 40 38 37 39 36 36 36 36 39 38 32 31 32 31 27 21 21 19 19 20 24 25 24 25 25 22 19
38 40 44 41 33 27 25 25 30 28 28 25 26 28 27 26 26 29 31 34 40 41 40 38 36 34 33 35 33 35 35 32 32 38 35 33 26 25 24 22 20 19 20 20 21 22 24 24 26
40 42 46 41 31 26 25 24 27 31 28 26 26 28 28 27 26 28 29 32 38 39 40 39 37 35 35 36 36 35 34 33 34 35 37 35 28 25 26 26 25 24 23 23 23 24 23 24 26
44 45 46 37 31 28 23 22 25 31 29 25 25 29 29 27 27 29 31 31 37 41 40 39 38 37 38 38 39 38 35 36 35 36 37 36 32 29 28 28 28 29 30 30 28 28 29 30 31
44 47 45 41 35 28 22 23 26 30 28 25 26 28 27 24 29 30 33 34 35 38 44 43 40 39 41 41 41 39 37 38 37 37 36 37 35 35 33 30 32 32 33 34 34 34 35 34 34
44 49 48 38 35 27 25 25 29 30 27 27 26 23 22 23 23 27 31 33 35 39 43 44 48 48 44 42 42 41 40 39 38 38 38 38 39 40 39 37 34 35 37 38 40 40 40 39 39
41 46 42 34 30 27 26 26 27 28 28 26 26 24 26 28 25 25 27 30 33 35 41 48 53 54 50 46 44 43 41 40 40 39 39 38 40 41 43 42 40 38 38 41 43 44 45 44 45
38 39 31 30 28 27 27 27 26 26 29 27 27 32 32 34 34 29 27 28 29 33 37 43 52 52 48 46 44 43 42 40 39 39 39 40 43 43 45 47 46 43 44 42 43 46 48 50 50
36 33 32 28 28 28 28 27 25 25 25 27 28 34 38 38 36 33 31 29 30 32 35 39 42 45 45 46 43 44 44 41 39 38 38 41 44 46 46 47 49 48 47 47 46 47 48 49 51
38 35 31 29 29 27 28 28 27 22 22 29 28 30 34 35 37 39 36 33 32 32 34 34 37 37 41 42 43 45 47 44 41 37 36 39 43 45 47 49 50 52 51 53 53 51 51 51 51
38 35 34 33 30 28 29 27 27 22 21 25 27 29 29 31 29 30 37 36 35 34 34 35 34 35 38 40 42 44 46 46 43 41 38 38 40 42 46 51 53 52 53 58 58 55 55 54 52
39 41 35 32 30 31 29 27 27 24 23 20 21 25 28 30 30 28 29 34 39 37 36 35 34 38 38 37 39 42 44 46 44 43 41 39 39 41 46 52 55 55 57 61 57 57 57 56 53
44 44 48 35 31 31 30 28 26 24 22 22 22 22 25 26 26 25 27 30 33 37 36 36 35 39 42 40 42 43 44 44 44 46 43 41 40 42 46 52 55 54 59 59 59 59 58 58 56
49 52 47 38 34 34 35 34 25 23 21 22 19 17 19 21 23 24 26 28 31 32 32 33 31 32 40 45 46 47 47 47 44 46 46 44 43 46 47 49 52 52 57 58 59 59 59 59 62
57 49 44 42 35 36 37 40 28 26 26 26 23 20 17 17 15 16 20 23 27 30 32 34 34 31 32 38 45 51 54 55 50 46 47 48 45 49 51 51 52 51 55 59 61 63 65 67 68
62 59 54 44 38 37 35 35 27 25 28 27 25 23 21 20 18 19 19 19 20 23 24 30 34 34 32 31 39 51 56 61 62 59 54 55 49 54 61 61 58 54 56 61 62 63 66 69 70
72 68 61 52 45 42 37 36 28 25 25 26 25 23 22 22 21 21 22 23 21 20 19 21 29 35 34 33 33 36 40 49 58 58 54 55 57 58 64 69 66 65 64 64 64 67 69 71 73
85 76 66 56 48 45 42 34 28 23 23 21 19 19 18 17 16 16 18 20 23 24 24 22 22 25 32 36 37 35 40 40 48 51 55 53 55 62 69 73 74 74 74 72 71 70 76 78 74
83 74 68 57 51 55 46 47 30 22 20 18 18 19 18 16 17 17 17 17 16 18 23 26 28 28 27 27 27 29 33 38 42 51 69 69 57 56 61 71 79 79 78 81 83 88 86 83 78
71 60 56 55 55 52 46 49 28 22 20 19 19 18 17 17 17 17 17 16 17 17 17 19 24 26 28 29 29 29 33 35 41 47 48 57 61 55 57 64 74 79 82 86 88 88 88 83 79
62 59 57 57 53 56 43 44 30 24 22 20 20 19 19 18 17 17 17 17 17 18 17 18 19 20 21 24 28 29 30 34 40 44 59 74 71 64 59 61 67 77 83 86 87 88 89 89 81
62 62 63 57 59 51 46 49 33 26 25 23 22 22 22 22 22 22 21 21 20 20 20 20 20 21 21 21 22 28 30 33 35 40 48 61 65 65 60 58 61 65 76 84 88 88 90 87 81
60 57 59 50 59 57 48 49 31 27 24 22 24 26 28 28 29 29 29 28 27 27 26 25 24 24 23 22 22 23 26 31 33 35 38 43 54 63 67 65 61 68 75 83 90 90 88 84 78
60 60 51 57 56 61 47 36 24 25 27 33 33 33 33 34 36 37 37 37 35 34 34 34 35 34 33 29 25 22 21 23 27 30 38 42 46 52 63 65 68 73 77 81 88 89 85 85 80
53 51 58 60 49 51 41 42 30 30 36 39 40 39 40 44 45 43 41 40 39 39 39 38 38 39 42 43 42 34 28 26 24 25 29 37 42 48 62 68 72 81 81 85 90 89 87 83 77
57 59 57 58 55 59 58 36 35 42 45 48 51 53 56 57 56 56 54 52 48 47 49 50 50 49 48 45 43 40 37 34 30 27 29 37 44 51 64 75 82 86 87 87 88 89 85 81 72
59 59 57 62 56 65 63 52 47 51 53 57 60 63 64 61 60 58 57 55 53 51 53 58 62 61 60 56 51 47 43 42 40 34 36 45 51 60 74 79 83 85 84 84 85 84 79 75 78

GFSSGP_prec_cthk_054.txt.gz
RH
41 37 35 34 35 35 34 27 25 25 29 29 30 30 31 33 37 42 41 45 44 43 46 47 46 43 42 40 38 36 34 33 33 32 31 28 25 24 20 17 22 27 21 26 41 39 27 24 23
42 40 37 37 39 38 32 26 26 26 25 27 28 33 33 35 37 38 42 43 45 43 43 45 44 43 42 40 39 40 39 37 33 31 27 26 25 22 19 26 31 28 20 30 34 33 26 22 22
42 42 40 40 43 37 29 24 24 25 26 27 27 27 29 31 35 37 38 42 43 43 43 43 46 45 43 39 38 39 39 40 37 35 32 28 27 23 19 24 27 29 26 26 28 29 24 24 22
42 43 42 44 38 32 25 25 25 26 27 28 28 30 29 29 32 34 36 41 42 40 41 41 48 47 44 41 38 39 42 41 37 33 31 30 27 23 22 22 23 26 23 23 25 26 27 27 25
41 42 46 44 36 29 26 25 26 28 28 28 26 27 29 29 30 31 33 36 39 40 40 38 43 44 43 41 40 37 41 40 39 34 34 33 26 23 23 23 23 23 22 22 22 22 25 24 25
40 42 48 44 33 28 27 26 26 27 27 28 27 28 30 28 29 29 30 33 35 38 38 37 36 39 40 39 37 38 38 33 34 39 35 34 29 26 25 24 24 25 25 24 24 25 24 24 25
40 43 45 37 32 30 27 27 25 25 26 29 29 32 29 28 28 30 30 30 31 33 38 38 36 36 35 36 36 37 37 33 35 38 37 34 31 29 27 27 28 29 29 29 30 31 30 30 31
41 43 43 39 34 31 27 27 26 23 25 30 30 30 27 26 26 32 33 34 33 32 37 40 38 37 36 37 39 39 38 35 36 36 35 35 32 33 31 31 30 32 34 34 34 36 36 35 36
48 50 47 37 35 30 30 29 27 25 24 30 31 28 26 26 24 28 34 34 34 34 35 39 40 39 37 40 40 41 40 37 37 37 37 36 34 35 34 33 34 35 34 36 39 40 41 42 42
52 53 46 37 34 33 32 30 28 26 27 28 29 30 27 27 25 24 24 29 33 35 36 40 42 43 46 48 45 44 41 40 40 40 39 37 38 39 41 39 38 37 38 39 39 41 42 44 46
44 47 41 40 37 36 34 31 30 28 27 28 29 31 31 31 30 29 29 28 31 35 36 37 43 49 52 54 52 45 44 42 41 42 42 39 40 42 45 45 42 42 44 42 43 44 44 45 46
41 38 37 34 37 38 36 32 29 28 24 28 29 34 35 36 36 35 35 33 32 31 34 37 40 45 52 52 48 47 45 44 43 43 43 42 41 44 45 47 47 45 45 47 48 49 48 48 49
41 39 35 33 32 33 32 31 29 24 23 24 27 30 38 37 39 38 36 34 34 31 30 31 38 39 41 44 46 47 46 45 47 44 42 41 40 42 45 47 48 49 48 47 51 53 54 51 52
39 37 36 33 32 31 30 28 27 21 20 20 21 28 34 39 39 36 36 35 34 33 32 35 35 37 38 38 41 44 47 49 50 47 42 39 38 40 42 44 46 49 50 48 50 56 57 53 54
41 41 36 32 33 33 30 28 26 20 21 19 18 21 29 33 37 34 31 33 34 34 34 36 36 38 37 38 40 42 46 49 49 48 45 42 39 38 39 42 47 49 48 51 53 56 57 57 57
44 43 45 36 31 30 31 29 26 23 22 19 18 18 20 25 27 30 28 27 28 31 35 37 41 42 40 38 37 42 46 46 44 46 46 49 45 43 40 41 48 53 52 51 55 56 55 55 56
50 51 46 40 35 33 32 34 28 25 24 22 20 17 17 17 19 22 23 26 26 27 29 34 38 40 38 39 38 41 46 49 48 48 47 50 49 48 45 44 49 54 52 51 54 54 55 56 56
48 49 44 41 33 35 36 37 30 25 24 24 23 20 18 17 15 17 21 22 24 25 27 29 31 33 34 33 33 38 46 52 51 50 51 50 49 51 52 52 52 56 55 55 58 57 59 60 60
50 50 45 39 37 36 36 35 28 26 25 24 23 21 19 17 17 18 17 19 19 21 25 28 31 31 33 34 32 30 31 38 48 49 57 59 58 60 59 60 61 64 63 64 65 62 63 62 64
65 62 57 50 44 40 37 36 27 23 24 23 23 22 21 21 20 20 19 20 21 20 21 22 25 30 32 33 34 32 31 31 40 50 60 68 70 68 67 67 69 70 69 70 72 74 72 71 71
75 70 64 59 52 46 43 35 27 22 22 21 21 21 21 18 16 16 17 18 19 20 21 22 22 23 25 27 30 32 34 32 33 39 45 54 61 68 66 64 69 71 74 73 76 77 84 86 87
94 77 72 66 60 59 47 51 32 26 22 22 19 19 20 21 19 17 17 17 18 18 19 22 25 26 25 24 24 27 31 32 33 35 41 42 45 57 62 65 70 75 74 74 78 82 86 90 92
86 81 74 67 64 56 49 50 28 24 23 22 23 23 23 22 21 19 18 18 18 17 17 18 18 23 28 30 29 28 28 30 33 35 38 44 49 53 69 79 72 70 69 73 79 81 85 87 90
79 79 77 70 61 60 46 45 28 25 25 24 24 24 24 23 21 20 19 18 17 17 18 18 19 21 23 25 28 31 32 33 32 33 34 36 45 52 54 64 69 74 69 66 72 78 84 87 88
65 69 73 57 61 53 50 48 32 28 25 26 25 24 22 23 23 22 21 20 20 20 20 20 20 21 22 23 23 23 23 25 29 34 36 37 47 56 56 70 80 80 80 70 68 76 83 89 90
66 64 63 48 57 56 51 51 32 29 26 28 26 25 26 27 28 28 27 27 26 25 24 25 24 24 23 23 24 24 24 24 26 29 36 42 42 43 56 62 72 76 79 74 72 77 81 87 92
66 66 56 61 58 62 46 37 26 30 29 28 31 31 31 33 34 35 34 33 33 32 33 32 31 31 31 31 30 28 27 26 25 24 26 30 35 41 43 52 60 71 79 82 85 82 84 89 90
61 59 60 59 48 45 35 39 29 29 32 34 37 38 39 42 44 44 44 43 43 45 42 41 41 38 35 36 40 42 42 37 32 29 28 27 28 33 39 45 50 64 73 77 78 83 86 90 90
62 62 55 55 53 55 46 31 34 33 40 44 46 49 51 54 55 54 53 51 50 50 47 43 43 42 44 45 47 46 45 47 46 43 37 32 30 28 35 45 49 59 72 83 89 90 88 88 87
54 56 54 60 58 64 62 44 37 44 48 50 53 55 59 60 59 57 56 53 49 47 48 46 43 42 42 44 45 51 58 52 50 48 48 45 42 37 40 49 51 58 68 83 88 90 89 89 86

GFSSGP_prec_cthk_057.txt.gz
RH
48 41 39 36 36 37 37 31 30 32 32 31 29 28 26 30 36 38 37 39 40 40 42 46 44 40 40 38 36 35 35 33 32 32 31 31 29 26 23 18 21 19 24 39 44 39 25 21 22
53 46 42 39 38 35 29 26 26 28 29 32 32 35 33 35 38 38 41 44 42 40 41 46 44 41 41 41 38 38 37 37 34 32 31 31 28 24 20 27 27 23 31 41 41 32 27 21 20
55 50 45 44 40 34 28 25 25 26 27 29 29 31 30 33 37 38 37 41 44 43 41 41 43 42 43 41 37 35 36 37 34 33 27 28 26 24 26 31 28 24 33 35 35 34 26 23 20
52 51 48 46 39 33 27 26 26 28 29 29 28 29 30 32 34 37 38 40 43 42 40 40 43 42 41 40 38 36 36 35 37 35 30 29 25 22 25 29 30 26 25 26 28 26 26 27 24
47 49 52 48 39 33 29 29 29 28 30 29 28 28 31 31 31 33 37 41 42 42 39 40 44 43 42 41 39 36 40 38 37 35 32 31 24 22 22 26 25 24 24 23 23 24 25 23 22
45 45 50 45 38 33 31 28 28 29 29 27 28 28 29 32 32 33 35 38 43 42 42 40 43 43 43 43 41 39 42 41 38 36 36 33 27 24 23 23 23 25 26 26 25 25 25 25 26
42 42 43 39 36 34 30 28 27 28 28 27 28 27 28 29 31 32 32 32 36 40 41 39 39 42 43 43 39 37 39 40 39 39 38 35 29 28 26 24 25 27 27 28 28 29 29 30 30
39 41 44 39 34 31 28 28 27 26 27 27 29 29 29 29 29 30 33 33 33 34 39 40 38 37 37 36 36 37 38 38 36 43 41 37 31 31 29 29 29 28 29 32 34 34 34 35 35
44 45 41 35 33 29 28 28 28 27 26 26 29 29 30 30 30 29 29 34 35 34 34 37 40 38 38 36 37 39 40 40 38 46 42 40 35 34 32 32 32 32 33 33 33 36 38 39 40
52 49 40 32 31 29 30 31 31 30 29 26 27 33 31 31 31 29 27 29 34 36 34 37 40 40 39 39 40 41 43 43 42 41 41 41 38 36 37 35 35 36 36 35 37 36 37 38 40
55 50 43 40 36 34 34 34 34 31 29 26 28 33 34 34 37 34 31 30 31 34 36 37 39 42 45 46 46 47 47 46 42 41 41 42 40 38 41 40 38 38 39 39 39 39 41 41 41
54 50 47 45 45 43 39 37 35 32 28 28 29 31 33 36 38 39 37 35 34 31 33 36 38 40 46 50 51 53 51 47 44 43 42 42 42 40 41 43 42 42 42 42 42 44 46 47 46
47 45 42 44 46 45 41 40 37 30 28 27 28 31 34 35 36 38 39 36 36 35 34 36 35 39 40 44 51 53 52 48 48 45 43 44 44 41 41 42 44 46 45 43 44 45 47 49 48
45 42 39 36 36 38 39 39 37 29 26 25 25 26 29 33 35 35 36 37 34 34 32 33 31 33 38 42 47 49 51 50 50 49 46 45 43 41 39 40 42 44 46 45 46 47 50 50 50
45 44 41 35 36 35 32 30 30 26 25 23 22 21 22 28 31 32 34 33 31 32 33 33 32 32 33 34 39 43 44 47 47 48 51 47 44 42 39 38 39 44 46 47 46 47 50 51 52
48 46 45 35 32 33 32 30 25 24 23 21 20 19 18 17 23 28 29 27 28 29 30 33 34 34 32 35 39 41 42 48 51 48 50 51 48 46 44 40 40 43 46 48 49 48 51 53 53
53 52 46 40 37 34 32 32 26 25 24 22 21 18 18 17 16 20 25 28 28 25 25 25 29 33 33 34 39 47 43 47 48 55 47 49 47 52 51 48 45 46 49 51 51 51 54 54 53
55 51 46 38 34 37 37 37 30 25 25 23 21 18 18 18 17 17 18 21 22 24 23 24 25 27 32 37 38 41 44 44 46 48 51 53 54 52 55 56 51 50 53 54 56 56 61 63 62
45 45 44 40 35 36 37 37 30 27 25 23 22 20 20 20 19 19 19 18 18 20 21 21 23 25 28 31 33 33 32 39 43 44 47 55 58 57 59 60 58 56 56 57 60 63 67 72 71
50 50 49 44 40 38 37 36 29 26 24 24 23 22 21 20 19 18 17 17 16 16 17 19 21 22 24 26 30 31 33 34 38 41 40 47 51 56 64 67 67 68 65 67 69 70 72 76 76
65 59 55 50 45 43 40 34 27 25 23 22 20 21 21 21 20 18 17 16 17 17 17 18 19 20 20 21 24 26 29 32 34 34 34 36 44 53 63 68 73 72 71 72 71 71 74 78 79
77 70 62 56 53 53 45 47 33 28 26 26 25 24 24 23 21 20 18 18 18 17 17 18 19 21 23 24 23 23 23 24 28 33 36 38 40 50 55 63 64 67 69 70 72 78 80 81 81
89 77 70 63 60 53 49 49 33 28 26 27 27 26 26 25 23 22 21 20 19 18 18 18 18 19 21 26 28 30 29 28 27 28 31 35 37 40 46 53 54 54 58 70 74 81 82 80 82
91 80 76 69 62 59 49 48 31 30 28 28 28 28 27 27 26 24 23 21 20 19 19 19 18 19 19 20 24 27 30 31 32 34 34 34 34 36 39 48 57 58 59 78 79 78 79 83 86
81 83 85 69 71 57 53 51 35 31 29 29 30 29 27 27 26 25 24 23 22 21 21 20 21 21 20 20 21 23 24 25 26 27 31 36 40 41 41 44 49 56 64 71 79 78 83 84 87
79 75 77 58 58 50 51 49 33 31 29 31 30 31 29 30 30 30 30 29 28 27 26 24 23 24 24 24 24 24 24 23 24 24 25 27 30 37 44 46 51 56 66 73 83 89 90 93 93
73 70 60 62 60 57 43 39 31 32 31 33 33 33 34 35 37 37 36 35 34 33 33 33 31 31 31 31 32 32 33 32 30 29 27 26 27 30 34 42 47 51 61 70 82 86 93 94 94
66 65 64 63 57 43 33 34 27 34 35 36 36 36 38 41 42 43 43 43 43 43 43 43 42 41 40 40 39 40 40 39 40 42 42 38 32 28 30 33 39 47 56 62 72 79 88 99 91
72 70 62 56 51 46 37 27 31 31 35 36 38 41 45 47 48 49 48 48 47 45 44 43 42 41 41 41 42 41 40 41 46 46 46 48 47 44 39 35 37 42 48 53 59 69 78 88 95
66 63 57 56 54 57 56 37 34 35 37 38 45 49 53 54 53 51 49 46 42 42 42 40 39 39 35 32 33 34 38 40 44 44 46 52 56 55 52 48 47 44 48 54 59 66 69 77 84

GFSSGP_prec_cthk_060.txt.gz
RH
58 52 45 42 43 39 36 32 29 30 27 25 24 22 22 26 34 39 34 34 39 40 45 44 43 39 38 36 34 36 36 34 33 33 32 31 28 26 22 16 19 22 34 43 41 29 20 18 19
61 58 50 44 40 38 33 31 30 32 31 31 30 26 26 31 36 40 41 39 44 45 46 43 44 39 42 43 37 34 35 35 34 32 30 29 27 24 22 26 25 31 40 46 39 30 23 18 16
63 62 58 49 41 34 30 28 28 30 31 33 34 35 31 34 38 40 41 43 47 45 44 43 41 39 41 42 39 35 33 32 33 30 25 27 25 23 31 29 28 35 38 39 37 32 25 21 18
65 63 59 51 40 32 30 27 26 27 29 31 33 33 34 35 38 41 38 43 48 48 46 43 41 42 43 41 40 37 33 32 31 32 26 25 25 24 30 30 27 31 32 34 33 30 25 26 22
65 59 59 53 41 35 30 29 27 28 28 28 30 30 32 33 34 37 39 41 49 49 47 43 44 44 44 42 40 38 36 34 35 33 29 27 22 22 27 28 27 27 28 27 27 24 24 23 21
59 56 53 50 41 37 33 30 30 29 30 28 29 30 33 33 34 34 38 44 47 49 47 44 44 42 44 44 42 40 39 40 37 36 33 30 25 23 24 28 25 24 26 26 26 25 25 24 26
53 50 46 41 42 36 33 31 29 29 28 28 29 30 34 35 34 34 34 40 46 49 49 47 46 43 44 47 46 42 43 44 41 38 36 31 28 26 25 24 25 27 28 28 28 27 27 28 29
47 52 46 41 40 33 34 31 28 27 28 27 26 30 33 33 32 32 33 38 41 45 47 48 46 45 44 45 45 43 42 43 44 40 40 36 29 29 28 27 27 27 27 28 31 32 33 33 34
45 43 45 40 36 32 32 31 29 27 26 27 27 29 31 30 31 31 33 36 36 36 38 45 46 45 44 44 42 41 40 39 40 43 46 42 34 31 30 31 31 31 31 31 31 31 33 36 38
49 40 35 36 36 32 30 30 30 28 28 27 27 28 30 29 31 33 33 32 35 37 38 37 42 44 42 39 40 39 40 40 41 45 48 48 44 39 38 32 33 34 34 35 35 35 36 36 37
56 45 39 39 34 31 32 32 32 31 31 28 28 27 34 32 34 38 35 33 31 35 37 34 40 42 42 41 42 43 43 45 48 52 51 49 47 40 37 36 34 36 36 37 37 37 39 42 41
62 54 48 46 39 35 34 34 33 32 32 30 28 28 29 36 37 38 39 36 34 30 33 35 37 41 44 46 46 50 49 46 50 53 51 49 47 45 44 44 42 40 40 43 43 44 44 42 43
59 61 56 53 50 45 42 38 36 34 35 32 30 28 30 32 38 38 39 38 35 31 32 32 34 38 40 44 50 54 54 52 51 49 50 48 47 45 44 46 44 43 43 44 44 44 45 44 44
53 58 58 58 53 50 46 44 39 36 35 32 29 27 28 31 33 35 37 37 37 36 34 34 36 36 38 40 42 46 54 57 56 54 50 45 44 46 46 46 45 43 45 45 44 44 46 46 46
53 52 51 53 51 48 46 43 38 37 34 30 27 26 25 27 31 34 34 34 34 34 36 35 34 34 34 34 36 41 46 53 57 58 55 51 49 48 47 46 46 45 44 46 45 45 45 45 46
50 49 48 38 43 44 40 32 35 34 32 30 27 25 24 21 23 26 29 29 31 31 32 35 36 33 32 32 32 34 35 41 47 54 56 58 56 53 50 50 48 43 45 44 46 45 44 47 48
50 40 38 41 38 35 33 28 29 28 27 26 26 25 23 20 18 18 21 25 28 28 28 28 28 32 34 31 33 34 35 37 40 45 50 50 55 60 57 53 52 51 49 48 48 50 48 48 52
44 45 41 35 38 38 34 29 29 28 26 23 23 22 21 19 18 17 17 18 21 24 25 25 25 25 29 32 30 33 34 33 37 42 45 46 51 54 55 57 56 59 56 55 52 55 55 51 55
48 45 40 34 35 34 34 35 31 29 26 23 21 20 19 20 18 17 16 16 16 19 20 22 24 24 24 29 26 29 31 33 33 36 39 43 49 52 53 55 58 61 61 62 58 58 59 55 59
48 42 40 41 37 36 37 33 29 27 26 25 23 21 20 19 19 17 16 16 16 16 16 17 18 20 21 23 27 26 31 32 34 35 37 39 41 48 54 55 56 59 62 63 65 65 67 66 67
52 45 46 41 40 39 38 32 29 26 25 24 23 23 22 21 20 19 18 17 16 16 16 15 15 16 17 18 23 28 31 32 31 30 32 37 39 41 43 48 54 57 62 65 69 71 75 75 73
59 54 50 46 46 45 38 34 31 28 28 27 27 27 27 24 23 22 21 19 18 17 16 16 17 19 20 22 22 25 28 28 25 27 30 33 36 38 42 48 55 53 62 67 68 76 77 80 78
74 65 58 54 52 47 43 41 32 29 29 30 29 29 28 27 26 25 23 21 20 19 18 17 17 17 18 19 22 25 31 32 32 35 31 27 28 33 39 45 49 58 60 65 68 72 73 73 80
74 68 64 59 57 56 44 43 31 30 28 30 29 30 29 29 28 27 25 23 22 20 19 18 18 18 17 17 18 20 24 30 34 35 36 35 36 34 33 38 46 49 61 64 70 71 69 70 77
89 77 79 74 71 56 47 45 33 31 29 30 32 33 32 31 30 28 27 24 23 22 21 20 19 19 20 19 19 20 20 24 31 34 35 35 35 34 38 42 41 42 47 58 65 70 75 75 82
84 82 75 60 50 47 51 43 32 33 31 33 33 34 33 32 31 30 29 28 26 25 24 24 24 23 22 22 23 23 24 24 25 26 26 26 27 27 29 33 41 50 53 53 55 61 71 78 86
80 81 70 64 61 55 42 39 36 34 34 35 34 35 36 36 36 36 35 34 34 33 32 31 30 30 29 28 29 30 31 32 34 35 35 36 35 33 31 31 32 39 48 54 63 67 69 74 84
75 69 71 70 61 48 34 30 29 33 34 36 36 38 41 42 41 40 39 39 38 37 37 37 38 39 40 40 38 36 36 36 38 40 42 43 43 42 42 41 39 39 41 47 56 59 65 74 82
73 72 64 52 44 42 26 25 28 34 36 37 38 40 44 44 43 44 44 43 42 41 41 41 40 40 41 40 39 38 36 34 31 33 35 37 40 44 49 49 49 47 47 51 52 57 63 69 72
69 65 58 55 54 48 48 30 31 34 35 35 39 44 48 48 48 49 48 45 42 40 38 37 36 35 34 33 31 28 28 30 32 33 37 41 46 50 53 56 57 62 61 55 55 58 61 65 67

GFSSGP_prec_cthk_063.txt.gz
RH
58 55 52 47 45 40 38 35 30 28 25 23 22 20 21 27 33 46 45 39 37 35 37 37 41 41 39 38 35 32 33 34 33 33 33 32 30 26 21 17 18 27 41 42 33 25 16 19 19
67 64 58 56 46 44 37 36 34 29 29 26 23 20 20 28 36 44 46 38 41 43 43 42 41 40 38 36 35 35 34 34 33 33 32 31 28 23 24 22 25 32 44 44 35 28 20 18 16
72 69 66 59 50 41 40 39 35 33 30 29 28 28 30 41 36 40 44 41 47 50 46 43 40 42 41 39 37 37 33 32 32 32 29 28 24 26 27 23 30 33 40 37 36 30 23 21 16
76 75 68 64 54 42 39 40 34 33 31 31 32 36 34 36 40 41 41 46 51 53 47 42 40 43 44 43 41 38 34 34 32 28 26 24 22 27 26 25 29 31 36 35 33 29 23 23 19
83 78 71 62 54 47 39 40 30 31 32 32 33 38 43 39 41 41 40 50 52 52 52 43 41 43 45 44 42 40 37 34 33 28 27 24 21 24 26 24 24 28 29 30 29 24 23 21 21
83 74 67 62 54 50 43 37 31 29 31 29 31 32 44 38 41 42 43 49 52 53 54 46 41 45 48 43 42 42 41 37 36 33 29 24 22 21 24 25 23 25 24 24 24 24 23 22 24
79 74 62 55 55 52 45 37 30 28 30 29 30 30 43 41 39 39 45 48 52 54 55 50 45 42 43 42 42 41 41 42 39 36 32 26 23 23 23 24 24 25 26 25 25 25 25 25 27
62 70 65 55 50 48 48 39 32 31 30 32 28 33 41 40 36 36 40 45 49 52 51 51 44 43 45 45 44 44 43 43 42 40 38 32 26 25 26 25 25 25 24 24 26 27 29 31 33
49 66 63 52 48 45 52 41 34 31 31 28 29 36 41 38 33 34 38 42 43 48 51 51 51 45 45 47 45 45 44 43 41 41 40 37 33 30 28 27 27 27 28 28 28 28 29 30 33
52 52 51 49 47 48 49 39 37 31 28 27 28 29 34 36 31 32 35 37 39 41 42 45 48 50 50 50 46 44 45 40 40 43 41 46 44 39 35 29 29 29 30 30 31 32 33 35 37
61 46 41 46 50 45 46 36 35 32 28 26 27 31 34 34 35 37 36 36 35 39 41 41 42 46 48 44 43 42 43 45 45 45 46 45 49 47 39 34 30 31 31 32 33 33 35 38 42
63 57 50 49 44 45 40 36 35 34 34 33 32 30 32 36 34 35 36 36 36 36 37 38 41 42 44 45 43 44 45 46 45 50 49 49 53 49 44 41 38 38 37 40 38 40 41 43 43
61 67 63 61 48 45 42 38 36 35 36 34 32 28 28 28 34 35 36 38 39 38 35 31 34 39 43 43 47 49 51 49 50 49 49 51 54 50 46 47 46 43 41 40 41 43 46 43 43
55 71 72 65 60 52 49 44 40 36 36 34 32 29 28 28 28 32 39 38 36 37 38 37 34 34 36 40 44 48 51 52 51 52 52 52 51 52 50 49 49 48 47 44 42 43 43 43 43
64 67 70 68 62 57 55 53 44 40 37 35 32 31 28 27 28 29 31 34 37 45 45 42 37 32 31 33 40 44 44 45 47 49 52 54 54 56 56 53 53 51 51 49 48 45 44 43 43
65 66 67 65 64 62 57 46 46 42 38 34 32 30 27 26 24 26 29 32 34 32 34 39 38 34 31 31 31 34 39 40 40 43 48 52 57 60 62 56 54 56 55 53 52 48 47 45 43
61 58 54 55 57 60 56 47 44 42 39 35 32 30 28 25 23 22 23 27 29 31 31 31 33 36 38 36 33 32 36 35 38 40 41 46 51 54 60 62 58 59 62 58 55 52 51 48 48
50 51 43 44 52 53 50 46 44 40 38 34 33 31 28 26 23 22 22 21 22 23 25 26 28 29 32 39 39 31 31 32 37 41 39 43 45 46 52 58 60 60 60 61 60 58 57 55 54
52 47 47 41 48 48 46 44 38 35 32 29 27 25 25 23 23 23 21 19 17 16 18 22 24 26 28 30 34 31 26 26 31 35 38 42 44 47 48 49 54 57 61 61 61 65 65 63 62
54 52 50 46 44 40 37 41 41 33 28 25 23 23 22 22 21 18 17 16 16 16 16 16 18 21 23 25 27 31 26 23 24 27 30 35 37 43 45 45 45 52 57 62 66 66 68 68 67
55 53 47 42 43 39 40 38 34 30 26 24 24 22 22 21 20 19 18 17 17 17 16 16 17 17 17 18 20 23 29 27 28 25 26 29 36 40 45 46 49 50 55 59 61 65 69 69 70
59 51 47 46 44 38 37 27 34 30 27 26 26 27 27 25 24 23 22 20 19 17 16 16 16 16 17 19 20 21 24 29 29 30 31 32 34 34 39 46 53 57 60 60 59 64 68 72 71
72 54 53 47 47 50 44 36 41 34 30 28 29 31 32 28 27 27 24 23 22 19 18 17 17 16 16 17 18 21 24 27 31 34 33 33 35 35 33 39 46 52 58 60 66 68 71 73 82
76 63 56 54 53 58 43 39 42 34 30 31 29 30 29 29 29 29 26 25 25 22 20 19 18 19 17 17 17 17 19 23 30 34 34 34 36 37 37 36 37 40 46 53 60 65 66 72 86
80 70 79 80 75 58 43 43 34 29 30 31 33 32 31 31 31 30 28 27 27 26 24 22 21 21 19 19 19 19 20 21 23 28 32 34 35 36 36 35 38 39 42 51 55 60 64 66 79
90 82 79 69 57 54 49 45 35 32 31 35 33 33 33 33 34 32 30 29 29 28 27 26 25 25 25 22 22 23 24 24 25 26 30 34 37 38 39 38 32 30 35 43 54 59 63 62 63
97 96 72 62 50 49 41 39 40 37 35 35 35 35 36 37 37 36 34 33 34 33 32 30 30 30 30 30 29 28 28 30 32 33 34 35 38 39 40 42 45 43 47 51 52 56 63 66 71
82 80 82 75 68 50 41 35 34 36 37 37 37 39 39 41 40 38 36 36 35 35 35 35 36 36 36 36 37 37 36 35 33 33 34 33 32 32 34 33 34 37 40 46 57 61 63 69 73
75 73 72 68 57 56 36 33 34 34 34 39 39 41 43 43 41 40 40 38 39 39 37 38 37 37 37 38 39 39 38 37 34 31 28 28 30 32 35 36 38 40 46 50 58 56 62 69 72
68 67 62 63 59 51 55 44 34 35 36 37 40 43 46 45 43 43 44 44 44 42 38 37 35 34 32 31 32 31 29 27 25 26 29 31 31 34 36 39 44 51 57 61 70 69 66 67 73

GFSSGP_prec_cthk_066.txt.gz
RH
56 52 50 48 49 41 39 33 32 28 26 24 20 19 22 24 35 51 50 45 40 30 30 36 41 41 39 41 39 36 33 36 35 32 31 30 27 23 18 17 22 32 38 32 25 18 15 16 17
63 61 58 54 50 48 39 34 34 30 30 23 21 18 20 38 34 43 48 48 42 33 34 38 40 41 40 39 36 35 30 31 30 30 30 28 24 20 22 21 27 35 42 35 31 23 17 15 14
72 70 67 59 53 46 43 38 37 34 29 28 26 21 21 41 40 42 47 46 43 39 38 40 39 39 40 37 35 36 32 31 30 29 26 25 22 26 22 26 30 33 33 33 31 26 20 17 15
80 78 72 69 55 44 42 43 38 34 32 29 30 30 33 40 39 38 42 46 47 47 43 41 38 41 40 39 37 35 35 32 27 24 24 21 24 24 24 27 28 32 32 30 29 24 19 17 18
85 83 78 70 62 53 42 46 40 35 35 32 31 38 42 37 38 38 42 48 48 46 46 41 39 43 43 42 39 38 36 34 30 25 23 21 25 26 23 22 26 27 27 28 25 21 20 18 20
89 84 80 75 63 57 51 49 41 37 36 33 34 44 50 45 43 43 46 51 53 51 47 42 40 44 44 43 41 40 39 36 34 27 25 21 22 25 23 22 23 25 24 22 21 20 21 21 24
93 88 81 69 68 64 55 52 42 34 34 30 36 39 54 47 45 47 48 51 53 51 49 44 41 43 44 43 42 40 40 39 37 34 28 23 21 22 23 24 22 22 22 22 23 23 24 24 27
72 92 88 79 71 64 59 56 46 34 31 35 33 43 65 46 42 46 49 48 50 51 48 46 43 44 45 43 41 41 40 41 40 38 31 29 24 23 24 24 25 24 23 23 22 23 24 27 30
60 81 88 82 70 59 58 60 50 38 33 33 31 40 56 48 39 43 47 47 48 47 49 50 45 41 41 42 43 43 42 42 43 42 38 34 30 28 27 26 26 25 25 25 26 27 28 28 29
64 60 64 75 69 60 61 63 56 45 33 31 30 34 41 40 38 40 43 44 44 43 44 44 45 44 39 40 42 41 41 41 40 39 40 39 37 34 33 31 28 26 25 27 28 29 30 31 32
69 58 41 54 69 64 58 61 59 46 36 31 29 32 37 37 36 35 35 38 39 42 41 42 43 44 45 45 43 40 37 38 38 40 41 40 43 42 39 37 32 28 28 28 29 30 31 32 35
62 61 53 49 60 61 57 55 50 44 37 34 31 35 35 35 35 34 35 35 34 37 40 42 41 40 40 41 40 38 39 40 40 41 42 42 45 47 45 41 36 33 30 30 30 30 32 33 37
61 61 64 55 50 53 54 49 46 44 42 41 36 33 32 37 38 36 36 38 37 34 37 38 39 37 38 37 37 39 41 43 44 43 44 46 46 48 47 45 44 42 38 37 36 36 37 38 38
57 65 67 66 58 51 51 48 47 42 44 40 37 33 31 30 32 36 38 37 39 42 36 35 35 35 34 37 38 40 43 45 47 47 45 45 47 46 45 46 48 51 50 45 43 43 43 41 39
69 63 72 68 64 62 53 53 43 44 42 38 35 33 30 30 29 30 32 38 41 42 42 35 34 35 34 35 36 38 41 43 42 43 44 45 46 47 46 46 46 51 53 51 52 51 50 49 44
82 65 74 66 69 70 64 54 49 45 44 37 35 32 31 29 27 28 29 31 34 45 46 50 40 37 35 33 32 35 38 40 40 39 38 37 40 45 48 50 52 52 54 58 54 56 60 57 53
84 81 64 64 63 71 69 59 53 50 46 41 36 33 31 29 28 26 25 26 30 32 35 41 44 42 37 34 31 30 33 34 37 39 38 36 38 39 43 47 50 53 52 54 59 61 62 61 62
72 73 57 54 57 62 66 62 55 50 50 45 38 34 31 29 27 25 24 23 23 25 29 32 34 36 40 38 38 32 33 34 32 34 36 38 38 40 41 44 46 50 50 52 53 57 62 64 63
65 68 58 50 54 61 57 66 57 51 50 47 43 38 35 31 29 27 24 22 22 22 23 24 26 27 27 33 40 40 34 31 33 31 34 36 42 43 42 41 45 49 52 50 52 57 61 60 62
79 76 59 56 56 56 54 52 57 50 45 44 40 37 35 33 30 27 25 23 22 20 20 19 18 19 22 23 25 32 30 29 27 27 28 31 35 39 44 44 42 45 52 54 56 58 64 66 67
75 69 61 56 58 54 51 49 48 50 42 39 37 32 30 28 25 24 22 20 19 18 17 17 16 16 16 17 18 19 23 24 26 22 21 21 24 35 39 49 53 50 52 51 55 60 59 66 73
79 65 67 62 58 57 49 41 40 41 40 35 31 29 27 25 23 22 22 20 19 17 16 16 16 16 17 18 19 19 20 23 26 25 23 25 25 26 30 43 49 51 52 55 61 68 61 66 69
75 67 61 60 57 56 52 48 33 40 41 36 29 28 29 27 27 26 24 23 22 20 18 18 17 17 16 16 16 17 20 22 26 31 36 37 35 34 35 34 39 44 50 53 58 63 65 65 65
80 77 65 62 64 71 54 46 43 39 34 36 36 34 32 32 31 30 30 28 26 24 23 21 20 20 18 18 17 17 17 18 20 23 28 31 33 35 38 38 37 39 40 42 46 53 60 66 72
88 83 86 85 81 68 44 51 42 37 34 34 34 34 36 34 33 32 29 27 27 25 24 22 22 21 20 19 18 19 18 18 19 22 25 30 35 34 36 38 45 43 42 45 48 50 55 60 65
89 81 83 69 71 59 51 52 39 38 37 38 39 38 37 38 35 32 31 29 28 27 25 23 23 23 23 22 22 22 22 22 23 23 25 28 35 41 44 46 44 46 45 44 45 47 52 60 68
94 94 75 71 55 64 53 43 39 36 37 37 36 36 37 37 35 34 33 32 32 31 31 30 30 30 29 29 29 29 28 27 27 28 30 31 31 33 36 38 38 37 37 37 40 44 47 52 60
96 88 86 80 73 62 51 47 41 38 37 37 38 38 38 40 40 37 36 35 34 33 32 32 33 33 34 34 35 35 35 35 35 33 31 31 31 29 26 27 29 31 32 35 39 43 45 51 56
96 96 84 73 64 74 53 44 36 36 37 38 40 42 43 44 41 40 38 37 37 37 36 35 35 35 35 36 36 35 35 36 36 35 32 30 27 27 29 30 31 33 36 39 45 51 54 60 67
81 80 82 89 71 68 70 53 39 37 38 40 41 43 46 45 43 41 41 41 40 40 40 38 36 36 35 33 31 30 30 30 28 26 25 25 27 27 27 30 33 37 40 47 52 53 56 65 71

GFSSGP_prec_cthk_069.txt.gz
RH
55 50 47 45 43 40 35 32 30 28 24 22 20 21 28 37 45 43 42 42 38 32 30 35 37 37 38 37 32 28 28 30 30 29 30 28 24 19 17 20 31 33 31 28 19 15 16 16 17
64 58 55 52 51 47 37 32 31 28 26 23 19 21 27 39 38 41 41 44 41 32 32 39 40 38 40 39 36 31 29 30 29 29 27 24 19 20 19 24 32 34 33 29 24 17 15 13 16
73 66 63 59 56 49 39 35 34 28 27 25 21 19 30 38 38 41 39 46 46 33 33 40 42 40 40 39 36 35 33 30 29 25 23 20 23 20 22 25 31 32 30 27 24 19 16 14 14
79 75 71 66 57 44 43 39 37 32 29 28 26 27 34 37 37 41 39 44 44 37 36 40 41 41 41 38 37 35 36 32 22 21 21 20 23 21 24 24 28 29 25 23 24 18 16 16 17
78 79 82 68 56 46 49 46 39 35 32 30 30 37 37 37 35 39 41 45 44 42 39 40 40 41 40 39 38 37 35 34 28 22 20 23 24 21 24 23 23 26 25 25 23 19 17 18 20
85 84 89 70 58 50 56 50 46 36 35 32 36 45 48 43 37 41 46 43 45 45 43 40 42 43 42 40 39 39 36 33 29 25 22 21 26 23 21 21 25 26 25 24 22 20 19 21 23
79 89 89 74 65 62 61 53 48 42 37 34 38 50 54 51 47 51 52 49 48 52 49 43 43 46 43 41 40 39 37 33 28 28 26 22 23 23 21 21 21 22 22 21 21 21 22 24 26
86 91 87 86 80 71 63 63 51 43 38 36 41 49 55 58 51 52 55 51 53 55 53 46 41 44 44 40 40 39 38 38 35 29 29 25 24 23 23 23 23 24 23 23 22 22 23 24 25
89 97 95 86 82 71 69 69 57 50 42 37 44 44 50 55 57 53 57 51 51 53 51 46 42 43 42 41 39 39 39 40 37 35 36 32 27 25 25 26 29 27 24 24 24 24 25 26 27
78 77 73 75 76 81 81 71 61 55 45 42 41 41 51 53 57 55 52 50 50 46 48 50 47 43 40 38 37 38 39 38 37 40 38 35 34 32 30 29 31 32 29 26 26 26 26 27 28
79 64 60 67 80 84 82 72 69 59 53 43 38 35 39 43 49 52 49 46 46 44 41 43 43 41 40 39 39 37 36 35 38 38 37 37 38 38 37 37 36 36 34 31 29 27 27 27 28
72 71 68 59 71 83 79 71 67 60 57 48 37 34 37 40 41 45 48 46 45 42 43 38 38 36 35 38 41 38 35 35 35 36 38 38 38 40 42 42 42 41 40 37 33 30 30 30 30
69 73 69 69 61 67 77 69 65 59 57 47 44 41 40 40 41 39 40 42 43 41 39 41 38 37 33 32 33 32 35 38 38 35 39 42 39 38 40 42 41 41 42 43 44 42 37 34 35
61 69 75 74 63 56 63 63 60 59 57 51 47 42 38 38 40 41 41 39 40 40 39 40 40 39 37 36 35 32 32 36 39 37 39 43 43 39 41 41 40 41 44 44 48 50 49 48 45
72 64 73 69 65 61 48 55 57 56 52 51 47 42 37 35 33 32 37 40 40 39 40 41 40 41 38 37 34 33 34 34 36 38 36 38 39 39 40 42 41 41 44 47 46 48 52 53 52
79 72 74 65 63 63 56 48 50 55 50 47 43 41 39 34 32 30 32 33 39 42 40 40 43 42 41 39 38 36 34 33 34 36 37 36 35 36 36 36 38 42 45 48 50 50 50 51 54
78 88 71 62 58 60 62 55 51 48 48 42 42 38 36 34 31 29 28 29 34 35 37 36 37 38 42 47 44 40 38 35 34 33 33 33 34 36 37 36 35 38 41 44 49 52 52 52 53
69 70 70 65 53 55 60 63 60 52 49 45 43 40 35 34 32 30 29 28 27 28 32 38 37 35 35 36 37 38 41 40 42 41 38 38 36 36 38 38 40 42 45 45 46 49 54 56 56
61 76 74 66 59 53 53 60 69 63 54 50 47 43 37 34 33 31 29 27 26 25 25 27 34 38 36 32 32 33 32 38 46 42 42 43 44 42 45 42 42 43 47 49 51 54 56 58 59
68 68 66 65 62 57 52 55 62 64 58 51 49 46 42 37 33 31 29 27 26 26 26 25 25 26 28 28 29 28 30 29 29 30 32 36 37 39 41 47 47 47 53 57 59 64 69 67 63
69 68 67 62 62 61 52 56 56 55 56 54 49 45 43 40 36 34 31 30 29 27 25 23 22 22 21 22 21 20 19 19 20 22 23 24 27 29 33 37 42 47 51 53 64 60 59 61 63
70 68 73 64 65 71 54 57 44 48 49 50 50 45 40 39 37 34 32 29 27 24 21 19 18 18 19 19 18 18 19 19 18 21 26 26 25 25 27 30 33 36 43 49 55 60 67 69 69
70 74 75 70 72 68 59 59 41 42 45 43 44 43 37 36 34 32 29 25 23 22 21 19 18 17 17 17 17 18 19 21 22 23 24 27 32 34 33 33 32 39 46 49 50 55 56 61 67
82 77 77 77 82 88 59 56 44 42 36 39 41 41 37 36 34 31 29 26 24 24 22 20 20 20 19 18 17 17 17 17 17 19 21 25 29 31 31 30 30 34 41 46 47 47 49 52 57
88 95 96 96 95 77 55 60 40 41 34 34 40 44 40 38 34 31 30 30 28 28 27 26 24 22 21 20 19 18 17 17 17 17 18 20 24 27 29 32 34 36 41 48 49 48 50 53 53
98 88 84 84 85 72 54 59 44 37 38 36 36 35 41 39 36 34 32 30 28 28 28 25 24 23 21 21 21 20 20 20 20 19 20 22 25 30 34 38 38 38 40 42 38 37 37 42 47
98 95 75 78 70 72 54 44 38 39 41 41 42 38 40 41 38 37 34 33 32 30 29 28 27 27 27 27 26 26 25 25 25 25 25 27 29 31 31 34 36 35 32 33 33 35 35 39 40
97 90 88 92 84 76 60 47 43 41 42 38 42 45 45 41 39 37 37 36 34 32 31 30 29 28 29 29 29 29 30 30 31 32 32 32 31 31 30 27 25 25 27 29 33 34 36 39 43
94 96 89 80 78 83 64 51 41 41 42 40 41 42 42 44 42 40 39 38 37 36 34 33 32 32 31 30 31 31 31 31 31 31 33 33 30 27 24 24 26 26 28 30 31 34 37 43 46
91 93 87 87 79 74 76 59 42 41 44 44 43 44 45 45 47 45 44 42 41 40 40 38 36 36 34 32 31 30 29 28 28 28 26 24 22 23 25 26 26 27 30 34 38 43 46 48 49

GFSSGP_prec_cthk_072.txt.gz
RH
57 46 41 40 40 39 35 29 25 21 23 24 29 34 37 43 48 48 46 43 41 34 32 29 30 35 37 34 30 26 26 26 26 26 25 23 21 18 19 32 33 30 25 17 15 16 16 16 17
65 54 47 46 48 44 35 30 28 24 22 21 23 32 37 45 47 44 41 41 38 34 31 31 33 37 38 38 34 30 26 26 26 27 23 20 18 17 22 31 34 30 26 20 15 13 13 16 15
68 64 56 53 52 44 37 34 31 26 26 22 22 25 34 40 44 41 41 41 41 36 33 34 36 39 40 39 36 35 32 27 25 22 21 18 18 19 22 28 32 28 24 21 16 14 13 14 15
69 73 65 63 54 40 39 37 34 29 27 24 27 29 33 35 38 41 39 41 43 39 33 38 39 42 42 40 38 37 35 30 24 21 19 19 17 20 21 25 26 24 22 23 17 14 14 15 17
70 75 79 68 54 46 46 41 38 34 30 28 27 34 34 37 35 36 37 42 44 38 37 39 41 43 43 41 38 37 34 31 26 23 20 18 18 22 21 23 21 21 23 23 18 17 18 18 20
75 74 84 73 55 52 51 48 42 34 31 33 35 35 37 38 33 35 39 46 46 38 38 39 42 45 43 41 39 38 33 32 27 25 29 25 20 20 20 19 20 23 24 21 19 19 20 22 23
71 74 78 73 61 60 59 57 47 40 34 33 38 44 43 41 36 36 41 48 50 46 38 38 41 44 43 42 40 39 37 34 29 27 28 31 25 22 22 23 24 24 22 20 19 19 20 22 23
87 83 82 79 75 66 70 61 52 45 39 39 39 47 48 47 44 43 47 46 52 50 46 40 44 46 45 44 41 40 38 37 33 29 26 26 25 24 25 24 26 28 23 21 21 21 22 24 24
94 94 90 82 84 74 71 70 59 50 43 40 40 41 45 50 52 51 54 56 54 54 54 50 47 45 44 44 43 40 38 39 36 35 34 30 28 27 26 27 27 28 29 28 25 23 24 25 26
92 97 81 75 75 85 81 76 68 60 51 51 43 46 50 53 54 56 54 55 57 57 55 49 47 44 41 43 43 40 38 38 36 37 36 35 35 32 30 30 30 32 31 30 30 29 27 26 27
79 85 80 79 85 88 88 82 72 63 55 52 47 46 51 57 60 57 61 59 56 54 51 52 51 47 44 42 41 38 34 36 36 36 36 36 37 37 35 35 35 36 37 36 36 35 35 34 30
83 77 79 84 90 89 92 89 76 64 55 53 45 40 43 51 59 62 60 59 56 51 48 46 44 42 40 39 39 38 37 36 33 35 35 36 36 38 40 40 38 36 36 37 37 39 41 41 40
80 78 78 78 79 79 86 93 88 70 64 59 51 44 42 44 51 57 60 59 58 50 46 45 42 39 36 34 34 34 33 32 34 35 34 34 36 39 40 40 39 37 36 37 38 39 40 44 46
66 76 80 75 71 76 81 85 88 74 68 66 60 53 46 47 48 47 50 53 53 52 43 40 38 37 36 35 33 32 30 30 31 35 37 37 39 41 41 40 39 40 38 39 38 41 43 44 46
75 77 78 76 72 72 73 85 82 76 69 65 63 54 45 43 46 46 46 45 46 46 45 40 38 36 36 35 34 33 32 30 31 33 35 35 34 36 36 37 38 41 41 43 44 45 45 48 49
79 81 87 71 73 70 68 69 69 70 68 65 60 55 44 38 37 38 40 41 43 46 45 46 44 42 40 40 39 38 36 33 32 32 33 34 34 33 31 30 31 35 36 37 39 44 48 48 50
73 81 72 68 65 66 65 61 63 61 58 60 59 55 49 40 37 34 33 33 34 38 40 41 45 45 43 45 46 45 46 43 41 38 36 36 35 35 34 32 31 36 37 39 41 42 44 45 46
65 72 70 64 60 62 64 63 59 55 50 51 54 51 47 42 37 36 33 30 30 33 32 33 35 39 42 45 45 44 42 42 43 42 42 43 44 45 42 42 41 43 44 42 42 45 48 52 54
58 63 66 68 62 60 61 61 63 59 49 47 50 46 42 41 36 33 32 30 29 28 28 31 33 34 35 35 37 39 41 42 44 44 47 48 48 51 51 47 43 43 43 44 53 55 59 63 65
54 62 64 62 64 67 62 58 56 59 59 53 49 47 43 42 38 34 31 31 30 29 28 27 28 29 33 35 35 33 34 34 37 39 41 42 41 44 41 43 44 46 50 52 54 58 58 64 68
60 59 60 62 61 59 63 60 55 49 55 57 52 51 47 44 42 39 34 32 31 30 29 28 28 27 26 26 27 28 26 25 23 22 23 25 28 32 35 33 32 32 32 33 41 43 51 62 66
73 64 62 59 63 67 59 66 47 45 46 53 53 51 50 48 42 41 39 35 34 32 30 27 26 25 25 25 25 25 23 21 20 19 19 19 21 23 25 27 27 28 31 33 35 40 52 59 64
67 68 64 65 66 62 59 65 46 40 43 41 46 50 49 50 47 42 40 37 35 32 29 26 24 22 21 20 19 19 19 19 19 19 20 21 23 25 27 29 38 44 38 38 39 42 50 55 55
76 70 71 73 77 79 62 67 48 40 33 36 41 47 47 47 47 44 42 40 36 32 30 27 28 28 25 23 20 18 18 18 18 19 19 19 20 22 26 27 29 28 29 34 37 39 44 49 50
78 77 90 91 90 79 65 71 39 37 32 34 39 42 46 47 47 46 42 39 34 30 30 29 25 23 23 21 21 20 20 19 19 18 18 18 18 20 23 26 28 30 33 35 37 40 41 44 43
81 80 82 86 84 73 66 65 43 37 32 35 40 42 47 47 48 46 40 36 33 29 28 26 25 25 26 25 24 22 21 21 20 19 19 19 19 21 23 27 31 34 36 36 38 37 36 34 35
83 83 84 78 73 77 63 52 41 39 35 36 43 42 44 47 49 46 41 37 31 29 28 27 27 28 28 27 26 25 25 25 25 24 24 24 24 24 26 29 31 33 35 34 32 30 31 29 32
85 93 97 88 81 75 63 59 47 40 38 38 42 42 44 45 43 45 41 36 34 34 33 32 31 30 29 29 29 28 28 28 29 29 29 29 30 31 32 31 31 29 26 24 25 26 28 31 34
88 96 93 81 74 79 69 58 46 39 36 39 45 51 53 53 45 43 42 41 40 38 37 36 35 34 32 31 31 31 30 29 29 29 30 31 31 32 32 29 24 23 24 24 25 26 29 31 34
85 91 85 86 81 76 79 61 48 44 45 44 45 52 51 53 52 48 47 44 41 40 40 39 36 35 34 34 33 32 31 30 28 27 26 26 26 25 23 23 24 24 24 25 27 32 37 39 43

GFSSGP_prec_cthk_075.txt.gz
RH
52 50 48 39 39 39 36 28 23 25 31 38 43 43 39 49 45 45 43 41 39 37 34 29 30 33 34 31 27 25 25 26 25 23 22 20 18 17 29 32 26 22 16 14 15 15 16 17 17
63 55 52 46 46 46 37 27 26 22 26 36 43 47 43 51 51 46 42 43 39 35 34 29 30 34 35 34 30 27 25 25 26 20 19 17 17 19 29 32 26 22 17 13 12 14 15 16 16
74 67 58 57 52 47 36 30 31 26 25 28 33 43 44 47 51 44 42 40 38 31 31 30 31 36 36 35 34 31 31 27 22 19 18 17 17 20 24 25 24 22 18 14 13 12 14 16 16
78 74 68 69 54 42 37 36 36 32 29 26 29 37 43 45 45 44 41 40 39 34 34 33 35 39 39 37 36 35 34 29 24 20 17 17 19 20 23 23 23 22 19 17 15 15 15 16 16
78 71 77 71 57 43 40 44 41 35 32 29 28 35 39 42 42 45 46 43 39 35 37 34 37 41 41 39 37 36 33 29 28 24 21 18 20 21 23 22 21 21 21 19 18 18 18 20 21
71 73 78 73 60 43 46 48 45 39 33 35 32 34 35 37 38 42 45 45 44 36 39 36 38 43 43 42 39 37 34 31 28 27 30 26 26 24 22 22 20 21 22 19 18 18 19 21 22
71 64 68 67 58 52 53 52 50 42 35 33 36 39 37 36 35 38 42 44 44 40 37 39 39 44 45 45 41 38 35 32 29 28 34 31 26 28 25 24 27 28 23 20 19 20 21 22 22
75 67 70 71 66 63 62 55 57 47 38 40 41 44 40 35 35 39 41 45 46 44 39 37 39 44 45 45 43 40 38 35 31 29 28 27 26 27 26 26 26 27 27 25 25 22 22 23 23
77 77 69 69 75 68 65 64 60 52 43 43 42 41 39 38 40 41 40 43 49 51 45 38 39 44 45 45 44 42 41 38 34 33 31 28 27 27 27 27 27 27 28 28 29 30 30 29 26
95 80 63 67 73 69 70 73 67 57 46 46 47 45 46 43 44 47 45 45 50 52 51 46 45 47 47 46 45 43 42 40 36 35 35 34 31 29 29 30 31 32 32 33 33 33 33 33 35
74 80 73 83 85 80 77 78 73 64 49 49 59 48 49 48 50 49 52 55 55 57 54 51 54 51 47 44 44 44 42 39 35 35 35 36 36 37 34 35 34 34 34 33 34 35 36 37 38
67 81 86 92 92 84 85 86 78 68 56 53 58 59 50 50 52 53 55 58 56 56 55 55 53 53 50 47 44 42 39 36 33 34 33 35 36 36 36 37 37 36 35 34 33 34 36 37 39
66 74 87 95 89 90 89 85 89 72 61 53 53 61 55 52 58 60 60 61 61 57 53 52 49 47 46 44 39 38 37 35 34 33 33 33 35 36 36 36 37 37 35 34 33 34 35 36 38
70 77 82 81 90 85 91 90 92 75 68 60 56 55 53 51 52 59 64 64 61 60 56 54 49 46 43 40 37 35 34 31 30 31 32 34 37 40 40 40 39 40 39 39 39 38 37 38 39
74 77 81 83 87 89 92 97 93 78 75 71 70 64 54 49 51 53 56 59 59 59 59 53 50 46 41 38 37 36 35 33 31 32 34 34 35 36 37 37 37 36 36 37 38 39 40 43 46
83 76 80 76 82 86 89 84 87 85 79 73 73 70 63 55 50 49 51 52 56 60 56 54 49 46 42 40 39 39 38 36 34 34 34 34 33 33 33 32 32 34 35 36 37 40 42 43 44
81 77 71 70 71 75 79 74 83 84 82 74 72 69 65 56 49 44 44 46 48 50 50 49 49 45 43 42 42 42 43 42 41 40 38 38 36 35 34 33 36 39 38 40 41 42 45 45 48
80 76 72 73 70 73 75 74 76 79 77 73 70 67 65 60 49 44 41 40 40 40 40 43 44 44 45 45 44 43 42 41 41 40 41 42 41 43 44 46 50 53 51 47 42 42 42 45 51
65 68 71 71 71 75 77 76 75 74 75 66 65 62 60 58 54 46 41 40 36 33 34 34 36 40 45 45 42 42 41 44 42 41 41 43 46 48 52 54 54 54 50 47 48 52 53 53 55
60 61 65 68 71 74 75 75 74 72 66 62 60 56 52 55 50 46 39 37 35 32 31 31 31 31 32 33 36 38 38 39 38 40 45 45 43 46 48 49 46 45 46 44 42 42 43 43 45
59 62 66 66 66 72 73 73 65 56 58 57 53 46 44 46 44 43 44 38 35 33 32 31 30 30 29 29 28 29 30 31 32 32 32 32 34 36 38 37 41 43 35 32 32 34 37 39 41
63 58 60 60 67 73 66 71 55 48 52 50 47 46 47 47 45 42 42 42 40 36 34 33 31 29 28 27 27 27 27 26 27 27 26 26 26 25 24 25 27 27 27 29 30 34 37 41 44
65 64 61 61 61 64 59 64 48 47 45 39 41 45 49 52 48 47 45 44 42 41 38 35 33 30 29 27 26 24 24 25 25 25 23 22 22 22 23 24 26 27 29 33 39 40 38 36 37
68 67 68 69 68 72 60 61 47 41 38 37 35 38 46 51 51 50 49 48 46 42 39 37 35 31 28 25 23 24 23 23 23 22 20 21 21 21 22 23 25 28 28 29 29 28 32 36 40
76 76 86 84 82 75 58 59 39 33 33 35 34 34 41 46 50 51 49 51 50 46 42 37 33 30 28 26 26 27 26 26 25 22 19 19 20 19 20 21 23 26 29 31 35 37 37 41 43
77 74 82 76 78 72 64 56 39 33 36 36 35 34 35 41 45 50 50 50 50 48 44 41 38 34 32 31 30 27 24 23 22 22 22 21 20 20 20 21 24 27 30 34 37 41 42 42 39
81 86 73 72 69 73 58 43 36 36 36 39 37 35 37 39 47 48 49 49 49 48 42 39 36 33 32 31 28 25 25 26 25 25 24 24 24 24 24 24 25 26 30 34 37 39 40 36 33
74 78 85 83 81 77 60 57 44 41 42 39 40 37 39 46 49 51 52 52 49 46 42 38 34 31 30 29 29 30 30 30 29 29 28 29 29 29 30 31 31 32 32 32 31 28 26 26 27
78 79 82 81 74 74 66 53 46 46 44 42 41 40 42 49 55 52 49 48 46 45 43 40 36 33 32 31 31 31 31 31 31 30 30 29 29 30 30 31 32 32 30 25 24 24 24 25 27
81 77 80 82 78 77 72 57 47 48 47 46 42 46 48 55 53 53 49 43 42 45 42 39 39 39 38 37 36 36 35 33 31 30 29 28 27 26 26 27 26 24 24 26 26 26 28 31 36

GFSSGP_prec_cthk_078.txt.gz
RH
53 46 45 47 43 41 35 27 26 35 40 42 45 48 44 46 52 48 47 40 40 36 33 32 31 32 31 28 27 26 25 25 23 23 21 19 18 25 25 23 19 15 13 14 15 18 18 19 18
56 50 45 49 52 48 37 28 24 30 36 45 45 51 50 51 49 50 45 43 40 37 34 31 31 33 33 30 28 25 24 24 22 20 18 17 18 25 26 22 19 15 13 12 14 15 16 16 17
60 55 49 49 57 53 36 29 29 27 29 44 43 49 54 52 52 51 47 43 40 35 32 30 31 34 34 33 30 29 27 25 20 18 17 16 19 23 24 23 21 18 14 13 13 15 15 16 16
66 63 55 56 52 50 38 33 34 30 26 32 38 49 53 52 54 52 47 42 40 34 32 33 32 35 36 34 33 32 33 28 23 20 17 18 19 22 24 23 23 19 17 15 15 16 17 17 18
69 65 70 61 53 49 45 37 38 34 30 27 38 44 50 52 51 52 47 43 39 36 35 36 34 37 38 36 35 35 32 31 28 25 21 21 21 22 26 23 21 19 18 16 16 17 18 19 21
57 69 68 64 56 52 49 42 42 37 33 29 36 41 44 50 51 50 48 42 40 34 37 37 37 38 39 38 39 37 32 29 28 27 28 26 24 26 26 25 24 23 20 18 17 18 19 20 21
63 84 53 54 60 60 53 50 47 44 39 34 39 41 40 45 48 50 48 45 42 37 37 39 38 40 41 43 41 37 34 32 29 28 28 27 31 30 27 25 25 26 26 23 21 20 20 21 22
61 62 67 61 59 65 60 57 50 49 41 38 46 43 37 39 44 47 49 46 45 41 39 37 39 42 43 46 45 40 35 34 31 30 29 26 26 27 28 28 27 28 27 26 26 26 28 28 29
65 64 65 62 62 64 65 63 56 53 45 40 46 43 39 37 40 43 47 46 42 39 39 39 39 40 44 46 45 43 40 38 35 33 30 28 28 27 28 28 28 29 29 29 30 30 30 32 32
76 67 60 60 61 67 71 68 64 57 50 50 50 51 48 43 41 42 41 41 43 41 39 41 39 42 46 45 46 44 42 40 39 36 32 30 29 29 30 31 31 32 31 31 31 30 30 31 34
70 67 65 68 65 68 72 75 70 66 57 54 49 51 60 55 46 46 42 41 44 48 46 43 41 40 46 47 47 46 43 42 41 37 34 35 33 33 32 32 32 32 32 31 31 30 30 31 33
66 68 71 77 68 68 74 76 73 71 63 58 50 50 58 60 55 54 48 51 49 50 48 47 47 49 49 48 48 47 45 43 40 36 34 34 33 33 33 33 33 33 32 32 31 31 32 32 34
62 62 73 78 77 74 73 80 79 71 66 60 54 54 58 61 62 58 57 59 58 57 54 53 54 55 54 51 48 48 44 41 38 35 34 33 32 34 35 36 37 37 36 34 33 32 33 34 34
63 62 70 86 83 84 76 81 86 71 68 65 60 57 59 63 64 64 62 60 59 59 58 56 55 55 54 52 49 45 41 38 34 32 32 32 33 36 40 40 39 39 40 38 36 36 36 36 37
65 67 66 70 76 89 91 90 88 80 77 70 63 61 66 63 66 66 64 63 63 60 60 58 58 56 54 51 48 44 41 37 34 32 32 33 34 35 36 37 37 37 37 36 34 34 33 36 38
77 69 73 70 77 85 89 91 84 85 84 76 69 64 64 62 62 60 64 65 69 66 63 63 59 56 54 51 48 44 41 39 38 36 34 35 35 35 34 34 35 36 35 36 38 39 40 39 40
76 74 68 72 73 82 85 84 84 87 89 83 76 73 68 65 64 61 60 58 63 68 67 65 61 58 56 53 49 46 45 42 42 43 42 41 40 41 40 36 35 38 39 43 46 49 46 45 44
73 72 72 69 69 75 80 77 84 87 88 87 81 77 71 68 65 61 56 51 53 56 58 61 61 59 58 54 50 47 44 43 43 44 44 45 45 45 43 40 42 47 52 52 54 53 52 47 47
70 72 76 71 72 77 81 82 85 87 89 90 81 76 69 67 64 57 51 47 44 44 47 48 49 48 48 48 46 45 42 41 42 43 44 45 44 41 42 46 49 52 55 54 54 52 52 48 48
64 70 74 76 77 78 78 80 79 77 74 83 81 75 68 65 64 60 53 48 45 42 40 40 41 39 39 38 38 40 41 41 40 42 43 46 46 48 51 50 49 50 44 40 41 45 41 36 35
60 63 71 75 76 78 75 74 71 65 70 73 74 68 64 60 58 60 55 51 44 40 38 37 36 34 33 32 34 36 35 34 33 33 35 36 37 39 38 36 36 38 38 36 35 34 32 31 33
57 57 59 67 77 82 71 75 63 62 65 65 61 61 58 57 56 56 56 54 47 40 37 36 34 33 33 32 31 30 29 28 28 28 30 31 30 29 28 28 28 28 28 29 29 30 32 34 37
53 53 56 60 69 68 64 71 52 50 51 49 55 56 56 53 49 47 48 48 46 46 45 41 38 37 34 32 30 29 28 27 26 26 26 26 26 26 25 25 24 24 27 29 30 34 37 39 36
62 56 59 65 67 74 62 69 55 45 40 39 43 49 51 51 51 50 51 50 46 44 44 44 42 40 37 35 32 30 27 25 24 23 23 23 23 23 24 25 22 23 24 27 31 31 32 31 34
67 66 75 74 75 71 55 62 44 37 35 36 38 38 40 45 49 48 50 54 52 50 47 46 46 42 40 37 34 31 29 27 25 24 25 24 24 24 24 21 20 21 22 25 29 31 33 35 36
72 71 75 71 73 67 55 60 39 32 33 33 34 34 35 35 38 42 49 55 57 55 53 51 48 46 42 38 36 34 32 31 29 28 28 27 26 23 21 21 21 23 25 27 30 33 36 39 41
86 87 77 78 70 70 54 43 33 30 32 33 32 32 30 32 35 40 46 53 55 56 55 52 49 47 43 42 40 37 34 33 32 31 29 24 24 24 24 25 24 25 25 27 30 33 38 43 43
83 79 84 85 85 77 57 50 41 31 35 37 38 36 36 34 36 40 43 48 53 56 53 50 48 49 47 43 40 38 35 34 33 31 28 29 29 28 28 28 28 29 30 31 32 33 35 35 31
88 84 81 76 77 72 63 45 35 39 40 39 39 36 37 38 41 45 48 51 54 55 52 49 48 48 48 44 40 37 35 33 30 29 29 29 29 30 30 30 30 29 30 31 32 30 26 26 26
77 78 80 80 75 74 70 46 41 42 47 46 43 42 41 44 47 51 52 55 54 51 48 49 48 48 48 45 42 36 33 31 31 31 31 32 32 31 28 26 25 25 25 25 25 26 27 28 30

GFSSGP_prec_cthk_081.txt.gz
RH
57 53 51 49 43 38 31 28 33 39 42 44 46 46 45 52 54 50 49 43 42 40 38 35 33 31 28 27 30 29 26 26 24 22 19 18 25 22 20 17 13 13 13 14 15 17 17 17 16
58 57 53 52 50 44 34 28 27 34 39 46 48 53 50 50 53 53 48 43 41 40 38 34 33 33 29 26 25 25 24 23 22 18 17 19 24 23 20 17 14 12 12 13 14 15 16 15 15
58 59 54 51 53 47 38 31 29 28 35 46 46 50 54 52 50 53 47 44 41 37 35 35 33 35 33 29 27 25 23 24 19 17 16 19 23 23 21 18 16 13 12 13 14 15 16 15 15
60 61 57 51 47 46 44 38 32 28 29 41 44 51 54 53 55 54 51 45 42 36 33 35 35 35 34 32 30 30 29 26 21 18 18 20 23 23 21 20 18 16 15 16 16 17 18 18 19
62 58 59 53 47 44 47 45 36 32 28 33 43 47 54 54 54 58 54 47 44 37 38 36 35 36 35 34 34 34 29 29 26 22 21 22 24 27 24 21 18 17 16 16 16 16 18 18 20
68 59 58 52 46 45 43 49 42 37 32 28 38 47 52 55 55 63 57 49 45 40 38 37 35 37 37 37 37 36 30 28 26 26 26 26 27 29 27 24 23 22 21 19 18 18 18 19 20
71 61 53 54 54 49 46 48 48 43 36 33 37 43 49 54 58 59 60 53 46 41 39 38 37 38 39 40 41 37 32 30 27 27 26 27 30 32 28 25 24 25 25 24 24 25 26 26 25
78 67 61 61 57 52 53 51 52 51 41 40 44 42 46 51 55 57 59 56 50 44 40 39 40 39 40 43 44 41 35 33 29 29 27 28 27 29 28 27 28 28 27 27 27 27 28 29 30
75 91 78 54 51 56 56 53 55 55 48 46 50 47 45 48 55 56 58 58 52 45 41 40 40 41 40 43 45 45 40 37 33 33 31 29 28 28 28 28 28 28 29 29 29 29 29 30 32
84 82 64 55 62 55 59 58 59 59 55 50 50 48 48 51 52 52 54 55 57 49 44 41 39 42 42 43 46 45 43 41 37 37 34 31 30 29 28 29 29 29 29 29 28 28 28 29 31
76 75 60 62 66 56 59 64 64 62 60 56 53 50 51 52 57 52 52 52 55 55 49 43 43 43 44 43 46 46 45 43 41 40 37 34 31 31 30 29 29 30 30 29 29 29 29 29 30
73 72 73 65 54 54 57 65 66 65 65 61 54 51 51 56 57 54 54 50 48 50 47 42 43 44 45 45 47 48 48 46 43 42 37 35 33 32 32 31 30 30 30 31 30 29 29 30 30
66 73 74 74 57 55 58 65 71 68 68 63 60 54 54 59 63 66 64 56 51 47 48 49 49 45 44 47 50 51 51 47 43 40 37 34 33 32 32 33 34 35 36 34 32 31 31 31 32
60 68 80 72 68 61 61 63 68 70 66 66 63 60 57 58 61 66 65 62 57 56 49 47 48 52 53 53 52 51 49 48 46 40 36 33 31 32 35 37 38 36 37 37 37 36 37 36 35
60 67 67 70 70 70 65 64 63 71 71 69 66 65 61 59 61 64 67 66 68 66 64 56 55 55 58 59 57 56 54 49 43 35 32 33 35 35 36 36 37 37 36 36 36 36 36 36 38
65 66 68 61 63 67 65 56 55 69 74 72 70 71 64 63 61 62 70 73 73 69 62 61 59 59 58 57 56 54 51 47 42 38 35 36 38 37 36 36 37 37 36 35 35 37 40 42 45
86 74 63 64 59 66 70 64 61 64 74 75 74 73 67 62 62 63 68 74 76 74 67 62 59 59 60 59 57 55 52 47 45 43 42 42 42 41 41 41 43 42 39 38 41 46 48 49 50
80 75 64 63 65 64 70 67 72 69 72 81 76 73 67 64 65 65 66 70 74 75 75 68 66 63 62 60 57 55 52 49 47 46 45 46 45 46 45 45 46 46 44 47 50 54 56 51 48
65 64 63 62 62 63 63 64 67 71 71 77 78 74 70 67 66 64 63 64 65 68 69 69 68 70 68 65 60 57 53 51 48 46 47 47 45 47 46 47 51 53 56 56 52 49 47 41 41
64 66 70 68 66 68 66 65 64 71 70 77 86 78 75 73 67 64 62 58 59 59 59 57 58 59 59 57 54 51 49 46 44 44 43 42 43 46 50 51 52 55 57 55 44 42 39 37 34
69 67 70 70 68 70 69 68 66 68 69 71 77 79 75 72 68 63 63 60 56 54 52 49 48 50 49 46 43 40 37 34 34 34 35 35 35 36 36 36 36 37 35 33 34 34 33 32 29
62 61 65 66 69 77 68 73 62 62 65 61 66 78 73 71 71 67 63 63 60 55 50 46 41 41 40 38 37 35 34 33 31 30 31 31 31 31 31 31 29 28 27 27 26 30 29 30 30
56 58 59 60 65 68 71 76 56 56 57 58 63 72 75 73 71 69 67 63 60 58 55 50 46 40 37 35 34 32 31 30 29 28 28 28 27 28 28 27 26 25 23 25 28 32 30 32 33
55 57 62 65 61 68 61 64 53 48 47 50 58 63 67 75 67 65 64 62 59 56 54 51 49 48 46 43 39 35 33 31 30 28 26 26 25 24 24 24 25 25 25 26 28 29 31 34 32
66 60 69 72 72 66 54 60 45 41 41 44 48 53 58 62 60 59 59 54 54 53 53 53 52 51 49 46 43 40 38 37 34 31 28 27 26 25 24 24 24 24 24 25 22 24 30 34 33
71 65 64 66 66 58 49 53 37 33 37 39 42 44 45 48 52 56 54 53 52 50 52 52 51 49 49 47 46 43 38 37 36 34 32 30 28 27 27 27 27 26 23 22 24 28 31 34 37
73 76 65 69 66 63 49 48 33 29 30 32 33 33 36 38 39 42 48 50 51 50 52 55 57 55 52 49 46 45 42 40 39 37 36 34 33 31 31 30 27 25 26 27 28 30 34 35 37
82 74 78 81 82 74 57 52 39 32 33 35 34 33 32 31 31 33 38 43 48 48 50 55 58 56 54 50 48 47 44 42 41 41 39 38 35 33 32 29 27 28 29 30 31 32 33 34 36
90 88 86 79 78 74 66 48 38 35 34 35 37 37 36 32 32 34 37 39 44 50 53 54 53 53 52 50 47 46 47 46 42 39 38 35 33 31 29 26 27 28 31 31 30 30 31 32 29
84 83 83 83 77 77 69 52 39 37 38 44 46 44 42 38 37 40 42 45 47 49 51 52 51 53 52 51 49 47 46 47 45 39 35 33 30 29 28 28 28 28 27 26 26 25 24 25 28

GFSSGP_prec_cthk_084.txt.gz
RH
52 51 50 47 38 33 28 28 36 41 42 44 47 47 51 55 56 55 54 50 47 46 41 36 30 31 30 29 30 29 26 24 22 20 19 21 20 17 14 13 13 12 13 14 16 17 17 15 14
54 54 55 52 44 36 29 26 29 38 41 44 48 48 46 52 60 59 53 49 47 47 43 37 30 32 32 29 28 25 24 21 19 18 20 24 22 19 16 13 11 11 13 13 14 15 15 14 13
56 57 59 54 47 40 33 28 28 32 40 47 47 51 53 52 58 62 55 49 49 46 42 39 33 33 34 29 26 24 22 20 18 17 20 22 23 20 18 15 13 12 13 14 14 15 15 15 16
61 61 59 56 47 45 40 34 29 27 34 42 49 53 57 56 57 62 55 52 51 46 39 35 34 33 34 31 28 26 26 21 18 17 20 22 23 21 19 17 15 15 15 16 16 16 17 18 19
64 61 58 53 49 50 45 41 34 29 28 39 48 53 58 60 57 61 59 55 55 50 45 38 36 36 35 34 31 31 30 27 22 20 22 24 26 23 21 18 17 15 15 15 15 15 17 18 19
65 59 54 48 50 51 51 47 40 34 28 33 44 52 56 59 62 65 63 59 56 52 46 44 38 38 36 36 36 35 30 28 26 25 25 27 29 27 24 23 23 21 20 20 20 21 21 21 21
70 55 45 46 55 53 49 50 47 42 32 33 38 49 57 59 63 67 66 60 57 53 49 45 43 40 38 39 40 37 33 29 29 27 28 30 33 29 28 26 25 24 24 24 25 26 27 28 29
73 70 52 54 53 51 49 48 50 47 43 40 40 46 54 61 62 68 70 62 57 57 53 49 49 45 41 41 44 41 36 32 32 31 30 29 31 28 28 27 27 27 27 27 27 28 29 29 30
78 80 69 53 52 53 55 47 50 50 52 47 42 41 43 54 61 66 73 66 58 55 56 52 51 50 47 44 45 45 41 38 35 35 32 31 32 30 29 28 28 28 28 29 28 28 28 29 30
79 83 64 58 52 57 58 53 51 49 53 55 45 42 43 47 57 66 68 69 62 58 54 53 51 49 50 47 45 48 44 42 41 38 35 36 32 31 29 28 29 28 29 29 28 28 28 29 30
82 69 73 68 53 55 60 60 55 50 52 57 55 46 48 50 52 60 64 69 65 62 54 53 51 51 48 46 46 50 49 46 43 41 37 36 33 30 29 29 29 28 29 29 29 28 29 29 29
75 80 87 71 66 60 60 61 57 56 53 55 59 54 51 54 55 55 57 61 64 65 55 52 52 52 50 47 47 49 51 49 47 42 39 38 36 33 33 33 29 29 29 30 30 29 28 28 29
69 77 85 79 77 63 58 59 60 55 54 55 57 59 56 56 59 58 58 59 59 62 61 54 50 48 48 48 49 49 53 53 51 46 42 38 35 34 33 32 32 33 34 34 32 30 29 29 30
54 73 79 82 81 64 62 60 62 56 54 55 58 59 61 59 57 60 55 55 58 59 58 57 51 45 45 47 48 50 53 55 52 48 44 39 35 33 32 34 34 34 35 36 36 35 35 34 35
56 68 74 79 73 71 61 57 51 57 58 58 63 63 62 62 64 60 62 59 60 65 62 52 50 51 50 49 49 50 52 53 52 50 47 38 34 33 35 36 37 36 36 36 36 36 34 34 36
59 59 69 76 75 72 60 45 53 52 58 57 60 67 65 66 61 57 60 61 63 69 67 64 53 48 54 55 54 54 55 58 58 52 42 39 38 38 37 37 37 37 37 37 37 36 35 38 43
70 57 60 74 76 73 60 52 51 49 51 52 57 64 66 70 66 62 58 59 64 68 68 70 67 59 56 57 59 61 61 57 53 50 46 42 39 39 40 40 41 41 42 42 42 40 41 46 49
77 63 59 57 59 57 59 55 51 51 51 51 56 64 65 69 70 66 62 63 63 67 71 76 74 72 66 64 63 61 57 56 55 52 50 47 45 44 43 43 44 45 44 45 46 49 54 54 51
74 76 63 56 53 56 51 50 48 50 49 49 56 59 63 68 72 66 65 67 65 66 72 75 76 78 72 65 63 60 58 58 57 55 52 50 47 46 45 44 45 48 52 54 54 57 56 54 45
71 66 65 58 51 57 52 48 47 48 48 45 51 58 62 68 70 69 66 65 68 70 73 78 79 80 76 73 68 64 63 62 59 56 52 50 48 47 44 43 45 50 50 48 49 49 47 41 39
65 59 58 52 58 61 54 44 43 43 44 47 53 58 66 73 71 69 68 65 64 67 69 69 69 75 74 71 69 63 59 54 51 48 44 42 40 38 36 36 38 39 38 38 40 38 35 36 36
63 56 57 60 60 62 57 50 43 41 44 50 56 61 65 75 75 70 70 66 65 62 62 60 59 59 62 65 66 61 55 53 48 43 40 37 33 32 32 32 32 32 32 31 30 31 31 33 34
60 59 59 62 64 62 59 62 41 44 45 49 53 61 66 76 74 71 69 67 67 64 62 61 59 58 57 57 55 51 48 45 39 36 33 31 30 29 29 29 29 29 29 28 27 28 30 34 35
59 60 58 58 60 62 51 56 43 42 42 45 52 57 61 74 79 77 74 70 67 64 64 62 60 58 54 51 46 43 40 38 36 34 32 30 29 28 27 27 27 26 26 26 27 28 29 32 35
66 63 67 70 71 54 50 50 36 36 38 39 46 54 60 76 82 80 73 71 70 67 66 67 67 64 60 55 49 45 43 39 37 35 32 30 29 29 30 32 30 27 26 25 24 24 26 32 32
72 59 55 56 52 45 48 43 28 24 32 36 39 46 50 57 68 70 78 74 72 69 66 62 60 58 55 53 53 54 53 49 48 45 39 37 36 36 34 31 29 28 27 26 26 26 26 27 29
85 82 62 61 55 52 40 39 26 22 28 35 38 40 44 46 48 57 66 70 65 63 64 60 61 62 61 59 57 54 52 49 46 43 41 38 37 37 36 35 34 33 32 30 30 29 28 33 33
80 71 77 76 71 60 46 43 32 27 27 29 31 33 33 37 39 41 46 54 62 62 59 58 59 58 58 58 57 54 51 48 46 44 44 43 41 39 38 37 37 36 34 32 31 28 30 33 35
90 80 71 65 65 63 51 42 35 35 33 33 34 33 34 35 36 34 36 39 44 52 57 62 61 57 56 55 56 55 53 51 50 48 47 46 45 42 38 36 35 33 31 30 28 29 32 33 33
85 78 76 77 75 69 67 54 46 42 41 39 39 40 42 38 36 35 35 35 36 39 45 46 51 58 57 54 52 50 50 50 49 47 46 45 46 44 38 35 33 30 27 27 27 29 29 30 29

GFSSGP_prec_cthk_087.txt.gz
RH
54 56 52 48 45 37 34 37 38 40 45 46 46 48 57 67 61 65 57 53 48 45 41 35 32 32 30 30 28 27 25 24 21 19 19 19 15 14 14 15 15 14 15 17 16 15 14 13 13
63 63 57 53 48 38 33 35 34 40 44 47 52 55 53 70 67 61 60 58 53 48 42 37 32 31 31 31 28 26 24 22 20 20 23 21 18 14 12 11 12 13 14 14 14 14 13 13 14
67 63 62 56 45 42 32 35 31 37 43 47 50 56 60 65 67 62 57 57 57 51 42 38 33 30 29 29 26 24 21 18 18 21 24 23 19 15 13 12 11 13 13 14 15 15 15 16 19
71 68 68 57 47 39 41 41 35 33 38 47 48 54 62 63 67 66 57 58 59 54 47 36 34 32 28 26 25 22 20 18 18 22 24 26 21 18 16 14 14 14 15 16 16 16 17 17 20
75 68 64 56 50 47 49 46 37 29 35 43 51 62 65 62 63 70 62 60 61 56 48 40 35 36 32 29 27 24 22 20 19 23 25 27 24 20 16 15 13 14 15 15 15 16 17 18 19
73 70 63 53 53 55 52 46 36 32 31 40 48 64 68 69 67 69 67 63 68 63 53 46 41 37 35 33 31 29 27 24 23 24 27 30 28 26 23 21 19 19 19 19 20 21 22 22 24
70 65 55 48 56 60 52 50 43 35 31 38 52 60 70 68 69 70 68 69 73 66 59 53 46 40 36 35 36 34 31 28 27 27 30 33 33 30 27 24 23 23 23 23 24 24 26 27 28
71 71 57 53 62 60 57 55 50 44 42 38 43 61 65 66 72 73 72 68 75 68 64 58 53 44 40 36 38 36 34 32 31 30 30 33 33 30 28 27 27 26 26 26 26 27 27 27 27
76 78 57 54 64 63 58 57 53 48 47 45 39 47 54 60 67 71 73 71 70 73 66 62 56 51 43 40 39 38 38 35 35 33 31 33 34 31 30 29 29 28 28 28 28 28 28 28 28
81 77 63 47 63 67 60 59 55 53 51 49 43 40 44 57 65 69 74 71 66 69 67 70 60 55 45 44 40 40 40 40 41 40 34 40 40 38 37 28 28 28 28 29 29 28 28 28 33
84 73 68 73 65 77 72 64 59 55 58 54 54 44 44 49 59 68 74 76 72 68 73 68 66 59 52 48 42 47 43 46 48 46 43 42 40 34 29 29 28 28 28 29 29 29 29 34 32
86 75 82 76 86 59 71 63 63 58 59 53 52 55 50 51 52 60 73 79 75 68 71 67 67 64 57 51 45 48 49 47 48 48 46 43 41 39 37 36 36 31 33 35 34 35 34 29 28
89 71 80 76 75 78 58 59 66 63 54 51 52 54 59 55 54 54 61 72 78 73 67 63 62 62 60 56 51 50 50 50 50 51 49 46 44 41 39 37 35 34 34 35 36 34 33 32 33
80 92 82 73 78 72 62 60 62 60 55 52 49 55 57 59 57 56 59 61 64 70 69 67 58 57 57 57 55 52 51 52 55 53 53 51 48 45 39 36 34 33 32 36 37 37 35 35 34
72 82 85 69 88 81 65 59 53 61 58 53 50 52 54 57 60 61 60 63 58 60 66 66 65 58 53 54 53 54 54 54 55 55 54 53 48 45 36 35 37 37 37 36 36 36 35 36 33
58 67 76 87 84 79 67 51 48 54 56 52 51 50 52 54 58 61 59 60 62 58 58 62 63 61 59 53 52 54 54 55 56 58 57 55 53 42 39 37 37 39 38 37 37 39 40 38 37
67 69 76 80 74 77 70 60 52 57 52 56 50 52 51 53 57 59 61 61 63 61 60 59 66 62 60 60 57 59 56 56 58 60 63 58 51 48 43 41 41 42 41 40 40 41 42 44 49
73 61 61 69 76 68 74 63 60 58 54 51 50 48 50 52 54 58 59 63 66 64 64 71 68 74 69 62 58 62 71 62 64 66 63 59 56 53 48 46 46 46 44 43 45 47 52 53 57
66 64 56 57 71 71 68 67 61 56 49 47 43 44 45 48 54 56 64 63 65 67 66 69 69 73 77 76 68 67 71 69 66 63 62 61 60 58 53 51 49 48 46 47 49 53 53 50 51
71 65 63 60 62 60 59 57 51 49 45 42 41 42 42 49 53 53 62 66 68 71 68 68 70 77 79 78 77 74 72 68 64 65 64 63 62 58 55 53 51 50 47 44 45 49 48 47 46
68 68 75 67 59 55 53 51 46 41 40 39 39 39 40 43 51 55 60 66 70 70 73 73 69 71 69 70 77 78 76 75 72 68 64 62 58 55 52 48 46 44 41 39 40 42 44 45 42
68 66 68 66 62 59 54 40 33 33 35 38 38 39 40 41 48 56 58 64 66 68 75 77 76 74 74 74 77 77 77 76 75 67 58 52 50 48 44 40 37 34 34 34 34 37 40 40 37
70 68 66 65 62 64 60 60 39 41 37 34 36 40 41 43 52 60 56 62 67 67 70 70 76 72 71 72 73 74 77 74 70 67 57 50 45 42 38 34 32 31 31 31 32 32 34 34 37
74 65 62 60 64 83 54 56 43 39 38 36 36 36 39 41 52 64 62 64 69 68 68 66 65 65 65 65 63 62 63 61 57 55 51 47 42 39 35 33 31 30 29 29 29 30 33 33 35
70 63 73 76 77 59 47 44 41 37 37 35 34 33 38 45 53 63 69 67 71 71 70 67 68 67 66 65 64 62 59 56 53 51 48 44 41 37 34 32 30 30 29 29 30 32 30 28 33
62 64 66 66 58 50 52 43 35 28 28 33 34 34 35 43 52 61 73 74 70 70 70 69 70 68 69 66 65 64 59 57 53 49 46 45 43 41 38 36 34 33 32 34 35 32 30 30 34
73 74 65 71 62 61 49 38 28 21 25 28 30 32 37 40 50 59 71 76 75 77 75 72 72 72 69 69 70 69 66 63 60 58 57 55 50 48 46 43 40 38 38 37 37 36 35 36 36
93 82 84 76 70 59 39 41 33 27 25 29 28 30 33 35 42 49 53 73 84 82 79 74 74 73 72 67 65 62 60 60 58 57 57 53 50 48 47 45 43 42 40 39 38 38 37 36 36
88 87 83 80 62 62 54 50 36 33 32 28 27 30 31 34 36 40 45 50 56 70 76 77 78 73 69 68 64 64 63 62 60 57 55 51 49 48 47 45 45 44 41 38 37 36 34 34 32
84 81 80 81 76 67 64 60 45 40 37 35 36 36 33 36 35 35 37 40 41 46 54 62 60 64 67 67 64 61 59 56 54 53 53 52 51 50 48 46 44 43 43 38 35 34 32 30 31

GFSSGP_prec_cthk_090.txt.gz
RH
60 55 54 55 52 43 41 43 49 51 54 53 57 58 68 66 70 63 52 51 45 39 37 35 34 31 31 30 28 28 25 20 17 17 15 13 15 23 26 26 24 18 16 13 13 12 12 12 14
63 66 59 58 57 46 38 41 45 51 46 52 56 58 64 73 73 61 57 54 46 40 37 34 34 30 30 30 27 24 22 19 18 21 17 14 12 12 12 11 12 13 13 12 12 12 13 14 18
70 73 63 61 54 49 35 36 40 44 39 49 59 62 68 79 80 65 61 59 52 43 39 35 33 31 29 29 25 21 18 17 19 22 21 16 14 12 12 12 12 13 13 13 14 14 16 18 21
76 80 71 60 51 40 39 38 39 38 39 47 54 68 70 78 77 72 62 59 52 46 39 34 33 30 28 27 23 19 16 16 20 23 22 20 17 15 14 14 14 14 14 14 14 15 16 18 20
82 80 75 64 49 40 51 52 43 35 39 46 55 68 73 74 79 70 63 61 57 49 42 37 33 32 28 25 22 18 16 17 20 23 23 20 19 16 14 13 13 13 13 13 14 15 16 18 20
81 79 68 61 51 44 55 49 44 39 38 45 56 68 75 70 74 75 69 68 61 53 49 44 41 37 33 28 24 21 20 19 22 25 27 24 22 20 19 18 18 18 19 20 21 22 23 24 25
84 76 65 52 52 56 58 48 47 44 38 47 55 70 76 71 69 76 73 73 63 58 51 48 47 43 36 32 31 26 25 24 25 28 32 31 25 24 23 22 22 22 23 24 24 25 25 25 25
77 81 71 59 60 65 61 52 48 47 47 45 54 67 73 69 72 71 72 78 71 64 55 54 52 48 40 35 34 31 29 28 29 30 32 33 27 26 26 26 25 25 26 26 26 26 26 27 27
80 84 72 63 66 62 63 55 51 49 51 46 48 55 67 70 70 72 73 78 79 70 61 62 58 53 44 39 37 34 32 31 31 31 33 34 31 29 28 27 27 27 27 27 28 28 28 28 28
89 81 63 55 69 68 64 59 55 52 51 50 46 50 57 67 68 72 77 76 80 72 68 67 63 59 51 42 40 35 34 33 34 34 35 36 35 31 30 28 28 28 28 28 29 29 28 28 28
93 70 60 64 72 75 71 64 57 56 57 53 49 45 47 58 66 70 73 76 77 80 73 72 68 64 58 47 43 39 35 35 37 38 40 41 41 37 32 29 28 28 27 28 29 29 29 28 28
95 80 68 85 71 77 73 69 58 59 58 54 51 51 50 49 61 65 71 74 73 75 73 73 72 67 63 54 45 44 40 40 43 44 44 46 42 37 33 32 31 29 29 27 29 29 30 28 26
88 86 86 82 79 82 83 78 65 64 56 56 54 51 56 55 52 60 67 73 70 69 71 78 74 70 66 62 52 52 46 43 44 46 47 48 46 43 41 39 34 30 29 30 30 30 30 29 28
80 86 82 87 79 76 83 83 72 58 56 57 54 57 54 63 55 54 54 68 76 74 69 67 70 74 70 64 58 55 51 48 46 46 46 49 50 50 46 42 36 31 29 29 31 32 32 31 32
81 90 93 92 89 83 73 79 68 64 58 58 56 54 55 58 62 59 54 55 63 75 76 71 67 63 66 64 64 59 57 51 51 49 48 50 51 52 49 45 38 33 34 34 34 34 34 35 35
73 93 93 86 81 80 83 72 65 60 63 58 57 53 53 53 52 59 59 59 55 59 66 71 71 70 64 60 61 59 57 54 53 53 51 51 51 50 52 45 44 40 37 36 35 34 34 35 37
75 82 91 91 93 81 82 75 68 60 52 54 55 52 51 50 50 50 56 60 60 60 61 64 67 68 70 67 65 62 57 55 52 53 53 52 50 53 54 51 48 44 39 38 38 38 39 40 43
62 65 75 78 85 83 88 76 66 66 54 48 51 51 49 47 47 48 52 56 59 63 63 62 61 59 57 59 68 70 64 60 59 58 59 56 54 55 55 53 53 50 47 45 45 44 46 47 48
61 57 59 61 73 83 77 73 69 66 60 50 45 45 46 46 45 43 46 52 56 60 60 62 62 63 66 64 64 73 70 67 66 67 68 66 62 63 62 57 59 57 55 52 51 50 50 47 48
66 63 57 77 78 82 74 68 63 64 57 50 41 38 41 44 48 40 43 46 50 55 63 65 64 62 64 65 63 69 78 78 71 69 71 69 67 66 67 67 64 62 60 57 56 55 50 48 49
64 68 70 73 78 67 65 64 57 54 53 50 43 39 38 41 47 44 41 43 46 52 56 66 68 72 65 63 63 77 82 89 86 83 77 77 78 73 65 62 60 58 55 52 49 46 43 42 42
71 72 75 75 69 68 64 63 49 44 44 44 40 37 36 37 38 44 43 40 42 48 52 61 70 72 74 69 68 79 78 78 82 81 83 84 75 62 56 53 54 52 48 44 42 42 41 41 41
69 68 72 75 75 71 70 70 40 43 41 40 37 35 34 35 35 41 42 39 38 41 49 60 67 76 76 78 76 74 73 74 75 76 79 81 77 70 63 52 48 44 41 38 36 35 36 39 40
73 76 70 75 74 84 59 65 47 40 38 39 41 36 33 33 33 38 48 41 39 38 43 51 67 74 78 80 75 76 76 73 73 78 80 78 68 66 60 48 45 43 38 36 34 32 32 32 34
75 81 90 91 89 78 53 62 46 37 40 40 39 36 36 35 35 37 48 43 42 43 48 52 59 68 74 77 72 68 75 68 67 66 61 58 54 50 50 49 48 45 41 37 36 36 33 32 33
73 75 80 81 77 60 45 54 43 34 37 37 35 33 31 34 35 36 43 47 44 46 51 58 62 65 69 70 66 65 66 67 63 60 55 55 54 53 52 51 47 45 44 41 41 39 36 36 36
76 74 70 94 74 71 63 50 39 32 30 25 29 33 32 31 37 40 44 49 50 55 60 66 67 65 70 70 68 67 66 66 64 66 65 63 63 64 58 55 51 49 47 48 46 46 43 42 42
82 74 80 88 90 69 51 47 46 36 28 27 28 29 33 33 33 35 38 48 53 60 71 75 75 75 73 74 74 73 72 75 75 72 69 68 63 61 58 56 55 53 51 49 47 46 44 42 40
90 91 90 79 71 74 63 57 49 38 32 32 31 30 30 32 32 33 36 43 55 64 66 74 82 83 77 76 77 77 76 73 71 67 65 63 61 61 60 57 53 50 48 47 46 44 44 42 40
86 88 94 96 83 76 78 68 56 49 38 35 38 34 33 34 34 33 34 39 43 48 56 57 76 90 88 86 83 81 79 77 71 68 67 65 61 56 54 52 51 50 49 48 46 45 44 44 41

GFSSGP_prec_cthk_093.txt.gz
RH
75 60 57 55 56 56 50 45 53 58 57 52 62 63 80 74 66 61 56 47 47 40 38 36 34 33 32 28 26 25 18 16 14 12 19 30 31 32 32 30 24 14 13 12 11 11 12 17 20
75 71 64 61 62 53 46 43 53 60 53 53 61 68 69 79 71 63 56 52 48 40 38 36 36 33 30 27 25 24 18 19 15 12 11 14 19 20 18 14 12 11 11 11 11 13 16 20 21
76 76 67 64 57 53 38 42 51 49 55 57 59 71 85 86 73 68 57 56 48 42 40 37 34 32 29 26 23 20 17 20 19 14 12 11 11 11 12 12 12 12 13 13 14 16 19 21 22
82 82 73 65 56 44 34 45 50 45 48 56 63 71 80 81 73 67 62 56 47 43 40 38 33 31 29 25 21 18 17 19 20 16 14 13 12 13 13 13 13 13 13 14 14 16 18 20 20
82 84 80 66 49 47 42 45 46 44 47 51 62 73 81 84 84 72 66 59 48 44 39 37 34 31 28 23 19 17 16 19 21 18 16 14 14 13 13 13 12 13 14 14 16 17 20 22 24
86 86 80 67 49 49 54 46 45 43 49 52 59 75 82 83 89 77 70 63 49 45 43 41 38 31 28 23 17 17 17 20 21 22 19 17 16 17 17 17 17 18 19 21 22 23 24 24 24
86 86 75 61 53 55 59 48 43 45 46 49 56 73 81 84 89 87 70 65 56 49 46 46 45 39 31 27 22 20 21 23 25 28 23 20 21 21 21 21 21 22 23 24 25 25 25 24 25
82 85 76 68 62 69 53 51 50 48 45 47 53 68 78 76 83 81 75 69 64 59 52 50 49 44 36 32 27 26 26 28 31 33 27 24 24 24 24 23 24 24 26 26 27 26 26 26 26
88 91 82 70 69 66 57 54 54 52 50 45 51 59 73 79 81 78 77 78 69 64 56 55 53 49 42 37 32 30 30 31 33 34 33 29 28 26 25 25 25 26 26 27 28 28 27 27 26
96 89 79 69 73 69 63 55 54 53 53 57 53 60 66 74 77 76 77 78 73 67 61 59 57 54 49 43 35 32 30 31 33 36 36 35 32 30 28 28 26 26 26 26 27 28 27 27 26
95 88 79 79 80 73 67 64 62 59 52 53 54 51 56 69 74 76 79 79 75 70 68 64 63 59 54 49 43 36 33 31 32 35 40 41 38 35 32 30 28 26 26 26 25 26 27 27 26
90 91 88 87 84 73 74 71 65 60 55 49 52 54 49 54 66 73 77 79 81 77 72 67 65 63 57 55 49 42 38 35 33 35 41 44 44 43 37 34 32 28 26 25 24 25 26 26 25
89 88 92 94 88 83 79 77 69 60 58 53 52 57 55 49 53 66 69 74 77 76 74 72 69 67 65 58 54 49 46 40 39 40 40 43 46 44 43 40 37 31 27 26 27 26 26 27 27
86 90 93 94 87 87 82 80 77 64 59 57 56 56 60 58 51 52 63 69 70 74 74 71 69 71 68 66 60 57 54 51 44 44 45 45 46 46 46 46 43 36 29 28 30 31 31 30 30
89 95 92 85 93 87 85 85 79 70 63 56 57 57 58 61 62 56 53 58 66 69 73 72 73 75 78 73 69 65 61 59 54 51 48 47 47 49 49 49 48 42 36 33 33 33 33 33 32
78 86 92 88 87 93 84 85 89 80 70 58 55 56 57 57 57 63 59 55 55 62 67 71 68 66 76 66 70 67 60 59 58 56 52 50 48 49 50 47 49 48 44 40 37 36 36 36 36
70 83 83 86 86 93 90 91 81 80 74 63 57 53 54 57 57 59 65 63 57 59 60 62 67 71 69 69 66 64 62 57 57 56 54 55 50 48 48 47 51 53 49 46 42 40 40 41 41
71 80 92 88 89 87 86 80 79 75 67 60 56 55 54 54 53 53 58 62 59 62 57 58 58 61 62 66 64 62 65 59 62 60 57 57 53 49 48 52 55 56 54 52 51 49 48 46 46
56 68 78 77 84 83 88 89 74 68 64 60 55 53 53 50 54 52 50 51 59 60 61 58 57 62 64 62 61 59 59 63 65 72 72 68 62 56 56 54 57 60 59 59 59 57 57 55 54
64 63 64 76 77 86 82 80 74 67 64 65 62 54 51 51 51 49 52 50 50 56 57 56 58 59 59 59 59 62 65 69 71 77 80 83 78 72 71 68 67 67 68 64 63 59 58 55 53
64 69 69 74 76 85 83 83 72 68 62 61 59 50 41 42 45 45 47 46 45 45 48 51 52 56 61 62 64 64 70 74 80 82 88 91 86 90 90 91 91 79 67 61 59 56 53 50 48
72 71 74 75 75 88 74 77 59 57 53 55 55 52 46 37 38 39 42 43 40 39 43 46 49 53 56 63 70 75 74 76 79 82 89 88 83 83 84 82 83 78 62 58 55 54 51 47 44
73 68 71 81 78 75 69 71 57 53 51 44 44 44 45 42 39 35 35 38 38 41 41 43 47 52 55 58 64 74 80 81 80 82 83 80 79 77 78 81 82 77 68 55 49 47 46 47 43
74 80 77 80 84 92 73 71 56 47 41 45 43 40 37 38 35 36 36 35 37 37 38 41 43 48 52 59 68 74 81 85 83 83 82 78 78 75 75 82 78 65 60 50 46 44 41 42 41
74 82 95 95 96 83 65 71 48 42 43 41 41 39 38 38 37 34 34 34 38 39 39 40 42 44 49 55 65 71 78 84 83 81 83 78 79 78 70 60 58 54 51 49 50 48 45 43 42
80 84 90 85 87 71 63 64 46 41 43 41 40 37 37 36 36 38 34 34 38 40 42 43 41 44 48 55 59 65 77 81 81 86 78 78 71 67 61 56 55 60 62 60 53 48 44 44 44
79 83 79 84 83 82 69 53 45 38 38 43 39 39 39 36 35 36 38 37 39 42 44 44 43 42 45 51 57 62 69 72 75 81 73 68 66 64 63 64 69 65 63 60 53 49 48 48 48
80 80 84 91 91 81 62 59 51 41 38 39 38 36 32 37 33 35 39 41 41 42 48 49 49 49 50 52 58 62 67 69 70 71 70 69 71 71 74 75 72 67 60 57 53 51 51 50 47
90 91 85 80 80 80 66 56 44 41 41 37 37 29 27 29 33 34 37 39 39 39 44 49 54 56 56 60 65 70 74 72 73 77 77 76 75 74 74 71 67 63 60 58 54 52 50 47 46
84 89 87 90 81 74 71 58 46 46 47 44 39 36 32 30 32 34 33 32 33 38 44 51 57 64 69 70 73 83 85 78 77 78 77 77 76 75 73 70 66 60 55 52 50 48 47 46 45

GFSSGP_prec_cthk_096.txt.gz
RH
79 71 60 65 67 62 53 52 58 67 61 57 60 64 70 71 63 63 58 49 46 40 40 38 36 33 33 27 22 18 14 13 26 31 32 37 46 56 46 30 20 15 12 10 10 13 16 17 19
88 77 70 66 70 61 50 42 52 73 62 63 64 68 72 74 67 65 60 52 43 41 42 38 36 35 30 27 24 21 16 13 18 28 28 28 26 26 23 17 11 11 10 11 13 16 17 19 22
92 83 75 70 66 56 43 42 50 61 69 66 67 67 70 75 72 63 61 56 46 41 40 38 37 34 30 28 24 20 19 14 12 14 19 19 18 15 12 11 12 12 12 14 16 17 18 19 22
96 91 81 74 57 45 44 47 50 57 70 64 67 74 72 69 75 67 65 56 47 44 42 38 37 33 30 27 23 19 21 15 12 11 11 11 12 12 13 13 13 12 13 14 15 17 19 20 22
95 93 86 76 53 44 46 47 50 54 61 68 67 77 79 74 73 71 69 60 48 43 43 39 39 34 30 24 20 19 22 17 14 13 13 13 14 13 13 12 12 13 14 17 19 22 23 24 24
97 89 88 73 55 45 47 51 51 54 61 65 71 75 83 80 79 77 66 62 50 43 43 41 39 31 28 22 18 19 23 21 17 15 14 14 14 15 15 16 17 18 19 20 22 23 23 24 25
97 89 71 62 54 51 53 52 53 58 62 63 60 69 79 86 88 78 72 61 50 46 43 48 41 33 26 21 18 19 21 24 21 18 18 18 19 20 20 20 20 22 22 23 24 24 24 24 25
95 85 74 64 60 55 51 53 55 59 60 63 59 62 76 71 84 84 80 70 56 50 49 47 43 37 30 24 21 21 24 27 28 25 23 23 23 23 24 23 23 23 24 25 26 26 25 25 25
92 93 82 70 64 59 50 55 55 57 57 58 65 64 69 69 85 83 84 75 62 57 54 50 47 43 37 31 28 26 29 31 33 30 28 28 28 27 26 25 25 24 25 25 26 27 26 25 24
93 91 75 78 68 60 56 54 56 55 57 59 64 68 68 67 77 90 87 77 74 65 58 55 52 48 44 38 34 31 31 33 34 35 32 33 31 31 30 28 27 26 25 25 25 25 25 25 24
93 93 83 84 78 66 64 59 60 58 54 54 55 62 71 70 69 77 80 88 85 71 64 61 58 53 50 46 42 37 33 32 33 34 35 37 37 36 34 32 29 27 26 24 24 24 24 25 26
97 96 87 89 82 74 74 63 60 58 58 57 60 61 62 70 69 75 81 85 82 76 71 65 64 59 56 52 48 44 39 34 33 32 35 37 40 42 41 37 34 31 27 26 26 26 26 26 26
94 98 90 92 81 77 76 67 58 56 55 58 61 61 63 64 68 71 80 82 81 77 72 65 64 64 59 57 54 49 45 41 36 34 35 37 40 42 42 42 42 39 33 28 28 29 28 28 28
97 98 93 90 88 87 81 72 63 61 59 57 60 60 61 64 69 65 71 74 82 78 75 77 74 65 62 57 56 54 52 50 48 44 40 38 40 41 43 44 45 45 41 33 30 31 33 31 30
94 96 95 91 95 93 81 75 74 69 65 62 57 59 61 60 66 65 61 62 74 80 79 76 71 71 66 62 60 59 59 57 54 50 47 44 44 43 42 45 47 47 48 41 37 34 33 34 33
83 92 97 96 93 93 92 83 76 72 68 63 60 57 60 62 64 65 67 62 60 67 76 78 72 74 73 69 65 66 64 60 57 56 54 51 49 47 46 45 47 48 50 50 45 41 39 38 36
80 93 96 92 92 95 90 94 81 78 72 66 61 56 55 56 63 67 63 66 61 58 60 66 72 73 71 75 68 65 67 68 65 62 60 56 57 55 52 49 47 47 52 54 52 49 46 45 43
71 85 88 88 92 95 96 93 86 79 74 69 69 62 57 52 51 58 68 69 63 64 62 56 58 62 65 65 71 66 63 66 61 60 62 60 63 62 57 53 47 48 52 56 57 56 56 55 53
63 72 76 78 85 89 88 91 91 86 82 74 70 64 57 55 53 52 53 57 63 66 70 74 61 62 63 63 65 64 65 69 68 65 64 64 64 69 65 58 56 56 56 60 64 63 61 61 59
59 57 65 70 74 76 79 78 79 88 75 71 68 63 58 53 51 50 51 54 58 64 68 68 64 62 61 62 62 65 66 66 65 65 66 68 70 74 76 73 73 66 63 67 69 68 64 61 61
54 53 54 60 72 79 79 83 84 77 74 69 67 62 55 51 51 49 49 50 54 57 62 63 62 62 61 59 60 62 63 62 60 62 68 73 80 84 88 88 87 82 86 83 80 75 67 63 62
69 64 57 63 75 87 81 84 68 71 70 67 61 60 58 55 49 48 47 45 46 50 55 55 54 56 57 57 60 60 58 60 64 66 68 75 83 84 87 87 85 87 83 82 85 80 71 62 58
64 66 67 67 76 74 78 76 63 59 58 57 58 55 53 50 48 41 39 45 46 50 53 56 57 56 56 55 55 62 67 69 71 69 72 78 81 82 86 89 84 82 80 83 81 74 65 58 55
69 71 73 88 86 91 69 72 63 52 47 49 50 45 43 46 46 42 38 35 41 48 49 53 53 50 52 51 53 59 62 66 69 72 75 77 83 84 83 86 85 83 79 79 82 64 54 52 51
78 92 95 95 97 90 73 82 55 44 41 39 42 38 37 37 36 38 39 39 38 35 37 44 46 46 49 51 54 59 71 67 69 74 87 85 82 86 86 84 81 75 65 59 59 57 61 64 59
80 87 94 85 87 81 78 77 50 42 37 37 38 38 37 36 35 34 35 36 39 42 39 39 41 43 45 47 49 51 54 57 62 75 83 94 90 84 85 88 79 69 66 64 62 58 64 62 57
80 85 80 89 84 82 66 54 46 43 42 38 39 38 38 37 36 36 36 36 39 41 41 43 44 43 43 44 47 50 54 58 64 65 73 85 86 79 89 80 78 71 66 65 64 64 69 64 58
80 80 94 97 97 87 66 61 50 43 45 42 42 42 40 38 36 36 35 36 39 43 43 44 46 46 43 43 45 48 54 64 67 68 66 69 69 68 70 68 73 74 72 72 70 67 63 59 55
89 90 86 82 84 86 69 59 49 51 46 45 43 41 43 39 38 36 38 35 39 43 46 47 46 49 48 48 47 48 52 57 60 59 60 60 61 66 68 71 74 75 75 73 72 69 63 59 53
86 87 85 89 82 80 78 63 55 52 49 49 49 40 39 38 32 31 36 38 40 43 45 44 43 46 51 54 54 54 55 57 60 61 66 68 73 77 79 82 80 79 79 79 78 72 67 60 56

GFSSGP_prec_cthk_099.txt.gz
RH
80 77 76 77 80 76 63 58 61 69 70 66 63 66 66 65 58 55 57 48 43 39 40 40 35 34 32 26 18 16 24 30 38 47 53 61 69 69 61 38 22 13 10 10 11 14 16 17 18
87 84 83 85 79 74 60 48 55 67 67 69 67 67 69 68 63 64 56 51 45 40 40 38 37 34 30 24 18 14 23 29 34 35 43 55 51 39 26 16 13 10 11 12 15 16 18 19 20
89 95 87 90 83 60 49 46 48 65 70 71 72 72 70 72 69 63 57 54 47 43 41 39 38 34 29 22 19 14 19 25 28 26 26 24 23 20 14 12 11 12 13 15 15 15 16 18 19
91 98 93 89 73 52 43 46 46 61 74 70 73 80 75 75 71 64 60 55 48 44 40 40 38 33 30 25 23 16 13 20 24 24 22 20 17 12 13 13 13 12 13 13 15 19 22 23 24
91 97 94 88 61 50 47 50 54 64 66 74 81 82 80 78 70 64 62 56 48 46 42 41 37 33 30 25 25 21 14 12 12 12 12 13 13 14 13 12 12 14 15 18 20 22 23 24 24
99 97 95 81 59 48 48 54 56 64 70 72 88 84 83 83 76 71 64 63 51 48 45 43 38 32 29 24 25 23 17 13 13 13 14 13 13 14 15 16 17 18 19 21 22 23 23 24 25
85 94 94 65 55 49 47 60 57 64 66 69 71 78 85 84 79 76 71 68 54 50 44 45 40 32 26 22 23 24 19 16 14 14 14 16 17 19 20 21 21 22 23 23 23 23 24 26 26
89 94 85 72 60 53 51 55 60 58 63 67 69 74 89 79 80 83 70 67 58 53 47 45 42 33 26 22 22 25 23 18 17 17 19 20 21 22 22 23 24 24 24 25 25 25 25 25 26
98 98 86 68 59 53 54 55 64 64 64 68 68 70 69 82 90 84 74 69 64 61 53 49 46 38 28 25 24 25 28 26 25 23 23 23 24 24 25 25 25 26 25 25 26 26 26 25 25
99 97 83 79 63 58 54 54 52 62 66 75 73 70 71 72 76 80 72 77 68 66 62 55 50 43 35 32 29 31 32 32 30 29 29 28 29 28 29 27 26 26 25 24 25 25 25 25 25
96 93 91 84 73 63 56 56 56 62 66 69 72 75 74 67 74 71 75 78 70 69 67 61 54 49 44 40 37 36 35 35 32 31 32 33 35 35 34 33 31 29 26 25 24 24 24 25 27
98 97 94 88 79 66 65 55 59 60 63 65 69 74 78 72 71 69 73 81 85 69 66 69 64 56 52 48 45 43 41 38 35 32 30 32 34 37 38 37 36 34 33 28 27 26 26 27 26
98 97 97 89 79 72 67 62 58 59 61 67 68 69 70 74 72 78 76 78 78 80 73 70 68 65 58 55 51 48 46 45 42 39 35 33 34 36 39 39 41 41 39 36 30 29 30 30 30
96 95 95 95 83 79 76 70 61 61 62 65 70 67 68 69 74 78 83 81 84 84 85 77 72 71 65 61 57 53 50 49 48 48 46 44 41 40 39 39 43 45 45 44 39 34 33 33 33
93 97 92 91 86 81 79 73 71 64 64 65 66 69 74 77 80 79 83 79 85 82 87 79 70 68 68 64 61 56 53 53 53 52 50 49 47 45 43 43 43 44 46 46 47 44 40 37 37
88 96 99 96 91 84 79 82 76 68 63 63 64 66 68 75 77 76 79 78 85 83 86 76 78 80 80 68 63 58 59 58 59 60 57 55 54 52 51 49 48 47 45 46 49 52 48 44 41
81 97 97 96 96 89 90 88 78 73 65 59 57 64 70 71 75 78 79 79 80 83 89 91 90 84 79 76 71 68 62 59 58 60 60 59 57 56 56 55 55 52 48 47 49 51 53 52 50
76 81 88 93 96 96 90 86 86 79 72 64 58 57 61 68 71 72 73 73 77 82 78 86 86 86 81 78 83 76 70 69 68 65 63 61 58 60 60 57 57 58 54 53 53 51 53 58 58
66 65 74 84 86 90 95 93 93 85 77 67 61 56 55 57 57 61 73 76 77 78 75 77 79 82 85 84 71 70 66 69 68 69 64 64 63 61 63 61 58 56 57 62 61 59 57 58 59
54 61 66 74 79 86 83 88 92 91 79 73 66 58 53 54 54 52 57 65 70 75 75 73 69 69 70 71 74 73 71 71 68 69 68 66 65 65 68 71 72 73 72 77 75 77 67 67 67
54 52 58 65 76 82 79 80 77 79 82 77 68 61 54 51 50 52 50 50 54 58 68 71 71 69 73 73 64 69 69 66 67 71 69 65 62 64 67 75 86 83 87 83 81 81 80 82 79
59 54 50 62 69 76 73 77 67 69 69 73 64 62 56 54 52 49 49 49 50 52 53 56 64 71 73 74 67 64 65 64 64 69 71 72 69 68 70 73 80 86 88 87 90 84 85 85 84
63 60 60 65 65 68 77 74 62 61 65 60 60 60 57 56 56 55 54 51 50 51 52 55 57 61 67 74 73 72 70 65 69 67 68 76 78 79 80 79 83 85 87 88 88 89 82 85 79
66 73 74 78 77 84 67 73 64 62 55 53 52 56 56 54 52 50 51 48 47 49 49 50 54 58 63 67 65 66 68 68 65 62 67 73 79 85 87 91 95 93 91 82 87 87 74 75 77
71 77 88 89 94 83 67 76 56 54 53 46 44 45 48 50 51 49 50 46 45 45 49 50 53 55 60 61 61 62 63 65 66 63 66 67 72 80 89 96 94 91 87 80 77 70 65 62 63
83 86 88 86 86 92 78 79 55 46 47 45 43 40 42 44 42 43 45 45 44 43 43 50 52 51 53 56 58 57 54 55 57 62 67 69 75 77 77 83 85 95 79 77 72 74 71 68 66
87 91 85 98 86 81 76 63 49 48 45 43 43 41 39 43 41 40 39 37 39 42 43 43 42 41 42 46 50 52 52 52 55 56 55 62 67 77 79 85 76 81 88 74 76 72 73 73 71
87 86 94 94 97 94 71 64 55 44 44 44 42 39 38 37 39 38 36 36 37 37 36 39 42 45 45 43 44 46 47 50 51 52 56 61 65 74 76 67 65 66 62 58 58 66 67 70 73
92 90 84 87 91 86 70 55 47 46 44 44 44 42 41 39 37 36 36 37 37 40 42 41 39 41 43 45 46 45 43 46 50 55 58 60 62 70 69 62 55 55 58 60 63 71 78 78 74
91 89 88 92 90 83 78 62 50 52 51 48 49 49 45 44 39 39 37 38 39 40 41 44 43 43 43 42 46 47 50 51 53 55 57 56 54 56 60 58 60 63 68 74 77 82 80 78 73

GFSSGP_prec_cthk_102.txt.gz
RH
58 71 83 82 91 91 79 69 57 70 74 69 68 66 67 61 57 54 55 49 40 40 43 42 33 28 27 20 18 27 36 39 32 38 45 56 65 70 63 35 22 12 10 11 13 15 16 17 20
59 77 94 91 96 96 74 54 59 63 68 73 73 68 68 69 63 62 59 50 44 40 42 40 34 32 28 20 18 28 39 42 47 52 61 72 66 53 30 18 12 11 12 14 15 16 16 17 18
67 86 98 98 92 86 60 47 53 59 70 77 78 73 72 72 69 64 59 52 47 44 40 38 35 33 26 19 18 27 34 38 41 50 64 49 35 22 14 12 12 13 14 13 13 14 18 20 21
74 90 99 98 89 65 51 42 52 66 72 84 83 78 76 77 73 69 61 55 49 47 42 40 36 32 26 20 18 24 34 33 32 32 25 22 19 13 13 13 13 14 13 15 17 21 22 23 24
78 91 92 96 80 54 52 47 50 64 69 82 81 80 81 81 77 72 60 58 52 48 44 41 37 31 25 21 17 21 27 29 26 24 21 18 14 13 13 13 14 17 18 20 21 23 21 24 25
89 83 91 97 73 53 49 51 53 60 64 67 80 84 87 83 79 73 64 60 55 48 45 42 37 31 26 25 19 16 20 22 21 18 15 13 13 13 14 16 18 19 20 22 24 24 23 24 25
84 79 98 91 76 58 49 53 59 56 61 66 74 93 93 86 85 80 67 62 59 51 46 44 37 32 28 28 23 17 14 14 13 13 13 13 14 16 18 20 21 22 23 24 25 24 25 24 25
71 87 79 95 83 67 53 56 56 57 65 68 75 92 95 87 88 82 72 61 61 55 51 45 38 33 28 30 27 20 16 15 14 14 15 17 19 20 21 22 23 24 25 25 26 26 25 25 25
77 97 86 90 87 69 62 61 57 55 68 68 76 81 88 91 92 88 79 70 65 60 53 47 36 32 27 27 29 24 19 16 16 18 19 20 21 22 22 23 23 24 24 24 25 26 25 25 25
79 97 92 75 86 74 67 54 54 62 68 73 80 83 84 95 96 93 85 78 72 66 55 47 40 35 28 26 30 29 25 23 22 23 24 25 26 26 26 26 26 25 25 24 24 24 24 25 25
70 87 87 87 86 83 66 61 58 64 69 65 74 87 86 83 87 89 84 68 71 66 63 51 45 39 32 30 32 34 35 31 30 30 30 31 32 32 31 31 30 30 28 25 24 23 23 23 24
75 81 92 93 90 82 70 62 58 58 63 69 73 78 85 79 79 75 82 78 70 68 63 57 49 43 37 36 37 39 40 37 34 32 31 31 32 34 35 35 35 34 33 31 27 24 24 25 25
87 95 97 98 91 78 73 66 59 59 65 74 71 74 82 88 84 79 86 83 70 61 68 62 56 52 48 46 45 46 47 45 41 38 35 34 33 33 33 34 35 36 38 38 37 32 29 28 29
94 97 90 98 98 83 77 70 62 64 70 70 72 67 70 82 88 88 89 86 72 61 71 72 64 60 58 54 53 51 51 52 51 49 46 44 43 40 39 37 36 37 39 39 40 42 40 36 33
95 96 95 97 95 86 81 73 74 67 67 66 71 72 76 74 79 77 79 79 74 74 74 84 75 67 62 59 58 58 55 55 56 55 53 53 52 50 48 45 43 41 41 40 38 40 44 46 43
93 92 97 96 97 88 84 85 75 70 65 67 71 75 79 81 82 85 83 81 75 80 80 83 83 74 66 65 63 61 60 58 57 57 59 59 58 56 56 54 51 49 49 46 43 42 41 43 46
91 95 96 96 96 90 86 86 78 75 70 66 68 76 81 83 84 87 83 78 79 82 82 82 80 86 80 73 72 66 63 59 58 58 63 64 65 62 59 57 56 54 53 53 54 54 50 45 44
83 84 85 89 95 92 91 88 78 74 74 71 68 67 73 76 80 91 85 76 79 84 79 79 82 88 93 83 80 73 68 69 66 70 69 69 69 66 62 60 60 59 57 54 53 57 59 58 57
67 73 76 79 90 89 93 88 80 75 71 72 70 67 67 69 75 82 81 85 85 90 85 87 86 84 88 89 89 87 78 72 68 68 68 67 69 67 63 63 64 62 60 61 62 62 65 67 67
70 75 77 81 82 85 93 86 81 77 77 73 74 69 65 63 65 70 72 84 91 84 86 90 94 90 92 87 85 89 88 84 81 78 76 75 78 77 72 68 65 63 65 64 70 79 83 81 77
62 66 66 67 79 83 85 88 82 79 78 73 70 71 66 61 60 63 64 69 76 78 85 92 92 93 92 95 95 90 94 93 89 81 85 83 77 72 71 69 67 64 70 73 77 85 84 90 83
61 59 57 64 68 74 74 74 81 72 73 73 71 68 67 64 61 59 59 59 60 61 67 74 79 76 80 90 86 88 88 83 82 82 79 82 81 81 81 85 86 89 91 85 91 93 89 89 87
57 58 60 65 67 70 71 73 66 71 68 69 72 65 63 65 64 59 58 56 55 56 57 60 65 68 72 77 83 85 84 81 78 79 80 76 74 74 75 76 82 84 94 97 95 95 94 90 88
58 61 65 73 73 77 64 68 63 63 57 60 61 62 64 64 64 61 60 60 58 56 55 56 56 60 63 70 73 75 77 79 76 77 75 76 74 69 71 73 80 93 96 99 98 91 87 83 77
63 70 85 90 90 81 68 76 51 48 51 52 53 52 52 57 60 61 61 60 62 60 57 55 54 54 59 63 66 67 68 72 73 74 75 75 71 68 70 73 73 78 89 94 85 85 78 65 58
77 74 80 81 86 82 76 73 56 42 45 46 47 44 46 54 53 54 58 60 62 60 56 52 49 52 55 57 60 62 63 66 68 68 66 64 65 66 69 75 73 75 79 81 79 74 65 63 69
84 92 83 87 82 84 77 60 48 46 40 38 39 43 42 41 46 47 50 53 56 57 54 52 49 48 53 56 56 56 58 59 60 60 61 61 59 60 66 72 73 76 79 76 73 75 69 72 61
88 86 97 98 97 96 73 58 49 46 48 44 41 43 44 42 44 46 45 46 47 50 49 50 48 46 47 48 52 55 55 54 57 58 59 59 58 59 65 70 72 75 73 68 64 61 57 56 55
95 98 95 93 91 88 75 59 49 48 53 50 48 45 46 46 44 44 47 47 47 45 44 42 41 42 44 46 48 48 48 48 46 46 45 46 50 58 70 79 74 65 60 56 56 56 53 54 60
93 98 98 95 94 84 76 65 51 51 50 50 52 53 49 47 44 44 43 43 43 43 43 43 43 43 41 40 41 44 45 45 45 45 49 53 57 60 63 64 59 55 55 56 57 60 62 65 67

GFSSGP_prec_cthk_105.txt.gz
RH
35 48 66 80 81 88 79 69 61 59 68 73 66 69 66 60 55 50 47 51 47 43 47 45 33 28 24 20 20 25 21 17 23 32 35 40 49 65 57 31 21 15 15 18 19 17 19 20 17
38 61 72 86 94 91 77 62 58 53 60 72 71 71 71 65 58 58 57 55 49 43 46 43 34 29 23 19 24 30 33 32 43 47 53 61 67 58 29 19 12 12 15 17 15 15 17 18 18
46 68 79 91 93 88 67 57 51 53 65 73 80 74 73 66 65 60 61 58 51 46 45 40 33 30 22 20 28 34 43 51 57 60 69 72 51 28 17 12 12 15 15 14 15 17 19 21 22
61 73 91 96 91 79 58 53 51 55 68 71 86 84 79 72 71 68 63 58 55 52 46 41 37 32 21 20 30 36 43 57 65 69 64 40 23 13 12 12 14 14 14 17 20 22 22 22 22
74 80 90 88 92 73 58 55 55 56 64 69 76 92 84 78 78 74 65 59 56 53 49 42 39 31 21 20 29 33 36 43 57 46 25 18 13 12 12 13 14 16 18 20 22 22 22 23 24
86 82 93 97 74 74 70 55 58 59 62 67 72 92 86 84 85 79 71 62 59 54 51 46 39 30 22 20 24 32 31 31 29 22 19 14 13 12 13 15 17 18 20 21 22 22 23 24 24
79 81 97 77 93 80 69 67 61 66 62 66 68 81 90 90 88 83 74 64 61 56 52 49 40 30 25 20 22 29 29 25 22 20 16 13 13 14 16 18 19 20 21 22 23 23 23 23 24
79 94 86 87 93 80 73 70 62 62 62 63 67 71 86 88 91 88 75 66 62 59 53 48 39 31 29 24 19 23 25 23 21 16 14 14 16 18 20 22 23 23 23 23 23 23 23 23 23
83 92 97 88 93 80 78 71 65 65 62 63 64 57 72 99 95 89 81 68 64 62 53 48 39 33 32 27 22 18 17 16 16 15 16 18 20 21 22 23 23 23 24 23 23 23 23 23 22
85 77 96 91 80 88 82 75 65 71 69 67 67 64 72 87 82 88 81 71 67 61 55 49 41 34 32 29 26 21 18 17 18 20 20 21 22 23 23 24 24 24 25 23 22 22 22 22 22
79 77 90 94 88 85 85 76 72 66 69 61 57 57 70 82 99 92 85 72 70 64 60 52 42 35 29 32 28 25 22 21 21 23 25 26 27 28 29 29 29 29 28 25 23 22 22 21 22
72 71 93 94 97 91 86 76 72 65 63 62 58 58 72 90 98 98 98 84 75 70 62 54 44 36 28 29 31 30 28 27 29 30 31 32 33 33 34 34 33 33 32 32 30 25 23 23 24
63 68 92 91 98 96 83 79 79 70 66 68 68 62 71 77 86 95 86 96 73 73 65 55 46 38 31 29 33 37 38 36 34 33 32 32 32 33 33 34 34 34 35 36 37 36 34 32 29
56 65 80 81 92 92 85 79 80 74 67 69 74 69 73 77 83 90 87 86 85 79 73 55 50 45 38 36 36 39 42 44 41 38 38 38 39 39 38 38 36 35 37 38 39 39 39 40 41
50 72 73 94 92 92 87 88 83 81 74 70 80 71 73 79 88 95 86 83 86 81 67 55 54 52 47 43 43 44 47 50 51 50 50 50 49 49 50 48 45 45 45 43 41 41 41 40 41
59 84 98 90 94 94 92 83 80 76 74 73 79 77 73 74 82 90 86 89 86 76 67 59 54 60 62 57 53 53 53 55 56 57 57 56 56 56 57 57 54 52 52 51 50 49 50 49 46
73 85 91 85 89 97 91 84 79 79 77 77 83 89 84 85 82 87 86 87 82 84 69 58 60 63 65 71 67 63 62 60 58 58 59 60 60 62 61 60 58 55 56 57 55 53 53 55 54
68 77 85 83 89 97 90 78 75 76 79 77 81 82 87 89 89 89 84 88 89 85 71 66 70 72 75 73 75 73 67 65 62 60 59 59 63 65 66 66 62 59 60 60 60 59 58 62 62
63 68 77 74 83 97 92 83 74 74 76 75 73 74 77 83 84 90 91 93 89 84 84 81 78 76 76 80 89 81 75 71 68 64 62 65 70 65 65 67 69 66 67 66 64 63 66 68 74
65 64 69 69 85 90 87 86 78 74 72 72 69 67 69 73 78 81 86 92 88 88 88 81 82 86 83 83 91 96 85 81 78 74 70 69 73 70 75 76 74 72 71 69 70 65 67 76 85
62 62 66 69 81 83 80 83 80 75 78 74 70 66 67 68 69 73 79 83 89 88 91 89 89 87 88 89 88 89 85 84 83 77 86 83 84 85 83 77 75 72 73 72 74 72 83 91 94
57 57 61 70 79 84 79 81 78 78 77 78 75 70 67 66 66 67 70 75 77 81 86 91 93 93 90 88 86 89 89 88 85 87 89 96 96 92 88 75 75 82 85 90 94 93 94 94 92
50 56 61 68 70 71 77 77 75 72 68 67 73 75 73 68 66 67 68 68 71 74 81 81 80 91 88 82 87 95 96 95 96 88 92 97 88 86 83 80 78 79 82 93 94 96 98 93 83
57 61 66 70 70 79 64 69 58 67 61 65 64 65 70 72 71 68 67 66 66 65 65 69 70 77 81 80 88 90 93 85 87 87 87 93 86 81 77 77 79 84 85 89 92 92 92 93 94
66 68 79 80 79 70 63 71 49 50 47 55 58 62 73 74 72 69 66 64 64 65 64 62 60 63 68 79 77 76 75 81 84 82 80 81 84 77 73 73 74 74 74 78 85 86 85 86 85
77 75 76 78 79 75 72 73 50 45 41 49 55 58 65 72 65 70 69 67 64 61 60 60 58 58 59 61 64 68 70 72 72 71 71 73 74 74 70 71 69 69 72 74 82 81 75 74 67
82 92 86 89 78 71 66 57 44 43 42 40 46 50 51 59 61 64 71 70 66 63 62 60 57 56 57 57 57 59 61 62 65 66 65 66 67 66 65 64 65 67 68 68 74 76 71 67 65
89 92 99 97 97 89 66 58 47 43 44 41 42 44 50 52 55 57 61 58 59 64 64 62 59 57 55 56 57 56 54 55 57 58 59 59 60 60 62 64 64 66 65 68 70 70 71 65 61
88 95 96 96 91 85 76 58 47 43 44 49 46 46 46 49 53 52 52 56 51 56 62 60 59 57 55 53 52 52 51 50 53 55 56 59 59 58 58 58 60 58 63 67 68 65 63 57 53
89 99 99 95 94 85 75 63 56 54 50 51 51 47 52 50 49 51 50 50 54 55 56 56 56 55 51 48 48 48 48 49 50 51 51 49 49 53 55 60 62 64 60 55 53 55 55 53 53

GFSSGP_prec_cthk_108.txt.gz
RH
26 43 50 67 81 80 61 43 42 46 51 53 57 67 57 59 55 55 52 55 54 53 52 49 40 33 26 21 18 20 17 17 15 27 40 43 48 55 48 34 29 22 19 20 23 22 17 15 15
34 43 57 72 87 81 55 41 44 45 52 57 61 71 66 62 58 59 55 56 57 55 52 49 39 31 25 19 20 20 18 21 23 39 50 56 53 55 33 24 22 16 21 20 20 18 17 17 17
44 48 69 80 87 76 48 43 51 50 52 56 60 72 74 70 64 62 61 57 62 56 51 47 37 30 24 19 25 20 21 28 39 49 60 63 62 34 20 15 14 22 16 14 15 18 19 20 20
55 56 76 88 86 79 49 56 55 55 54 57 61 75 77 76 70 66 64 63 64 58 51 42 36 30 22 26 31 34 38 44 56 65 74 75 40 21 14 13 15 14 14 15 18 21 21 21 21
66 77 78 92 74 85 68 67 63 55 51 55 64 72 78 79 73 73 67 65 65 59 54 42 37 30 24 30 34 43 48 58 66 76 74 46 21 13 13 14 13 15 17 19 20 20 21 22 22
75 83 81 87 92 73 79 72 62 54 53 62 65 71 76 80 79 77 73 68 65 63 55 43 40 31 26 34 36 43 54 61 72 64 41 20 13 13 14 14 15 18 19 20 21 21 21 22 23
74 89 85 67 92 89 86 79 66 63 59 62 64 68 72 84 82 81 80 74 66 63 58 47 41 30 27 33 38 42 47 58 55 29 19 14 14 13 15 17 18 19 20 21 22 22 21 22 22
71 86 85 78 96 89 89 85 77 68 68 66 63 64 70 75 85 86 84 76 70 64 58 51 43 31 28 32 37 41 42 40 25 20 16 14 13 16 18 19 20 21 22 23 23 23 22 22 21
72 83 82 90 93 86 84 88 84 74 82 74 65 66 63 66 79 93 89 80 74 67 60 54 43 37 31 30 36 39 34 29 23 19 15 15 17 19 22 23 23 24 25 25 25 24 23 23 22
81 79 85 87 91 91 92 88 82 76 79 80 74 70 62 64 77 95 92 87 78 72 66 58 48 42 34 27 29 35 32 29 26 18 16 21 26 29 30 24 24 24 25 25 24 24 23 23 23
77 80 81 95 97 98 90 88 88 80 72 72 65 66 63 69 74 99 97 90 78 78 72 60 51 44 39 30 28 28 27 28 26 27 27 29 30 24 26 27 28 27 26 26 25 24 24 24 24
81 83 90 93 98 93 94 88 88 82 65 73 65 64 63 62 70 95 99 97 87 82 74 62 51 42 44 31 29 26 26 25 27 30 29 29 31 30 33 33 32 33 32 31 30 28 25 24 24
74 82 87 88 92 93 89 83 91 86 80 68 71 77 73 73 74 84 97 98 98 94 80 65 53 43 42 39 30 25 28 26 25 27 28 32 33 34 35 36 35 35 35 35 35 35 33 33 34
71 74 78 76 87 91 97 90 94 77 74 70 77 78 71 70 71 78 95 91 93 97 85 71 54 44 34 38 33 29 29 30 29 33 35 35 34 34 35 35 35 35 36 37 38 39 39 38 38
65 66 73 81 89 86 93 85 82 79 73 71 79 79 72 78 74 82 87 86 87 93 87 70 55 44 34 31 35 35 34 36 36 36 35 35 36 37 37 38 39 39 39 41 42 42 42 42 40
57 57 70 78 76 91 90 83 83 78 71 72 73 75 85 79 80 84 85 87 87 98 92 77 60 48 38 34 35 37 42 42 41 39 40 43 44 46 48 50 49 50 50 50 50 50 49 51 51
50 51 68 68 81 90 89 91 82 76 73 75 73 79 87 81 81 85 86 88 93 93 91 83 68 55 47 43 42 41 42 45 48 50 52 53 55 56 58 60 60 59 56 55 56 54 54 55 56
51 58 61 64 74 76 89 90 81 77 76 76 75 79 85 86 88 84 92 95 92 94 94 86 78 64 58 54 53 51 49 50 52 56 62 62 63 63 65 65 63 61 61 59 60 60 57 57 60
58 58 53 68 64 67 88 86 84 77 80 72 72 77 87 89 91 90 93 94 98 91 93 83 79 67 61 63 63 61 60 60 62 61 64 65 67 68 66 67 67 68 71 69 68 69 63 62 64
61 57 61 58 55 70 83 85 80 74 76 74 72 78 80 89 89 91 94 96 96 94 93 90 80 68 67 64 67 71 74 77 75 73 69 66 66 68 74 75 72 73 80 77 74 72 69 69 70
59 57 58 55 56 71 77 77 80 76 77 73 70 72 77 80 81 79 86 87 94 98 93 90 84 75 71 64 66 77 80 80 82 84 79 77 75 74 82 84 80 84 84 78 75 76 74 80 90
51 53 55 57 60 76 71 69 82 80 75 71 70 68 70 74 76 80 81 81 76 77 91 91 88 83 77 70 66 76 81 78 83 89 91 82 78 84 87 89 95 93 87 79 83 86 90 90 92
52 52 50 54 57 61 70 70 69 78 78 72 68 65 63 66 71 70 73 80 78 89 80 86 91 92 89 82 78 87 85 91 90 84 86 87 84 86 87 87 89 90 91 89 92 94 95 96 91
55 56 60 62 62 59 51 63 48 62 70 77 75 74 75 71 67 67 70 74 76 82 89 89 88 87 91 97 91 87 87 92 97 90 89 86 86 86 89 88 90 93 91 86 84 82 83 89 94
60 66 73 71 74 55 52 61 46 50 64 72 70 75 76 75 71 68 67 66 68 73 77 79 80 81 86 96 89 94 91 93 90 89 87 84 86 84 87 88 90 86 84 80 78 79 81 83 82
70 73 74 69 64 54 54 55 44 45 48 63 64 61 61 60 69 72 68 66 65 64 65 68 69 71 72 76 77 81 86 94 94 92 89 89 87 84 85 87 83 78 75 74 76 75 78 78 75
88 83 81 81 70 65 56 45 43 42 43 50 62 53 53 58 63 71 71 68 66 66 67 67 66 62 61 62 63 65 76 78 82 79 81 81 78 76 78 78 74 72 70 71 73 75 73 72 68
82 89 98 95 92 74 55 47 42 44 44 43 52 55 53 56 64 64 69 73 74 72 69 69 67 64 60 57 56 60 65 71 71 69 67 66 66 67 69 67 65 64 66 70 70 68 67 64 64
70 85 94 98 91 72 60 51 47 47 48 47 46 51 53 52 52 55 58 56 69 75 74 71 69 67 65 62 61 63 65 64 64 61 60 59 61 61 64 64 65 66 67 62 61 62 61 63 59
77 92 93 95 92 93 74 63 59 58 57 51 51 55 58 61 58 54 52 52 52 57 65 71 72 69 66 64 62 61 59 59 58 56 55 56 56 57 57 61 63 63 62 64 67 65 58 53 51

GFSSGP_prec_cthk_111.txt.gz
RH
24 30 43 47 64 71 47 30 32 32 32 38 47 56 55 59 56 62 58 52 56 58 55 53 44 35 28 23 21 19 20 22 28 22 34 48 52 54 41 35 31 22 21 24 18 19 18 16 16
30 40 43 57 67 66 42 27 30 33 35 44 48 50 54 60 71 65 56 54 56 59 56 55 46 35 27 23 19 17 24 21 22 29 38 54 50 50 38 35 27 16 24 23 18 13 13 14 15
24 35 58 65 66 68 37 32 35 35 42 45 53 52 57 59 73 63 56 55 57 59 58 54 45 35 27 22 18 18 24 23 27 39 49 60 52 43 32 26 19 16 20 18 15 15 15 17 19
34 41 56 78 65 52 48 44 45 45 47 52 61 57 59 71 79 63 59 62 58 61 60 52 43 35 28 21 23 18 23 31 34 49 56 59 56 33 28 20 20 15 15 14 16 18 18 19 20
40 47 52 60 75 63 59 51 56 55 53 57 69 62 58 71 71 68 62 64 62 62 62 52 41 34 27 24 25 18 28 38 50 58 64 66 42 22 19 18 15 14 15 18 19 19 19 20 22
53 50 60 63 53 84 65 76 68 68 66 62 66 70 66 75 72 74 71 68 68 64 63 53 41 33 26 30 32 31 39 50 61 70 77 61 27 16 15 15 15 17 20 20 20 20 20 21 22
60 65 60 66 61 68 89 81 86 85 73 70 65 76 74 68 73 76 80 78 73 69 65 56 42 33 33 37 42 46 50 63 73 80 70 34 16 14 15 16 23 21 21 21 21 21 20 21 22
70 80 71 70 72 62 77 84 82 83 81 74 73 56 74 70 79 79 83 86 82 75 69 60 47 38 41 43 47 52 59 69 77 67 40 20 15 14 15 19 26 23 24 23 23 22 21 21 21
80 90 86 72 74 69 79 92 85 88 91 81 67 81 67 66 79 81 80 90 87 82 72 63 52 45 46 50 51 53 62 72 62 45 23 16 15 16 19 23 29 29 27 26 25 24 23 22 22
85 89 80 74 81 91 78 90 91 92 89 74 71 74 65 70 75 77 81 93 91 86 77 65 55 50 51 51 50 53 60 64 40 26 18 21 20 25 27 25 30 32 28 27 26 26 24 23 23
84 90 78 80 94 96 79 89 92 97 85 71 67 81 67 70 72 76 76 95 94 92 80 67 59 52 53 51 52 54 54 42 30 26 22 27 27 27 32 26 28 29 27 27 26 25 24 26 28
83 82 80 87 86 90 93 95 95 93 80 71 60 75 80 63 69 70 72 97 99 99 91 72 67 59 51 45 52 51 44 40 33 27 27 32 32 31 32 28 29 30 29 32 28 27 30 27 28
74 85 83 86 82 83 91 93 91 86 84 81 90 97 69 73 71 69 75 86 94 98 98 89 70 67 52 45 46 46 42 37 34 28 30 32 32 33 36 38 39 39 37 39 38 36 35 34 35
75 78 80 81 75 83 87 84 88 79 87 90 91 86 69 70 70 71 76 82 91 96 99 98 73 72 65 48 44 39 35 33 33 31 32 33 36 38 40 40 41 40 39 39 39 39 39 39 40
76 73 76 76 78 78 78 74 79 78 89 86 77 87 79 80 78 77 77 76 88 93 98 98 83 66 71 49 44 39 33 31 30 32 35 37 38 39 38 39 39 40 38 41 44 44 45 44 44
69 71 77 71 72 71 69 83 85 76 85 85 82 80 82 79 79 77 75 71 84 90 95 97 84 64 58 66 45 41 41 33 33 35 37 38 40 38 38 38 39 41 40 43 44 46 46 49 50
59 58 65 55 63 72 79 74 84 92 87 81 78 80 90 87 81 75 73 80 84 85 88 98 88 66 52 52 57 43 40 38 39 42 44 39 38 38 41 45 47 50 48 49 52 53 54 54 54
66 56 64 65 70 66 65 68 86 86 78 79 80 79 79 90 81 74 81 81 87 86 84 97 90 72 54 45 44 44 45 44 44 43 43 42 45 45 48 54 57 59 59 60 59 59 59 59 60
59 58 55 52 60 61 60 67 85 83 80 77 79 79 76 79 91 83 82 84 86 88 99 93 88 81 62 48 43 42 42 44 51 51 51 51 54 58 58 61 67 65 64 66 69 68 66 65 64
59 54 53 57 52 53 55 71 79 80 79 81 76 74 73 85 87 90 88 91 90 92 96 95 91 89 71 58 50 46 46 48 51 53 54 59 63 64 67 70 73 74 73 71 75 76 74 73 72
58 62 58 56 58 52 62 68 79 74 75 75 75 73 78 80 81 97 93 95 93 90 93 97 96 93 83 75 69 66 62 63 63 62 64 63 65 66 70 75 74 76 80 83 84 83 76 76 80
59 54 55 56 58 58 55 81 74 73 73 75 74 75 77 84 83 82 88 88 88 93 92 94 89 91 84 96 78 73 71 71 67 72 76 79 81 80 81 84 79 80 82 84 91 90 83 81 87
58 56 53 51 52 53 55 61 73 73 73 69 71 73 75 78 80 83 84 86 88 84 84 83 92 95 94 89 86 83 80 75 72 74 82 87 88 89 85 84 79 79 82 87 87 87 95 98 85
50 53 55 57 55 56 49 54 68 72 76 75 71 72 73 74 80 82 83 83 87 84 82 88 90 93 94 95 90 80 74 74 74 76 77 83 88 90 90 89 84 85 88 87 88 93 91 91 94
52 63 81 77 72 56 48 50 62 56 68 77 74 72 69 71 74 72 70 76 78 84 83 84 84 86 87 85 80 80 79 78 74 72 75 81 83 88 90 86 86 89 87 89 93 92 90 83 82
78 79 85 87 75 56 53 53 63 50 51 67 72 74 72 72 72 70 71 72 76 80 76 75 78 86 86 92 91 83 80 77 75 85 82 83 88 92 86 89 89 87 86 85 86 90 86 76 76
75 81 80 85 69 61 56 48 46 44 47 52 64 73 73 71 70 77 76 74 73 71 75 77 80 85 91 88 86 90 93 91 93 96 91 88 85 89 89 92 86 89 87 84 85 80 79 75 75
68 86 89 83 85 69 57 49 64 49 50 47 51 62 67 69 70 69 70 73 73 70 69 71 75 84 82 81 77 83 83 87 83 86 84 85 88 88 87 83 81 82 78 78 73 70 70 72 71
69 83 86 96 91 94 73 70 57 54 52 53 48 51 60 62 68 74 71 73 72 71 70 71 73 75 73 69 67 67 68 72 73 76 82 80 78 73 70 70 70 70 70 70 69 69 70 66 65
65 73 82 84 96 82 85 86 70 61 55 56 59 52 59 62 67 70 70 72 68 67 76 75 75 75 73 70 66 65 67 68 69 70 73 74 72 70 70 67 66 66 66 69 70 68 65 63 66

GFSSGP_prec_cthk_114.txt.gz
RH
24 31 35 40 53 53 42 30 30 25 25 28 29 34 37 42 53 63 58 57 54 46 52 51 46 38 32 27 25 24 24 28 30 32 38 44 52 50 39 33 29 24 18 14 19 21 16 14 17
28 38 43 50 59 52 30 24 27 28 28 27 33 34 38 45 58 67 63 59 51 47 48 52 50 41 32 27 24 21 22 29 31 29 36 47 50 50 34 32 26 31 17 15 16 14 14 14 16
23 35 43 52 55 44 26 26 27 29 30 33 34 37 38 52 67 56 64 62 55 50 51 51 52 44 33 28 25 22 20 23 30 33 44 52 48 45 38 30 26 28 18 13 12 13 14 16 18
34 35 46 54 47 34 33 36 39 39 37 39 37 48 49 60 60 49 57 61 57 52 53 53 53 47 34 28 23 24 25 20 30 38 52 61 51 40 34 25 21 24 16 14 14 16 17 18 19
39 47 48 51 42 33 32 34 34 41 45 44 48 50 65 62 63 54 60 53 64 59 56 57 53 47 36 28 24 25 27 21 32 48 58 60 52 36 27 21 19 20 15 16 18 18 18 19 21
53 49 52 48 34 27 31 36 42 40 51 50 56 59 63 79 60 57 64 58 67 61 61 60 54 46 38 29 28 26 27 27 37 56 65 64 45 30 23 16 16 16 19 20 20 19 20 21 22
56 66 56 50 42 36 29 35 49 49 60 54 65 76 67 83 66 63 67 67 68 68 65 63 54 45 37 34 28 28 36 37 51 63 65 66 40 28 20 14 15 20 26 21 21 21 20 21 22
67 76 74 68 50 44 36 38 49 54 62 66 76 74 80 75 71 65 69 70 70 73 70 64 55 45 39 41 31 36 45 53 61 69 75 54 36 25 16 22 19 22 27 22 21 21 21 21 22
76 83 75 63 67 49 46 63 68 63 68 86 86 85 83 96 90 77 68 69 72 80 74 68 57 47 41 45 47 48 50 62 72 76 73 40 31 22 18 26 24 21 22 23 23 23 22 21 21
77 79 67 70 72 67 70 75 89 86 81 88 91 82 89 76 82 85 73 68 75 81 79 71 61 49 46 48 53 56 58 67 78 78 49 33 27 18 22 28 27 24 24 25 25 25 24 22 22
72 73 71 77 80 84 88 90 91 92 85 83 93 84 89 92 86 98 86 72 76 78 85 72 65 54 51 49 54 57 62 71 77 59 38 33 21 24 27 29 30 30 26 26 26 25 25 24 26
74 73 76 78 92 87 85 93 88 86 71 77 89 91 82 77 78 90 86 70 79 80 96 87 74 62 56 54 55 58 62 73 63 44 36 32 24 25 26 26 30 27 26 26 26 26 26 26 28
87 70 78 80 85 85 80 78 79 76 75 79 84 80 83 91 93 94 84 68 76 71 96 89 83 70 62 62 60 60 66 70 49 38 33 28 27 27 29 26 26 27 28 29 29 30 33 31 31
85 81 75 79 79 78 72 70 73 72 71 67 80 77 78 86 84 97 89 72 81 72 88 98 91 69 65 64 60 64 64 66 43 31 35 30 29 31 31 27 31 33 35 38 36 36 36 35 36
71 86 78 77 72 73 72 68 65 63 65 74 73 76 75 80 92 94 82 75 78 75 81 95 98 83 59 58 63 62 60 56 34 31 32 30 31 31 33 36 38 38 38 38 38 39 41 42 43
65 71 81 75 74 75 74 65 65 69 76 83 77 78 73 75 79 96 85 82 73 70 74 92 98 94 65 55 58 58 54 43 35 32 29 32 33 34 36 38 39 39 37 40 42 46 46 46 46
70 75 80 74 70 68 69 69 69 73 74 76 81 79 70 85 96 90 83 75 68 60 65 93 98 96 82 67 52 54 52 41 36 33 32 34 36 37 37 40 40 41 43 45 46 47 47 48 51
87 88 79 77 72 71 68 70 65 71 81 77 79 82 87 90 93 85 82 73 64 58 70 79 96 98 88 86 60 57 50 41 36 32 33 34 37 39 41 44 46 49 49 51 55 50 53 55 57
69 67 67 62 64 62 59 56 64 72 78 77 72 71 79 79 93 85 79 76 66 58 65 78 89 98 79 89 78 55 52 45 39 36 37 37 40 43 45 49 53 54 53 63 55 62 64 63 67
68 70 72 71 66 62 52 51 68 74 77 74 71 70 77 79 92 93 80 79 77 68 74 78 92 97 79 69 90 70 58 51 43 40 43 46 49 49 49 53 55 59 63 59 65 75 72 74 74
66 75 70 73 62 59 64 59 66 78 78 78 72 74 80 88 91 91 88 85 81 79 80 87 96 98 87 61 53 62 61 56 52 52 54 54 54 55 56 58 59 67 65 69 77 82 80 84 84
60 68 60 54 61 82 63 64 63 72 80 83 79 76 73 83 87 87 82 88 91 87 90 93 88 99 97 78 56 53 50 48 45 47 51 57 57 59 62 66 68 72 75 85 86 89 90 94 88
53 55 62 53 59 60 58 62 90 74 72 78 75 78 81 78 85 85 80 83 88 87 91 96 96 95 99 97 82 69 62 55 55 60 64 63 60 61 68 70 76 81 85 87 91 91 91 92 89
44 46 51 58 64 70 58 61 96 82 83 79 76 73 74 78 85 82 76 75 84 87 86 87 91 93 95 96 96 92 85 79 78 71 72 76 67 73 72 75 77 81 84 90 88 83 84 86 86
68 64 86 91 85 76 55 58 77 67 75 83 87 79 77 79 85 86 82 81 82 84 87 87 86 89 92 95 93 96 87 85 85 86 82 81 78 78 75 78 79 80 85 91 91 87 88 90 86
71 86 97 96 96 93 59 81 66 58 65 76 91 87 81 77 80 85 87 89 85 85 90 90 86 85 87 89 92 90 86 91 91 84 79 77 80 78 80 78 77 78 85 87 89 87 91 91 89
70 87 85 96 77 76 70 61 54 53 53 64 77 84 78 75 80 80 79 79 83 86 84 85 83 82 83 84 90 91 89 85 85 86 85 82 78 79 80 81 73 80 84 88 93 93 92 87 84
77 81 89 90 90 73 75 74 73 60 56 55 58 65 72 83 76 79 81 77 77 76 81 85 89 83 84 87 93 90 88 92 89 88 87 83 75 77 83 83 83 88 92 92 96 92 91 82 75
68 82 83 91 91 97 96 95 71 66 57 57 57 61 68 76 80 79 80 79 78 80 78 77 83 89 89 90 94 90 87 84 85 93 85 83 90 90 89 90 92 92 90 88 88 84 78 74 75
59 67 79 86 86 93 98 98 76 69 63 62 60 57 62 70 74 73 73 71 72 75 77 77 77 79 80 83 81 78 75 72 69 73 76 77 78 80 82 80 81 80 78 77 78 75 72 75 76

GFSSGP_prec_cthk_117.txt.gz
RH
19 31 32 37 45 47 38 33 26 26 25 22 22 27 31 30 38 47 41 47 52 53 49 45 47 44 37 32 29 30 31 31 31 38 42 44 46 52 36 27 37 32 15 24 26 15 17 18 20
26 35 35 41 48 52 26 23 28 26 26 25 26 29 27 28 46 47 47 46 55 59 51 46 45 46 40 35 31 30 30 31 29 35 41 46 49 49 33 25 29 21 18 21 17 14 15 18 19
34 42 39 45 50 44 33 27 25 26 26 28 31 31 31 30 39 42 42 48 50 60 55 50 44 47 43 36 31 29 30 30 30 33 39 46 50 46 29 30 40 16 17 16 14 14 15 16 18
35 43 47 53 46 32 33 30 28 31 27 28 34 34 34 37 36 45 44 48 52 56 53 55 49 44 45 38 30 27 28 31 33 29 41 50 50 43 27 34 31 15 14 13 14 15 17 18 19
41 44 52 51 40 33 27 25 24 30 31 29 38 40 40 40 42 46 48 47 51 60 58 56 52 45 44 40 32 26 24 27 31 32 47 55 60 38 28 31 25 15 14 15 17 18 18 19 21
50 48 55 50 36 28 26 25 30 24 28 36 38 45 45 52 59 53 48 46 53 55 58 58 55 49 43 42 35 29 26 24 31 38 53 63 62 35 30 26 22 14 14 18 19 19 20 21 21
56 56 50 47 43 35 27 23 27 25 22 35 39 48 46 59 81 70 54 47 53 55 57 60 56 53 44 40 36 31 32 23 35 45 58 63 53 36 29 23 18 15 16 19 20 20 21 21 21
64 65 58 51 46 39 30 31 30 30 24 25 43 50 50 54 86 80 83 66 59 57 62 60 59 55 46 39 38 37 34 28 38 52 60 63 46 35 29 20 17 20 18 19 20 21 21 21 21
69 69 60 55 57 42 41 45 40 37 41 29 44 47 49 55 72 79 83 90 77 66 64 60 59 58 49 40 41 41 39 37 45 58 59 60 45 41 33 20 22 25 20 20 20 21 22 22 22
67 67 58 57 57 48 46 52 47 46 49 33 48 49 53 55 70 74 81 92 85 67 64 66 64 61 54 44 39 45 47 44 51 60 62 53 44 42 36 25 25 23 21 22 22 22 22 22 22
67 62 61 65 60 66 61 60 58 56 54 37 42 55 59 58 63 75 81 90 80 68 70 70 64 68 58 50 44 48 51 50 58 62 68 47 40 37 35 26 23 21 22 24 24 24 23 23 23
71 68 67 70 72 75 76 78 77 75 59 62 59 59 67 64 68 84 86 97 89 77 72 77 74 69 66 58 53 53 53 55 60 66 67 42 38 37 32 26 23 23 24 25 25 24 23 24 24
74 71 71 67 76 78 81 81 78 69 67 78 71 72 81 71 74 87 69 92 98 89 77 70 71 76 72 67 64 59 58 60 65 72 53 38 37 32 26 28 25 24 25 25 25 25 25 25 27
67 73 76 76 73 80 83 74 79 70 69 78 75 74 78 81 80 84 79 90 99 96 85 74 76 78 78 75 69 67 65 66 73 70 43 41 36 30 22 24 25 24 25 26 27 28 30 29 31
65 68 74 77 82 87 88 81 81 72 69 73 71 73 80 76 88 85 71 80 92 98 89 87 81 80 84 81 71 75 74 71 72 53 42 44 36 28 25 27 26 26 28 31 33 34 35 35 37
68 68 76 73 77 84 84 77 70 73 75 75 75 81 82 79 88 79 81 86 99 98 95 91 86 84 83 86 83 79 79 70 70 54 45 45 33 27 29 28 30 34 34 35 36 38 41 41 43
81 88 86 83 79 81 83 72 63 66 67 73 78 80 79 79 80 81 86 87 93 99 98 92 84 80 83 98 89 85 80 86 73 56 47 38 30 31 32 33 36 36 37 38 39 41 44 45 46
87 85 82 86 77 82 82 72 62 60 59 70 76 78 79 76 75 80 82 87 98 98 98 90 89 81 81 85 84 84 81 78 73 60 40 33 32 35 36 38 37 37 39 39 42 44 46 49 56
78 73 77 78 77 75 71 65 65 60 66 76 84 83 88 85 80 77 94 93 97 91 86 88 87 84 88 89 81 74 78 70 71 55 40 35 35 36 37 36 39 41 43 45 49 51 51 57 58
67 75 83 87 85 76 64 64 72 67 72 80 72 72 79 82 78 88 94 96 95 87 85 81 82 83 92 95 88 68 68 67 62 50 45 37 38 37 38 42 45 48 49 52 55 56 57 69 62
63 71 76 74 69 64 70 71 76 74 70 75 70 71 76 81 80 90 94 93 97 91 83 82 82 84 85 98 95 84 64 63 59 49 45 38 37 38 43 49 50 53 54 57 59 63 72 69 75
60 63 64 65 63 63 59 78 76 82 83 78 75 79 82 79 79 82 84 88 94 95 88 84 83 88 90 94 99 95 85 72 62 48 45 42 43 46 49 53 55 59 61 64 65 72 83 86 89
53 51 56 60 63 55 63 91 96 92 92 91 88 85 84 78 85 91 94 95 85 90 95 87 89 86 91 86 95 96 91 78 67 53 53 53 54 54 56 56 60 61 64 67 72 77 89 92 98
47 49 47 49 59 69 64 85 84 78 89 91 89 89 90 87 86 91 88 90 84 90 92 99 95 94 91 87 88 94 91 88 83 73 65 61 61 63 63 64 66 69 72 76 72 78 83 85 93
68 71 82 84 79 85 64 78 83 72 89 89 93 90 91 97 96 95 91 84 85 88 91 94 97 96 96 91 89 91 80 81 82 76 63 57 58 64 67 73 75 76 78 78 77 76 77 80 90
77 89 98 97 93 89 70 73 84 68 73 83 92 92 90 91 97 95 95 91 93 89 91 94 95 95 95 98 95 91 92 88 84 87 84 84 77 76 80 88 86 85 83 83 82 79 76 77 84
78 87 83 97 95 91 87 76 68 64 65 75 84 92 89 83 88 91 94 93 94 90 92 94 94 91 92 92 98 97 96 94 94 91 92 90 86 84 82 81 82 81 82 85 84 81 82 83 88
73 77 83 87 94 96 92 92 81 68 68 70 75 83 84 85 82 81 83 88 91 93 90 91 92 94 93 94 92 91 91 89 92 92 88 87 86 85 87 80 81 79 83 89 88 86 86 87 96
68 74 79 82 87 97 95 92 76 69 67 69 70 70 78 75 83 83 81 81 84 83 83 87 92 92 90 94 95 94 94 92 95 92 88 93 91 88 84 81 84 84 91 91 90 88 95 90 93
55 62 69 77 88 94 91 93 82 73 66 67 68 65 68 69 75 81 81 82 83 83 84 80 85 91 89 92 94 95 97 98 94 97 97 94 92 93 90 86 89 88 93 96 96 95 93 92 92